<?xml version="1.0" encoding="UTF-8" standalone="no" ?>
<gpx xmlns="http://www.topografix.com/GPX/1/1" xmlns:xsi="http://www.w3.org/2001/XMLSchema-instance" xsi:schemaLocation="http://www.topografix.com/GPX/1/1 http://www.topografix.com/GPX/1/1/gpx.xsd" version="1.1" creator="VisuGPX - https://www.visugpx.com">
  <metadata>
    <name>chateauvallon-broussan</name>
    <desc><![CDATA[belle boucle autour du baou en partant de chateauvallon. 3 beaux singles de descente, le premier magnifique au fond d'un vallon perdu (pas facile quand même) le second tout en face de la mer et le dernier, permet de rejoindre chateauvallon en passant par le destel, très beau aussi.]]></desc>
  </metadata>
  <trk>
    <name><![CDATA[Tracé]]></name>
    <trkseg>
      <trkpt lat="43.14734" lon="5.87157">
        <ele>109</ele>
        <time>2022-06-01T06:45:03Z</time>
      </trkpt>
      <trkpt lat="43.14738" lon="5.87141">
        <ele>110</ele>
        <time>2022-06-01T06:45:08Z</time>
      </trkpt>
      <trkpt lat="43.14742" lon="5.87129">
        <ele>111.2</ele>
        <time>2022-06-01T06:45:12Z</time>
      </trkpt>
      <trkpt lat="43.14744" lon="5.87105">
        <ele>112.2</ele>
        <time>2022-06-01T06:45:21Z</time>
      </trkpt>
      <trkpt lat="43.14743" lon="5.87092">
        <ele>113.2</ele>
        <time>2022-06-01T06:45:26Z</time>
      </trkpt>
      <trkpt lat="43.14743" lon="5.87079">
        <ele>114.6</ele>
        <time>2022-06-01T06:45:30Z</time>
      </trkpt>
      <trkpt lat="43.14742" lon="5.87066">
        <ele>115.6</ele>
        <time>2022-06-01T06:45:34Z</time>
      </trkpt>
      <trkpt lat="43.14741" lon="5.87053">
        <ele>116.6</ele>
        <time>2022-06-01T06:45:39Z</time>
      </trkpt>
      <trkpt lat="43.1474" lon="5.87041">
        <ele>117.6</ele>
        <time>2022-06-01T06:45:43Z</time>
      </trkpt>
      <trkpt lat="43.14738" lon="5.87009">
        <ele>118.6</ele>
        <time>2022-06-01T06:45:52Z</time>
      </trkpt>
      <trkpt lat="43.14742" lon="5.86968">
        <ele>119</ele>
        <time>2022-06-01T06:46:01Z</time>
      </trkpt>
      <trkpt lat="43.14742" lon="5.86912">
        <ele>119.4</ele>
        <time>2022-06-01T06:46:15Z</time>
      </trkpt>
      <trkpt lat="43.14742" lon="5.86905">
        <ele>119.6</ele>
        <time>2022-06-01T06:46:17Z</time>
      </trkpt>
      <trkpt lat="43.1474" lon="5.86874">
        <ele>120.6</ele>
        <time>2022-06-01T06:46:28Z</time>
      </trkpt>
      <trkpt lat="43.14741" lon="5.86863">
        <ele>121.6</ele>
        <time>2022-06-01T06:46:32Z</time>
      </trkpt>
      <trkpt lat="43.14746" lon="5.8685">
        <ele>123</ele>
        <time>2022-06-01T06:46:37Z</time>
      </trkpt>
      <trkpt lat="43.14754" lon="5.86841">
        <ele>124.2</ele>
        <time>2022-06-01T06:46:42Z</time>
      </trkpt>
      <trkpt lat="43.1477" lon="5.86823">
        <ele>125</ele>
        <time>2022-06-01T06:46:52Z</time>
      </trkpt>
      <trkpt lat="43.14805" lon="5.86796">
        <ele>124.8</ele>
        <time>2022-06-01T06:47:08Z</time>
      </trkpt>
      <trkpt lat="43.14822" lon="5.86797">
        <ele>125.2</ele>
        <time>2022-06-01T06:47:14Z</time>
      </trkpt>
      <trkpt lat="43.14838" lon="5.86775">
        <ele>126.2</ele>
        <time>2022-06-01T06:47:23Z</time>
      </trkpt>
      <trkpt lat="43.14844" lon="5.86757">
        <ele>127.4</ele>
        <time>2022-06-01T06:47:29Z</time>
      </trkpt>
      <trkpt lat="43.14852" lon="5.8674">
        <ele>128.4</ele>
        <time>2022-06-01T06:47:35Z</time>
      </trkpt>
      <trkpt lat="43.14871" lon="5.86721">
        <ele>129.4</ele>
        <time>2022-06-01T06:47:45Z</time>
      </trkpt>
      <trkpt lat="43.14881" lon="5.86709">
        <ele>130.8</ele>
        <time>2022-06-01T06:47:51Z</time>
      </trkpt>
      <trkpt lat="43.14885" lon="5.86692">
        <ele>131.8</ele>
        <time>2022-06-01T06:47:56Z</time>
      </trkpt>
      <trkpt lat="43.14881" lon="5.86656">
        <ele>132.8</ele>
        <time>2022-06-01T06:48:06Z</time>
      </trkpt>
      <trkpt lat="43.1488" lon="5.86653">
        <ele>132.8</ele>
        <time>2022-06-01T06:48:07Z</time>
      </trkpt>
      <trkpt lat="43.14881" lon="5.86628">
        <ele>134</ele>
        <time>2022-06-01T06:48:15Z</time>
      </trkpt>
      <trkpt lat="43.14889" lon="5.86613">
        <ele>135</ele>
        <time>2022-06-01T06:48:20Z</time>
      </trkpt>
      <trkpt lat="43.14907" lon="5.86597">
        <ele>136</ele>
        <time>2022-06-01T06:48:28Z</time>
      </trkpt>
      <trkpt lat="43.14925" lon="5.86577">
        <ele>137.2</ele>
        <time>2022-06-01T06:48:36Z</time>
      </trkpt>
      <trkpt lat="43.14939" lon="5.86544">
        <ele>138.2</ele>
        <time>2022-06-01T06:48:46Z</time>
      </trkpt>
      <trkpt lat="43.14941" lon="5.86521">
        <ele>139.4</ele>
        <time>2022-06-01T06:48:52Z</time>
      </trkpt>
      <trkpt lat="43.14938" lon="5.86494">
        <ele>140.4</ele>
        <time>2022-06-01T06:49:00Z</time>
      </trkpt>
      <trkpt lat="43.14937" lon="5.86473">
        <ele>141.4</ele>
        <time>2022-06-01T06:49:06Z</time>
      </trkpt>
      <trkpt lat="43.14941" lon="5.86456">
        <ele>142.4</ele>
        <time>2022-06-01T06:49:13Z</time>
      </trkpt>
      <trkpt lat="43.14948" lon="5.86446">
        <ele>143.4</ele>
        <time>2022-06-01T06:49:17Z</time>
      </trkpt>
      <trkpt lat="43.1495" lon="5.86444">
        <ele>143.4</ele>
        <time>2022-06-01T06:49:18Z</time>
      </trkpt>
      <trkpt lat="43.14965" lon="5.86423">
        <ele>144.6</ele>
        <time>2022-06-01T06:49:26Z</time>
      </trkpt>
      <trkpt lat="43.14969" lon="5.86395">
        <ele>145.6</ele>
        <time>2022-06-01T06:49:33Z</time>
      </trkpt>
      <trkpt lat="43.14976" lon="5.86352">
        <ele>146.6</ele>
        <time>2022-06-01T06:49:46Z</time>
      </trkpt>
      <trkpt lat="43.14979" lon="5.86337">
        <ele>147.8</ele>
        <time>2022-06-01T06:49:51Z</time>
      </trkpt>
      <trkpt lat="43.14985" lon="5.86318">
        <ele>149.2</ele>
        <time>2022-06-01T06:49:58Z</time>
      </trkpt>
      <trkpt lat="43.14992" lon="5.86298">
        <ele>150.4</ele>
        <time>2022-06-01T06:50:06Z</time>
      </trkpt>
      <trkpt lat="43.14999" lon="5.86288">
        <ele>151.6</ele>
        <time>2022-06-01T06:50:11Z</time>
      </trkpt>
      <trkpt lat="43.15008" lon="5.86278">
        <ele>152.8</ele>
        <time>2022-06-01T06:50:16Z</time>
      </trkpt>
      <trkpt lat="43.15021" lon="5.86268">
        <ele>153.8</ele>
        <time>2022-06-01T06:50:23Z</time>
      </trkpt>
      <trkpt lat="43.15041" lon="5.86282">
        <ele>155</ele>
        <time>2022-06-01T06:50:34Z</time>
      </trkpt>
      <trkpt lat="43.15046" lon="5.86291">
        <ele>156</ele>
        <time>2022-06-01T06:50:38Z</time>
      </trkpt>
      <trkpt lat="43.15052" lon="5.86306">
        <ele>157.2</ele>
        <time>2022-06-01T06:50:44Z</time>
      </trkpt>
      <trkpt lat="43.15059" lon="5.86319">
        <ele>158.2</ele>
        <time>2022-06-01T06:50:49Z</time>
      </trkpt>
      <trkpt lat="43.15065" lon="5.86329">
        <ele>159.4</ele>
        <time>2022-06-01T06:50:53Z</time>
      </trkpt>
      <trkpt lat="43.15075" lon="5.86339">
        <ele>160.6</ele>
        <time>2022-06-01T06:50:59Z</time>
      </trkpt>
      <trkpt lat="43.15083" lon="5.86345">
        <ele>161.6</ele>
        <time>2022-06-01T06:51:03Z</time>
      </trkpt>
      <trkpt lat="43.15093" lon="5.86351">
        <ele>162.8</ele>
        <time>2022-06-01T06:51:08Z</time>
      </trkpt>
      <trkpt lat="43.15103" lon="5.86357">
        <ele>164</ele>
        <time>2022-06-01T06:51:13Z</time>
      </trkpt>
      <trkpt lat="43.15113" lon="5.8636">
        <ele>165.2</ele>
        <time>2022-06-01T06:51:18Z</time>
      </trkpt>
      <trkpt lat="43.15123" lon="5.86363">
        <ele>166.2</ele>
        <time>2022-06-01T06:51:23Z</time>
      </trkpt>
      <trkpt lat="43.15131" lon="5.86362">
        <ele>167.4</ele>
        <time>2022-06-01T06:51:27Z</time>
      </trkpt>
      <trkpt lat="43.1514" lon="5.86357">
        <ele>168.4</ele>
        <time>2022-06-01T06:51:32Z</time>
      </trkpt>
      <trkpt lat="43.15148" lon="5.86353">
        <ele>169.6</ele>
        <time>2022-06-01T06:51:37Z</time>
      </trkpt>
      <trkpt lat="43.15153" lon="5.86351">
        <ele>170.8</ele>
        <time>2022-06-01T06:51:40Z</time>
      </trkpt>
      <trkpt lat="43.15157" lon="5.86347">
        <ele>171.8</ele>
        <time>2022-06-01T06:51:43Z</time>
      </trkpt>
      <trkpt lat="43.15163" lon="5.86342">
        <ele>172.8</ele>
        <time>2022-06-01T06:51:47Z</time>
      </trkpt>
      <trkpt lat="43.15171" lon="5.86336">
        <ele>174</ele>
        <time>2022-06-01T06:51:52Z</time>
      </trkpt>
      <trkpt lat="43.15179" lon="5.86329">
        <ele>175</ele>
        <time>2022-06-01T06:51:57Z</time>
      </trkpt>
      <trkpt lat="43.15184" lon="5.86324">
        <ele>176.4</ele>
        <time>2022-06-01T06:52:01Z</time>
      </trkpt>
      <trkpt lat="43.15192" lon="5.86318">
        <ele>177.2</ele>
        <time>2022-06-01T06:52:06Z</time>
      </trkpt>
      <trkpt lat="43.152" lon="5.86313">
        <ele>178.6</ele>
        <time>2022-06-01T06:52:11Z</time>
      </trkpt>
      <trkpt lat="43.15211" lon="5.86308">
        <ele>179.6</ele>
        <time>2022-06-01T06:52:16Z</time>
      </trkpt>
      <trkpt lat="43.15223" lon="5.86306">
        <ele>180.6</ele>
        <time>2022-06-01T06:52:22Z</time>
      </trkpt>
      <trkpt lat="43.15238" lon="5.86308">
        <ele>181.8</ele>
        <time>2022-06-01T06:52:30Z</time>
      </trkpt>
      <trkpt lat="43.1525" lon="5.86311">
        <ele>182.8</ele>
        <time>2022-06-01T06:52:36Z</time>
      </trkpt>
      <trkpt lat="43.15259" lon="5.86313">
        <ele>183.8</ele>
        <time>2022-06-01T06:52:40Z</time>
      </trkpt>
      <trkpt lat="43.15265" lon="5.86314">
        <ele>184.8</ele>
        <time>2022-06-01T06:52:43Z</time>
      </trkpt>
      <trkpt lat="43.15271" lon="5.86316">
        <ele>186</ele>
        <time>2022-06-01T06:52:46Z</time>
      </trkpt>
      <trkpt lat="43.15277" lon="5.86318">
        <ele>187.2</ele>
        <time>2022-06-01T06:52:49Z</time>
      </trkpt>
      <trkpt lat="43.15286" lon="5.86321">
        <ele>188.4</ele>
        <time>2022-06-01T06:52:54Z</time>
      </trkpt>
      <trkpt lat="43.15291" lon="5.86322">
        <ele>189.4</ele>
        <time>2022-06-01T06:52:57Z</time>
      </trkpt>
      <trkpt lat="43.15298" lon="5.86325">
        <ele>190.4</ele>
        <time>2022-06-01T06:53:01Z</time>
      </trkpt>
      <trkpt lat="43.15306" lon="5.86329">
        <ele>191.4</ele>
        <time>2022-06-01T06:53:05Z</time>
      </trkpt>
      <trkpt lat="43.15313" lon="5.86333">
        <ele>192.6</ele>
        <time>2022-06-01T06:53:09Z</time>
      </trkpt>
      <trkpt lat="43.15325" lon="5.86339">
        <ele>193.6</ele>
        <time>2022-06-01T06:53:15Z</time>
      </trkpt>
      <trkpt lat="43.1533" lon="5.86342">
        <ele>194.8</ele>
        <time>2022-06-01T06:53:18Z</time>
      </trkpt>
      <trkpt lat="43.15335" lon="5.86344">
        <ele>195.6</ele>
        <time>2022-06-01T06:53:21Z</time>
      </trkpt>
      <trkpt lat="43.15344" lon="5.86348">
        <ele>196.8</ele>
        <time>2022-06-01T06:53:26Z</time>
      </trkpt>
      <trkpt lat="43.15351" lon="5.86352">
        <ele>198</ele>
        <time>2022-06-01T06:53:30Z</time>
      </trkpt>
      <trkpt lat="43.15358" lon="5.86353">
        <ele>199</ele>
        <time>2022-06-01T06:53:34Z</time>
      </trkpt>
      <trkpt lat="43.15366" lon="5.86353">
        <ele>200.2</ele>
        <time>2022-06-01T06:53:38Z</time>
      </trkpt>
      <trkpt lat="43.15376" lon="5.86355">
        <ele>201.2</ele>
        <time>2022-06-01T06:53:43Z</time>
      </trkpt>
      <trkpt lat="43.15383" lon="5.86354">
        <ele>202.2</ele>
        <time>2022-06-01T06:53:47Z</time>
      </trkpt>
      <trkpt lat="43.15392" lon="5.86354">
        <ele>203.6</ele>
        <time>2022-06-01T06:53:52Z</time>
      </trkpt>
      <trkpt lat="43.15397" lon="5.86354">
        <ele>204.8</ele>
        <time>2022-06-01T06:53:55Z</time>
      </trkpt>
      <trkpt lat="43.15404" lon="5.86353">
        <ele>205.8</ele>
        <time>2022-06-01T06:53:59Z</time>
      </trkpt>
      <trkpt lat="43.15411" lon="5.86353">
        <ele>206.6</ele>
        <time>2022-06-01T06:54:03Z</time>
      </trkpt>
      <trkpt lat="43.15416" lon="5.86352">
        <ele>207.8</ele>
        <time>2022-06-01T06:54:06Z</time>
      </trkpt>
      <trkpt lat="43.15421" lon="5.86351">
        <ele>208.8</ele>
        <time>2022-06-01T06:54:09Z</time>
      </trkpt>
      <trkpt lat="43.15427" lon="5.86349">
        <ele>209.8</ele>
        <time>2022-06-01T06:54:13Z</time>
      </trkpt>
      <trkpt lat="43.15435" lon="5.86347">
        <ele>211.2</ele>
        <time>2022-06-01T06:54:18Z</time>
      </trkpt>
      <trkpt lat="43.15437" lon="5.86354">
        <ele>212.4</ele>
        <time>2022-06-01T06:54:21Z</time>
      </trkpt>
      <trkpt lat="43.15437" lon="5.86357">
        <ele>212.6</ele>
        <time>2022-06-01T06:54:22Z</time>
      </trkpt>
      <trkpt lat="43.15436" lon="5.86363">
        <ele>213.2</ele>
        <time>2022-06-01T06:54:24Z</time>
      </trkpt>
      <trkpt lat="43.15432" lon="5.8637">
        <ele>214.2</ele>
        <time>2022-06-01T06:54:28Z</time>
      </trkpt>
      <trkpt lat="43.15425" lon="5.86379">
        <ele>215.2</ele>
        <time>2022-06-01T06:54:34Z</time>
      </trkpt>
      <trkpt lat="43.15419" lon="5.86393">
        <ele>216.4</ele>
        <time>2022-06-01T06:54:41Z</time>
      </trkpt>
      <trkpt lat="43.15413" lon="5.8641">
        <ele>217.2</ele>
        <time>2022-06-01T06:54:48Z</time>
      </trkpt>
      <trkpt lat="43.15413" lon="5.86421">
        <ele>218.4</ele>
        <time>2022-06-01T06:54:53Z</time>
      </trkpt>
      <trkpt lat="43.15413" lon="5.86433">
        <ele>219.6</ele>
        <time>2022-06-01T06:54:58Z</time>
      </trkpt>
      <trkpt lat="43.15415" lon="5.8645">
        <ele>220.8</ele>
        <time>2022-06-01T06:55:04Z</time>
      </trkpt>
      <trkpt lat="43.15414" lon="5.86472">
        <ele>222</ele>
        <time>2022-06-01T06:55:11Z</time>
      </trkpt>
      <trkpt lat="43.15404" lon="5.86492">
        <ele>223</ele>
        <time>2022-06-01T06:55:19Z</time>
      </trkpt>
      <trkpt lat="43.15386" lon="5.86498">
        <ele>223.8</ele>
        <time>2022-06-01T06:55:28Z</time>
      </trkpt>
      <trkpt lat="43.15384" lon="5.86499">
        <ele>224.2</ele>
        <time>2022-06-01T06:55:29Z</time>
      </trkpt>
      <trkpt lat="43.15375" lon="5.86499">
        <ele>225.4</ele>
        <time>2022-06-01T06:55:34Z</time>
      </trkpt>
      <trkpt lat="43.15367" lon="5.865">
        <ele>226.2</ele>
        <time>2022-06-01T06:55:39Z</time>
      </trkpt>
      <trkpt lat="43.15357" lon="5.865">
        <ele>227.4</ele>
        <time>2022-06-01T06:55:44Z</time>
      </trkpt>
      <trkpt lat="43.1535" lon="5.86502">
        <ele>228.4</ele>
        <time>2022-06-01T06:55:48Z</time>
      </trkpt>
      <trkpt lat="43.15333" lon="5.86511">
        <ele>229.6</ele>
        <time>2022-06-01T06:55:58Z</time>
      </trkpt>
      <trkpt lat="43.15319" lon="5.86531">
        <ele>230.8</ele>
        <time>2022-06-01T06:56:07Z</time>
      </trkpt>
      <trkpt lat="43.15306" lon="5.86553">
        <ele>232</ele>
        <time>2022-06-01T06:56:16Z</time>
      </trkpt>
      <trkpt lat="43.15294" lon="5.86572">
        <ele>233</ele>
        <time>2022-06-01T06:56:24Z</time>
      </trkpt>
      <trkpt lat="43.15283" lon="5.86594">
        <ele>234</ele>
        <time>2022-06-01T06:56:34Z</time>
      </trkpt>
      <trkpt lat="43.15276" lon="5.86609">
        <ele>235.2</ele>
        <time>2022-06-01T06:56:41Z</time>
      </trkpt>
      <trkpt lat="43.15271" lon="5.86623">
        <ele>236.2</ele>
        <time>2022-06-01T06:56:47Z</time>
      </trkpt>
      <trkpt lat="43.15266" lon="5.86642">
        <ele>237.2</ele>
        <time>2022-06-01T06:56:54Z</time>
      </trkpt>
      <trkpt lat="43.15263" lon="5.86657">
        <ele>238.4</ele>
        <time>2022-06-01T06:57:00Z</time>
      </trkpt>
      <trkpt lat="43.15261" lon="5.86672">
        <ele>239.4</ele>
        <time>2022-06-01T06:57:06Z</time>
      </trkpt>
      <trkpt lat="43.15262" lon="5.86685">
        <ele>240.4</ele>
        <time>2022-06-01T06:57:11Z</time>
      </trkpt>
      <trkpt lat="43.15262" lon="5.86698">
        <ele>241.4</ele>
        <time>2022-06-01T06:57:16Z</time>
      </trkpt>
      <trkpt lat="43.15263" lon="5.86713">
        <ele>242.6</ele>
        <time>2022-06-01T06:57:22Z</time>
      </trkpt>
      <trkpt lat="43.1527" lon="5.86738">
        <ele>243.8</ele>
        <time>2022-06-01T06:57:31Z</time>
      </trkpt>
      <trkpt lat="43.15274" lon="5.86739">
        <ele>244</ele>
        <time>2022-06-01T06:57:33Z</time>
      </trkpt>
      <trkpt lat="43.15277" lon="5.86724">
        <ele>245</ele>
        <time>2022-06-01T06:57:40Z</time>
      </trkpt>
      <trkpt lat="43.15278" lon="5.86713">
        <ele>246</ele>
        <time>2022-06-01T06:57:45Z</time>
      </trkpt>
      <trkpt lat="43.15283" lon="5.867">
        <ele>246.8</ele>
        <time>2022-06-01T06:57:51Z</time>
      </trkpt>
      <trkpt lat="43.15286" lon="5.86689">
        <ele>247.8</ele>
        <time>2022-06-01T06:57:56Z</time>
      </trkpt>
      <trkpt lat="43.15295" lon="5.86676">
        <ele>248.8</ele>
        <time>2022-06-01T06:58:04Z</time>
      </trkpt>
      <trkpt lat="43.153" lon="5.86669">
        <ele>249.8</ele>
        <time>2022-06-01T06:58:08Z</time>
      </trkpt>
      <trkpt lat="43.15309" lon="5.8666">
        <ele>251</ele>
        <time>2022-06-01T06:58:14Z</time>
      </trkpt>
      <trkpt lat="43.15319" lon="5.86648">
        <ele>252.2</ele>
        <time>2022-06-01T06:58:21Z</time>
      </trkpt>
      <trkpt lat="43.15325" lon="5.86642">
        <ele>253.2</ele>
        <time>2022-06-01T06:58:25Z</time>
      </trkpt>
      <trkpt lat="43.15336" lon="5.86634">
        <ele>254.4</ele>
        <time>2022-06-01T06:58:31Z</time>
      </trkpt>
      <trkpt lat="43.15341" lon="5.86631">
        <ele>255</ele>
        <time>2022-06-01T06:58:34Z</time>
      </trkpt>
      <trkpt lat="43.15347" lon="5.86628">
        <ele>255.4</ele>
        <time>2022-06-01T06:58:38Z</time>
      </trkpt>
      <trkpt lat="43.1536" lon="5.86624">
        <ele>256.4</ele>
        <time>2022-06-01T06:58:45Z</time>
      </trkpt>
      <trkpt lat="43.15374" lon="5.86624">
        <ele>257.6</ele>
        <time>2022-06-01T06:58:53Z</time>
      </trkpt>
      <trkpt lat="43.15381" lon="5.86627">
        <ele>258.8</ele>
        <time>2022-06-01T06:58:57Z</time>
      </trkpt>
      <trkpt lat="43.15391" lon="5.86628">
        <ele>260</ele>
        <time>2022-06-01T06:59:02Z</time>
      </trkpt>
      <trkpt lat="43.15402" lon="5.8663">
        <ele>261</ele>
        <time>2022-06-01T06:59:08Z</time>
      </trkpt>
      <trkpt lat="43.15414" lon="5.86634">
        <ele>262</ele>
        <time>2022-06-01T06:59:14Z</time>
      </trkpt>
      <trkpt lat="43.15426" lon="5.86635">
        <ele>263</ele>
        <time>2022-06-01T06:59:20Z</time>
      </trkpt>
      <trkpt lat="43.15438" lon="5.86637">
        <ele>264</ele>
        <time>2022-06-01T06:59:26Z</time>
      </trkpt>
      <trkpt lat="43.15447" lon="5.8664">
        <ele>265.2</ele>
        <time>2022-06-01T06:59:31Z</time>
      </trkpt>
      <trkpt lat="43.15464" lon="5.86641">
        <ele>266.2</ele>
        <time>2022-06-01T06:59:40Z</time>
      </trkpt>
      <trkpt lat="43.15473" lon="5.86643">
        <ele>267.2</ele>
        <time>2022-06-01T06:59:45Z</time>
      </trkpt>
      <trkpt lat="43.15485" lon="5.86642">
        <ele>268.4</ele>
        <time>2022-06-01T06:59:52Z</time>
      </trkpt>
      <trkpt lat="43.15497" lon="5.86641">
        <ele>269.4</ele>
        <time>2022-06-01T06:59:58Z</time>
      </trkpt>
      <trkpt lat="43.15508" lon="5.86639">
        <ele>270.4</ele>
        <time>2022-06-01T07:00:04Z</time>
      </trkpt>
      <trkpt lat="43.1552" lon="5.86638">
        <ele>271.4</ele>
        <time>2022-06-01T07:00:10Z</time>
      </trkpt>
      <trkpt lat="43.15532" lon="5.86635">
        <ele>272.6</ele>
        <time>2022-06-01T07:00:17Z</time>
      </trkpt>
      <trkpt lat="43.15546" lon="5.86632">
        <ele>273.8</ele>
        <time>2022-06-01T07:00:24Z</time>
      </trkpt>
      <trkpt lat="43.15559" lon="5.86627">
        <ele>274.6</ele>
        <time>2022-06-01T07:00:31Z</time>
      </trkpt>
      <trkpt lat="43.15572" lon="5.86619">
        <ele>275.6</ele>
        <time>2022-06-01T07:00:39Z</time>
      </trkpt>
      <trkpt lat="43.15573" lon="5.86619">
        <ele>275.8</ele>
        <time>2022-06-01T07:00:40Z</time>
      </trkpt>
      <trkpt lat="43.15568" lon="5.86635">
        <ele>276.6</ele>
        <time>2022-06-01T07:00:50Z</time>
      </trkpt>
      <trkpt lat="43.15557" lon="5.86643">
        <ele>277.8</ele>
        <time>2022-06-01T07:00:57Z</time>
      </trkpt>
      <trkpt lat="43.15543" lon="5.8665">
        <ele>278.6</ele>
        <time>2022-06-01T07:01:04Z</time>
      </trkpt>
      <trkpt lat="43.15531" lon="5.86655">
        <ele>279.6</ele>
        <time>2022-06-01T07:01:10Z</time>
      </trkpt>
      <trkpt lat="43.15513" lon="5.86665">
        <ele>280.4</ele>
        <time>2022-06-01T07:01:19Z</time>
      </trkpt>
      <trkpt lat="43.15509" lon="5.86667">
        <ele>280.6</ele>
        <time>2022-06-01T07:01:21Z</time>
      </trkpt>
      <trkpt lat="43.15495" lon="5.86677">
        <ele>281.8</ele>
        <time>2022-06-01T07:01:29Z</time>
      </trkpt>
      <trkpt lat="43.15494" lon="5.86678">
        <ele>282.8</ele>
        <time>2022-06-01T07:01:38Z</time>
      </trkpt>
      <trkpt lat="43.15494" lon="5.86678">
        <ele>282.8</ele>
        <time>2022-06-01T07:01:46Z</time>
      </trkpt>
      <trkpt lat="43.15493" lon="5.86679">
        <ele>282.8</ele>
        <time>2022-06-01T07:01:53Z</time>
      </trkpt>
      <trkpt lat="43.15487" lon="5.86687">
        <ele>282.8</ele>
        <time>2022-06-01T07:01:58Z</time>
      </trkpt>
      <trkpt lat="43.15476" lon="5.86702">
        <ele>283.8</ele>
        <time>2022-06-01T07:02:06Z</time>
      </trkpt>
      <trkpt lat="43.15476" lon="5.86704">
        <ele>284</ele>
        <time>2022-06-01T07:02:07Z</time>
      </trkpt>
      <trkpt lat="43.15475" lon="5.86717">
        <ele>284.8</ele>
        <time>2022-06-01T07:02:12Z</time>
      </trkpt>
      <trkpt lat="43.15479" lon="5.86727">
        <ele>286</ele>
        <time>2022-06-01T07:02:16Z</time>
      </trkpt>
      <trkpt lat="43.15484" lon="5.86735">
        <ele>287</ele>
        <time>2022-06-01T07:02:20Z</time>
      </trkpt>
      <trkpt lat="43.15493" lon="5.86746">
        <ele>288.2</ele>
        <time>2022-06-01T07:02:26Z</time>
      </trkpt>
      <trkpt lat="43.15501" lon="5.86754">
        <ele>289.4</ele>
        <time>2022-06-01T07:02:31Z</time>
      </trkpt>
      <trkpt lat="43.15509" lon="5.86764">
        <ele>290.8</ele>
        <time>2022-06-01T07:02:36Z</time>
      </trkpt>
      <trkpt lat="43.15517" lon="5.86773">
        <ele>291.8</ele>
        <time>2022-06-01T07:02:41Z</time>
      </trkpt>
      <trkpt lat="43.15525" lon="5.86781">
        <ele>293</ele>
        <time>2022-06-01T07:02:46Z</time>
      </trkpt>
      <trkpt lat="43.15534" lon="5.86792">
        <ele>294.2</ele>
        <time>2022-06-01T07:02:52Z</time>
      </trkpt>
      <trkpt lat="43.15545" lon="5.86804">
        <ele>295.4</ele>
        <time>2022-06-01T07:02:59Z</time>
      </trkpt>
      <trkpt lat="43.15552" lon="5.86813">
        <ele>296.4</ele>
        <time>2022-06-01T07:03:04Z</time>
      </trkpt>
      <trkpt lat="43.15553" lon="5.86815">
        <ele>296.6</ele>
        <time>2022-06-01T07:03:05Z</time>
      </trkpt>
      <trkpt lat="43.1556" lon="5.86822">
        <ele>297.6</ele>
        <time>2022-06-01T07:03:09Z</time>
      </trkpt>
      <trkpt lat="43.15567" lon="5.86831">
        <ele>298.8</ele>
        <time>2022-06-01T07:03:14Z</time>
      </trkpt>
      <trkpt lat="43.15575" lon="5.86842">
        <ele>299.8</ele>
        <time>2022-06-01T07:03:19Z</time>
      </trkpt>
      <trkpt lat="43.15584" lon="5.86856">
        <ele>300.8</ele>
        <time>2022-06-01T07:03:25Z</time>
      </trkpt>
      <trkpt lat="43.15591" lon="5.86863">
        <ele>302</ele>
        <time>2022-06-01T07:03:29Z</time>
      </trkpt>
      <trkpt lat="43.15601" lon="5.86872">
        <ele>303</ele>
        <time>2022-06-01T07:03:34Z</time>
      </trkpt>
      <trkpt lat="43.15614" lon="5.86879">
        <ele>304</ele>
        <time>2022-06-01T07:03:40Z</time>
      </trkpt>
      <trkpt lat="43.15628" lon="5.86891">
        <ele>305.2</ele>
        <time>2022-06-01T07:03:47Z</time>
      </trkpt>
      <trkpt lat="43.15639" lon="5.86904">
        <ele>306.2</ele>
        <time>2022-06-01T07:03:53Z</time>
      </trkpt>
      <trkpt lat="43.1565" lon="5.86931">
        <ele>307.2</ele>
        <time>2022-06-01T07:04:02Z</time>
      </trkpt>
      <trkpt lat="43.15649" lon="5.86941">
        <ele>307.6</ele>
        <time>2022-06-01T07:04:06Z</time>
      </trkpt>
      <trkpt lat="43.15645" lon="5.8695">
        <ele>308.4</ele>
        <time>2022-06-01T07:04:10Z</time>
      </trkpt>
      <trkpt lat="43.15641" lon="5.86963">
        <ele>309.6</ele>
        <time>2022-06-01T07:04:15Z</time>
      </trkpt>
      <trkpt lat="43.15635" lon="5.8698">
        <ele>310.8</ele>
        <time>2022-06-01T07:04:21Z</time>
      </trkpt>
      <trkpt lat="43.1563" lon="5.86994">
        <ele>312</ele>
        <time>2022-06-01T07:04:26Z</time>
      </trkpt>
      <trkpt lat="43.15623" lon="5.87012">
        <ele>313</ele>
        <time>2022-06-01T07:04:33Z</time>
      </trkpt>
      <trkpt lat="43.1562" lon="5.87025">
        <ele>314</ele>
        <time>2022-06-01T07:04:38Z</time>
      </trkpt>
      <trkpt lat="43.1562" lon="5.8704">
        <ele>315.2</ele>
        <time>2022-06-01T07:04:43Z</time>
      </trkpt>
      <trkpt lat="43.15628" lon="5.8706">
        <ele>316.4</ele>
        <time>2022-06-01T07:04:50Z</time>
      </trkpt>
      <trkpt lat="43.15638" lon="5.87068">
        <ele>317.4</ele>
        <time>2022-06-01T07:04:55Z</time>
      </trkpt>
      <trkpt lat="43.1565" lon="5.87072">
        <ele>318.6</ele>
        <time>2022-06-01T07:05:01Z</time>
      </trkpt>
      <trkpt lat="43.15661" lon="5.87075">
        <ele>319.6</ele>
        <time>2022-06-01T07:05:06Z</time>
      </trkpt>
      <trkpt lat="43.15674" lon="5.87083">
        <ele>320.8</ele>
        <time>2022-06-01T07:05:12Z</time>
      </trkpt>
      <trkpt lat="43.15685" lon="5.87096">
        <ele>322</ele>
        <time>2022-06-01T07:05:18Z</time>
      </trkpt>
      <trkpt lat="43.1569" lon="5.87112">
        <ele>322.8</ele>
        <time>2022-06-01T07:05:24Z</time>
      </trkpt>
      <trkpt lat="43.15694" lon="5.87128">
        <ele>323.8</ele>
        <time>2022-06-01T07:05:30Z</time>
      </trkpt>
      <trkpt lat="43.157" lon="5.87144">
        <ele>325</ele>
        <time>2022-06-01T07:05:36Z</time>
      </trkpt>
      <trkpt lat="43.15702" lon="5.8716">
        <ele>326</ele>
        <time>2022-06-01T07:05:42Z</time>
      </trkpt>
      <trkpt lat="43.15696" lon="5.87172">
        <ele>327.2</ele>
        <time>2022-06-01T07:05:47Z</time>
      </trkpt>
      <trkpt lat="43.15689" lon="5.87184">
        <ele>328.2</ele>
        <time>2022-06-01T07:05:52Z</time>
      </trkpt>
      <trkpt lat="43.15682" lon="5.87201">
        <ele>329.4</ele>
        <time>2022-06-01T07:05:59Z</time>
      </trkpt>
      <trkpt lat="43.15679" lon="5.87212">
        <ele>330.4</ele>
        <time>2022-06-01T07:06:03Z</time>
      </trkpt>
      <trkpt lat="43.15676" lon="5.87224">
        <ele>331.4</ele>
        <time>2022-06-01T07:06:07Z</time>
      </trkpt>
      <trkpt lat="43.15673" lon="5.87235">
        <ele>332.6</ele>
        <time>2022-06-01T07:06:11Z</time>
      </trkpt>
      <trkpt lat="43.1567" lon="5.87252">
        <ele>333.8</ele>
        <time>2022-06-01T07:06:17Z</time>
      </trkpt>
      <trkpt lat="43.15669" lon="5.87264">
        <ele>334.8</ele>
        <time>2022-06-01T07:06:21Z</time>
      </trkpt>
      <trkpt lat="43.1567" lon="5.87267">
        <ele>334.8</ele>
        <time>2022-06-01T07:06:22Z</time>
      </trkpt>
      <trkpt lat="43.15673" lon="5.87282">
        <ele>336.2</ele>
        <time>2022-06-01T07:06:28Z</time>
      </trkpt>
      <trkpt lat="43.15678" lon="5.87295">
        <ele>337.4</ele>
        <time>2022-06-01T07:06:33Z</time>
      </trkpt>
      <trkpt lat="43.15682" lon="5.87305">
        <ele>338.6</ele>
        <time>2022-06-01T07:06:37Z</time>
      </trkpt>
      <trkpt lat="43.15688" lon="5.87315">
        <ele>339.6</ele>
        <time>2022-06-01T07:06:41Z</time>
      </trkpt>
      <trkpt lat="43.15697" lon="5.87326">
        <ele>340.8</ele>
        <time>2022-06-01T07:06:46Z</time>
      </trkpt>
      <trkpt lat="43.15708" lon="5.87335">
        <ele>341.8</ele>
        <time>2022-06-01T07:06:51Z</time>
      </trkpt>
      <trkpt lat="43.15726" lon="5.87349">
        <ele>343</ele>
        <time>2022-06-01T07:06:59Z</time>
      </trkpt>
      <trkpt lat="43.15742" lon="5.8736">
        <ele>344</ele>
        <time>2022-06-01T07:07:07Z</time>
      </trkpt>
      <trkpt lat="43.15752" lon="5.87367">
        <ele>345.2</ele>
        <time>2022-06-01T07:07:12Z</time>
      </trkpt>
      <trkpt lat="43.15762" lon="5.87373">
        <ele>346.4</ele>
        <time>2022-06-01T07:07:17Z</time>
      </trkpt>
      <trkpt lat="43.15771" lon="5.87382">
        <ele>347.4</ele>
        <time>2022-06-01T07:07:22Z</time>
      </trkpt>
      <trkpt lat="43.15778" lon="5.87398">
        <ele>348.6</ele>
        <time>2022-06-01T07:07:28Z</time>
      </trkpt>
      <trkpt lat="43.15786" lon="5.87411">
        <ele>349.6</ele>
        <time>2022-06-01T07:07:34Z</time>
      </trkpt>
      <trkpt lat="43.15798" lon="5.87421">
        <ele>350.8</ele>
        <time>2022-06-01T07:07:40Z</time>
      </trkpt>
      <trkpt lat="43.1581" lon="5.87428">
        <ele>352</ele>
        <time>2022-06-01T07:07:46Z</time>
      </trkpt>
      <trkpt lat="43.15825" lon="5.87442">
        <ele>353</ele>
        <time>2022-06-01T07:07:54Z</time>
      </trkpt>
      <trkpt lat="43.15835" lon="5.87452">
        <ele>354</ele>
        <time>2022-06-01T07:08:00Z</time>
      </trkpt>
      <trkpt lat="43.15842" lon="5.87458">
        <ele>355.2</ele>
        <time>2022-06-01T07:08:04Z</time>
      </trkpt>
      <trkpt lat="43.15848" lon="5.87466">
        <ele>356.2</ele>
        <time>2022-06-01T07:08:08Z</time>
      </trkpt>
      <trkpt lat="43.1585" lon="5.87478">
        <ele>357.4</ele>
        <time>2022-06-01T07:08:13Z</time>
      </trkpt>
      <trkpt lat="43.15846" lon="5.87491">
        <ele>358.4</ele>
        <time>2022-06-01T07:08:19Z</time>
      </trkpt>
      <trkpt lat="43.1584" lon="5.875">
        <ele>359.6</ele>
        <time>2022-06-01T07:08:24Z</time>
      </trkpt>
      <trkpt lat="43.15838" lon="5.87515">
        <ele>360.6</ele>
        <time>2022-06-01T07:08:29Z</time>
      </trkpt>
      <trkpt lat="43.15839" lon="5.87526">
        <ele>361.8</ele>
        <time>2022-06-01T07:08:33Z</time>
      </trkpt>
      <trkpt lat="43.15842" lon="5.8754">
        <ele>362.8</ele>
        <time>2022-06-01T07:08:38Z</time>
      </trkpt>
      <trkpt lat="43.15847" lon="5.87554">
        <ele>364</ele>
        <time>2022-06-01T07:08:43Z</time>
      </trkpt>
      <trkpt lat="43.15851" lon="5.87568">
        <ele>365</ele>
        <time>2022-06-01T07:08:48Z</time>
      </trkpt>
      <trkpt lat="43.15856" lon="5.87584">
        <ele>366.2</ele>
        <time>2022-06-01T07:08:54Z</time>
      </trkpt>
      <trkpt lat="43.15863" lon="5.87601">
        <ele>367.2</ele>
        <time>2022-06-01T07:09:01Z</time>
      </trkpt>
      <trkpt lat="43.15868" lon="5.87615">
        <ele>368.4</ele>
        <time>2022-06-01T07:09:07Z</time>
      </trkpt>
      <trkpt lat="43.15869" lon="5.87625">
        <ele>369.6</ele>
        <time>2022-06-01T07:09:11Z</time>
      </trkpt>
      <trkpt lat="43.15869" lon="5.87638">
        <ele>370.6</ele>
        <time>2022-06-01T07:09:16Z</time>
      </trkpt>
      <trkpt lat="43.15866" lon="5.87655">
        <ele>371.6</ele>
        <time>2022-06-01T07:09:22Z</time>
      </trkpt>
      <trkpt lat="43.15865" lon="5.87672">
        <ele>372.6</ele>
        <time>2022-06-01T07:09:28Z</time>
      </trkpt>
      <trkpt lat="43.15853" lon="5.87685">
        <ele>373.6</ele>
        <time>2022-06-01T07:09:35Z</time>
      </trkpt>
      <trkpt lat="43.15842" lon="5.87688">
        <ele>374.6</ele>
        <time>2022-06-01T07:09:41Z</time>
      </trkpt>
      <trkpt lat="43.15836" lon="5.87689">
        <ele>375.6</ele>
        <time>2022-06-01T07:09:44Z</time>
      </trkpt>
      <trkpt lat="43.15826" lon="5.87692">
        <ele>376.4</ele>
        <time>2022-06-01T07:09:49Z</time>
      </trkpt>
      <trkpt lat="43.15822" lon="5.87694">
        <ele>376.6</ele>
        <time>2022-06-01T07:09:51Z</time>
      </trkpt>
      <trkpt lat="43.15812" lon="5.87696">
        <ele>377.6</ele>
        <time>2022-06-01T07:09:56Z</time>
      </trkpt>
      <trkpt lat="43.15799" lon="5.87703">
        <ele>378.8</ele>
        <time>2022-06-01T07:10:02Z</time>
      </trkpt>
      <trkpt lat="43.15786" lon="5.87712">
        <ele>379.8</ele>
        <time>2022-06-01T07:10:08Z</time>
      </trkpt>
      <trkpt lat="43.15771" lon="5.87721">
        <ele>381</ele>
        <time>2022-06-01T07:10:14Z</time>
      </trkpt>
      <trkpt lat="43.15752" lon="5.87728">
        <ele>382.2</ele>
        <time>2022-06-01T07:10:21Z</time>
      </trkpt>
      <trkpt lat="43.15737" lon="5.87734">
        <ele>383</ele>
        <time>2022-06-01T07:10:27Z</time>
      </trkpt>
      <trkpt lat="43.15727" lon="5.87738">
        <ele>384.2</ele>
        <time>2022-06-01T07:10:32Z</time>
      </trkpt>
      <trkpt lat="43.15714" lon="5.87742">
        <ele>385.4</ele>
        <time>2022-06-01T07:10:38Z</time>
      </trkpt>
      <trkpt lat="43.15706" lon="5.87744">
        <ele>386.4</ele>
        <time>2022-06-01T07:10:42Z</time>
      </trkpt>
      <trkpt lat="43.15695" lon="5.8775">
        <ele>387.4</ele>
        <time>2022-06-01T07:10:48Z</time>
      </trkpt>
      <trkpt lat="43.15688" lon="5.87754">
        <ele>388.6</ele>
        <time>2022-06-01T07:10:52Z</time>
      </trkpt>
      <trkpt lat="43.15681" lon="5.87761">
        <ele>389.8</ele>
        <time>2022-06-01T07:10:56Z</time>
      </trkpt>
      <trkpt lat="43.15674" lon="5.87771">
        <ele>390.6</ele>
        <time>2022-06-01T07:11:01Z</time>
      </trkpt>
      <trkpt lat="43.15667" lon="5.87782">
        <ele>391.8</ele>
        <time>2022-06-01T07:11:06Z</time>
      </trkpt>
      <trkpt lat="43.15658" lon="5.87795">
        <ele>392.8</ele>
        <time>2022-06-01T07:11:12Z</time>
      </trkpt>
      <trkpt lat="43.15652" lon="5.87807">
        <ele>393.6</ele>
        <time>2022-06-01T07:11:17Z</time>
      </trkpt>
      <trkpt lat="43.15649" lon="5.87811">
        <ele>394</ele>
        <time>2022-06-01T07:11:19Z</time>
      </trkpt>
      <trkpt lat="43.15641" lon="5.87823">
        <ele>395</ele>
        <time>2022-06-01T07:11:24Z</time>
      </trkpt>
      <trkpt lat="43.15633" lon="5.87833">
        <ele>396</ele>
        <time>2022-06-01T07:11:29Z</time>
      </trkpt>
      <trkpt lat="43.15626" lon="5.87845">
        <ele>397.2</ele>
        <time>2022-06-01T07:11:34Z</time>
      </trkpt>
      <trkpt lat="43.15617" lon="5.87861">
        <ele>398</ele>
        <time>2022-06-01T07:11:40Z</time>
      </trkpt>
      <trkpt lat="43.15612" lon="5.8788">
        <ele>399.2</ele>
        <time>2022-06-01T07:11:46Z</time>
      </trkpt>
      <trkpt lat="43.15613" lon="5.87899">
        <ele>400.2</ele>
        <time>2022-06-01T07:11:52Z</time>
      </trkpt>
      <trkpt lat="43.15617" lon="5.87917">
        <ele>401.2</ele>
        <time>2022-06-01T07:11:58Z</time>
      </trkpt>
      <trkpt lat="43.15623" lon="5.87934">
        <ele>402.4</ele>
        <time>2022-06-01T07:12:04Z</time>
      </trkpt>
      <trkpt lat="43.15626" lon="5.87953">
        <ele>403.6</ele>
        <time>2022-06-01T07:12:10Z</time>
      </trkpt>
      <trkpt lat="43.15629" lon="5.87971">
        <ele>404.6</ele>
        <time>2022-06-01T07:12:16Z</time>
      </trkpt>
      <trkpt lat="43.15631" lon="5.87977">
        <ele>405.2</ele>
        <time>2022-06-01T07:12:20Z</time>
      </trkpt>
      <trkpt lat="43.15631" lon="5.8798">
        <ele>405.4</ele>
        <time>2022-06-01T07:12:22Z</time>
      </trkpt>
      <trkpt lat="43.15632" lon="5.87987">
        <ele>405.8</ele>
        <time>2022-06-01T07:12:25Z</time>
      </trkpt>
      <trkpt lat="43.15638" lon="5.87994">
        <ele>406.6</ele>
        <time>2022-06-01T07:12:31Z</time>
      </trkpt>
      <trkpt lat="43.15639" lon="5.87994">
        <ele>407.2</ele>
        <time>2022-06-01T07:12:52Z</time>
      </trkpt>
      <trkpt lat="43.15639" lon="5.87994">
        <ele>407.2</ele>
        <time>2022-06-01T07:13:16Z</time>
      </trkpt>
      <trkpt lat="43.15639" lon="5.87994">
        <ele>407</ele>
        <time>2022-06-01T07:13:19Z</time>
      </trkpt>
      <trkpt lat="43.1564" lon="5.87983">
        <ele>407</ele>
        <time>2022-06-01T07:13:24Z</time>
      </trkpt>
      <trkpt lat="43.15637" lon="5.87955">
        <ele>407.4</ele>
        <time>2022-06-01T07:13:33Z</time>
      </trkpt>
      <trkpt lat="43.15643" lon="5.87932">
        <ele>408.6</ele>
        <time>2022-06-01T07:13:41Z</time>
      </trkpt>
      <trkpt lat="43.15646" lon="5.87922">
        <ele>409.8</ele>
        <time>2022-06-01T07:13:44Z</time>
      </trkpt>
      <trkpt lat="43.15652" lon="5.87909">
        <ele>410.6</ele>
        <time>2022-06-01T07:13:49Z</time>
      </trkpt>
      <trkpt lat="43.15654" lon="5.87907">
        <ele>411</ele>
        <time>2022-06-01T07:13:50Z</time>
      </trkpt>
      <trkpt lat="43.15663" lon="5.87898">
        <ele>412.2</ele>
        <time>2022-06-01T07:13:55Z</time>
      </trkpt>
      <trkpt lat="43.15671" lon="5.87892">
        <ele>413.2</ele>
        <time>2022-06-01T07:14:00Z</time>
      </trkpt>
      <trkpt lat="43.15681" lon="5.87884">
        <ele>414.4</ele>
        <time>2022-06-01T07:14:06Z</time>
      </trkpt>
      <trkpt lat="43.1569" lon="5.87874">
        <ele>415.6</ele>
        <time>2022-06-01T07:14:12Z</time>
      </trkpt>
      <trkpt lat="43.15698" lon="5.87869">
        <ele>417</ele>
        <time>2022-06-01T07:14:17Z</time>
      </trkpt>
      <trkpt lat="43.15709" lon="5.87862">
        <ele>418</ele>
        <time>2022-06-01T07:14:23Z</time>
      </trkpt>
      <trkpt lat="43.15719" lon="5.87857">
        <ele>419.2</ele>
        <time>2022-06-01T07:14:28Z</time>
      </trkpt>
      <trkpt lat="43.15727" lon="5.87854">
        <ele>420.2</ele>
        <time>2022-06-01T07:14:32Z</time>
      </trkpt>
      <trkpt lat="43.15738" lon="5.87849">
        <ele>421.4</ele>
        <time>2022-06-01T07:14:37Z</time>
      </trkpt>
      <trkpt lat="43.15751" lon="5.87847">
        <ele>422.2</ele>
        <time>2022-06-01T07:14:43Z</time>
      </trkpt>
      <trkpt lat="43.15763" lon="5.87848">
        <ele>423.4</ele>
        <time>2022-06-01T07:14:49Z</time>
      </trkpt>
      <trkpt lat="43.15769" lon="5.87847">
        <ele>424.4</ele>
        <time>2022-06-01T07:14:52Z</time>
      </trkpt>
      <trkpt lat="43.1578" lon="5.87848">
        <ele>425.4</ele>
        <time>2022-06-01T07:14:57Z</time>
      </trkpt>
      <trkpt lat="43.15793" lon="5.8785">
        <ele>426.6</ele>
        <time>2022-06-01T07:15:03Z</time>
      </trkpt>
      <trkpt lat="43.15806" lon="5.87852">
        <ele>427.8</ele>
        <time>2022-06-01T07:15:09Z</time>
      </trkpt>
      <trkpt lat="43.15808" lon="5.87852">
        <ele>428</ele>
        <time>2022-06-01T07:15:10Z</time>
      </trkpt>
      <trkpt lat="43.15816" lon="5.87854">
        <ele>429</ele>
        <time>2022-06-01T07:15:14Z</time>
      </trkpt>
      <trkpt lat="43.15827" lon="5.87858">
        <ele>430</ele>
        <time>2022-06-01T07:15:19Z</time>
      </trkpt>
      <trkpt lat="43.15836" lon="5.87864">
        <ele>431</ele>
        <time>2022-06-01T07:15:24Z</time>
      </trkpt>
      <trkpt lat="43.15846" lon="5.8787">
        <ele>432.2</ele>
        <time>2022-06-01T07:15:29Z</time>
      </trkpt>
      <trkpt lat="43.15857" lon="5.87874">
        <ele>433.2</ele>
        <time>2022-06-01T07:15:34Z</time>
      </trkpt>
      <trkpt lat="43.1587" lon="5.87876">
        <ele>434.2</ele>
        <time>2022-06-01T07:15:40Z</time>
      </trkpt>
      <trkpt lat="43.15881" lon="5.87879">
        <ele>435.2</ele>
        <time>2022-06-01T07:15:46Z</time>
      </trkpt>
      <trkpt lat="43.15889" lon="5.8788">
        <ele>436.4</ele>
        <time>2022-06-01T07:15:50Z</time>
      </trkpt>
      <trkpt lat="43.15899" lon="5.87881">
        <ele>437.4</ele>
        <time>2022-06-01T07:15:55Z</time>
      </trkpt>
      <trkpt lat="43.1591" lon="5.87879">
        <ele>438.6</ele>
        <time>2022-06-01T07:16:00Z</time>
      </trkpt>
      <trkpt lat="43.1592" lon="5.87879">
        <ele>439.8</ele>
        <time>2022-06-01T07:16:05Z</time>
      </trkpt>
      <trkpt lat="43.15932" lon="5.87873">
        <ele>441</ele>
        <time>2022-06-01T07:16:11Z</time>
      </trkpt>
      <trkpt lat="43.15941" lon="5.87867">
        <ele>441.8</ele>
        <time>2022-06-01T07:16:16Z</time>
      </trkpt>
      <trkpt lat="43.1595" lon="5.8786">
        <ele>443</ele>
        <time>2022-06-01T07:16:21Z</time>
      </trkpt>
      <trkpt lat="43.15958" lon="5.87855">
        <ele>444.2</ele>
        <time>2022-06-01T07:16:26Z</time>
      </trkpt>
      <trkpt lat="43.15964" lon="5.87849">
        <ele>445.2</ele>
        <time>2022-06-01T07:16:30Z</time>
      </trkpt>
      <trkpt lat="43.15969" lon="5.87838">
        <ele>446.2</ele>
        <time>2022-06-01T07:16:35Z</time>
      </trkpt>
      <trkpt lat="43.1597" lon="5.87836">
        <ele>447.6</ele>
        <time>2022-06-01T07:16:41Z</time>
      </trkpt>
      <trkpt lat="43.1597" lon="5.87836">
        <ele>447.8</ele>
        <time>2022-06-01T07:16:46Z</time>
      </trkpt>
      <trkpt lat="43.1597" lon="5.87836">
        <ele>448</ele>
        <time>2022-06-01T07:16:55Z</time>
      </trkpt>
      <trkpt lat="43.1597" lon="5.87836">
        <ele>447.8</ele>
        <time>2022-06-01T07:17:02Z</time>
      </trkpt>
      <trkpt lat="43.15969" lon="5.87836">
        <ele>447.8</ele>
        <time>2022-06-01T07:17:20Z</time>
      </trkpt>
      <trkpt lat="43.15978" lon="5.87796">
        <ele>448.6</ele>
        <time>2022-06-01T07:17:34Z</time>
      </trkpt>
      <trkpt lat="43.15981" lon="5.87785">
        <ele>449.8</ele>
        <time>2022-06-01T07:17:38Z</time>
      </trkpt>
      <trkpt lat="43.15985" lon="5.8777">
        <ele>451</ele>
        <time>2022-06-01T07:17:43Z</time>
      </trkpt>
      <trkpt lat="43.15989" lon="5.87756">
        <ele>452</ele>
        <time>2022-06-01T07:17:48Z</time>
      </trkpt>
      <trkpt lat="43.15993" lon="5.87742">
        <ele>453</ele>
        <time>2022-06-01T07:17:53Z</time>
      </trkpt>
      <trkpt lat="43.15996" lon="5.87727">
        <ele>454.2</ele>
        <time>2022-06-01T07:17:58Z</time>
      </trkpt>
      <trkpt lat="43.15997" lon="5.87709">
        <ele>455.2</ele>
        <time>2022-06-01T07:18:04Z</time>
      </trkpt>
      <trkpt lat="43.16002" lon="5.87692">
        <ele>456.4</ele>
        <time>2022-06-01T07:18:10Z</time>
      </trkpt>
      <trkpt lat="43.16006" lon="5.87681">
        <ele>457.6</ele>
        <time>2022-06-01T07:18:14Z</time>
      </trkpt>
      <trkpt lat="43.1601" lon="5.87668">
        <ele>458.8</ele>
        <time>2022-06-01T07:18:19Z</time>
      </trkpt>
      <trkpt lat="43.16015" lon="5.87653">
        <ele>460</ele>
        <time>2022-06-01T07:18:25Z</time>
      </trkpt>
      <trkpt lat="43.16019" lon="5.87636">
        <ele>461</ele>
        <time>2022-06-01T07:18:31Z</time>
      </trkpt>
      <trkpt lat="43.16028" lon="5.87627">
        <ele>462.2</ele>
        <time>2022-06-01T07:18:36Z</time>
      </trkpt>
      <trkpt lat="43.16035" lon="5.87621">
        <ele>463.2</ele>
        <time>2022-06-01T07:18:40Z</time>
      </trkpt>
      <trkpt lat="43.16042" lon="5.87612">
        <ele>464.2</ele>
        <time>2022-06-01T07:18:44Z</time>
      </trkpt>
      <trkpt lat="43.16051" lon="5.87596">
        <ele>465.6</ele>
        <time>2022-06-01T07:18:50Z</time>
      </trkpt>
      <trkpt lat="43.16055" lon="5.87587">
        <ele>466.6</ele>
        <time>2022-06-01T07:18:53Z</time>
      </trkpt>
      <trkpt lat="43.16065" lon="5.87576">
        <ele>467.6</ele>
        <time>2022-06-01T07:18:59Z</time>
      </trkpt>
      <trkpt lat="43.16081" lon="5.87579">
        <ele>468.8</ele>
        <time>2022-06-01T07:19:05Z</time>
      </trkpt>
      <trkpt lat="43.16115" lon="5.87637">
        <ele>469.4</ele>
        <time>2022-06-01T07:19:23Z</time>
      </trkpt>
      <trkpt lat="43.16129" lon="5.87687">
        <ele>469.2</ele>
        <time>2022-06-01T07:19:35Z</time>
      </trkpt>
      <trkpt lat="43.1614" lon="5.87739">
        <ele>469.6</ele>
        <time>2022-06-01T07:19:45Z</time>
      </trkpt>
      <trkpt lat="43.16142" lon="5.87813">
        <ele>469.8</ele>
        <time>2022-06-01T07:19:58Z</time>
      </trkpt>
      <trkpt lat="43.16138" lon="5.87837">
        <ele>469.6</ele>
        <time>2022-06-01T07:20:02Z</time>
      </trkpt>
      <trkpt lat="43.16155" lon="5.87854">
        <ele>469.6</ele>
        <time>2022-06-01T07:20:07Z</time>
      </trkpt>
      <trkpt lat="43.1616" lon="5.87856">
        <ele>469.6</ele>
        <time>2022-06-01T07:20:08Z</time>
      </trkpt>
      <trkpt lat="43.16201" lon="5.87882">
        <ele>469.6</ele>
        <time>2022-06-01T07:20:18Z</time>
      </trkpt>
      <trkpt lat="43.16212" lon="5.87891">
        <ele>469.6</ele>
        <time>2022-06-01T07:20:21Z</time>
      </trkpt>
      <trkpt lat="43.16235" lon="5.8793">
        <ele>470</ele>
        <time>2022-06-01T07:20:29Z</time>
      </trkpt>
      <trkpt lat="43.16252" lon="5.87961">
        <ele>470</ele>
        <time>2022-06-01T07:20:35Z</time>
      </trkpt>
      <trkpt lat="43.16277" lon="5.88029">
        <ele>470</ele>
        <time>2022-06-01T07:20:46Z</time>
      </trkpt>
      <trkpt lat="43.16298" lon="5.881">
        <ele>470</ele>
        <time>2022-06-01T07:20:57Z</time>
      </trkpt>
      <trkpt lat="43.16318" lon="5.88159">
        <ele>469.8</ele>
        <time>2022-06-01T07:21:06Z</time>
      </trkpt>
      <trkpt lat="43.16351" lon="5.88214">
        <ele>469.4</ele>
        <time>2022-06-01T07:21:18Z</time>
      </trkpt>
      <trkpt lat="43.16365" lon="5.88239">
        <ele>470</ele>
        <time>2022-06-01T07:21:24Z</time>
      </trkpt>
      <trkpt lat="43.16382" lon="5.8826">
        <ele>471</ele>
        <time>2022-06-01T07:21:30Z</time>
      </trkpt>
      <trkpt lat="43.16384" lon="5.88264">
        <ele>471.2</ele>
        <time>2022-06-01T07:21:31Z</time>
      </trkpt>
      <trkpt lat="43.16401" lon="5.8829">
        <ele>472.2</ele>
        <time>2022-06-01T07:21:37Z</time>
      </trkpt>
      <trkpt lat="43.16441" lon="5.88348">
        <ele>472.6</ele>
        <time>2022-06-01T07:21:48Z</time>
      </trkpt>
      <trkpt lat="43.16457" lon="5.88373">
        <ele>472.2</ele>
        <time>2022-06-01T07:21:52Z</time>
      </trkpt>
      <trkpt lat="43.16475" lon="5.8842">
        <ele>471.2</ele>
        <time>2022-06-01T07:21:58Z</time>
      </trkpt>
      <trkpt lat="43.16484" lon="5.88448">
        <ele>469.8</ele>
        <time>2022-06-01T07:22:02Z</time>
      </trkpt>
      <trkpt lat="43.16488" lon="5.88459">
        <ele>469.2</ele>
        <time>2022-06-01T07:22:04Z</time>
      </trkpt>
      <trkpt lat="43.16513" lon="5.88526">
        <ele>471</ele>
        <time>2022-06-01T07:22:23Z</time>
      </trkpt>
      <trkpt lat="43.16514" lon="5.88529">
        <ele>471.2</ele>
        <time>2022-06-01T07:22:24Z</time>
      </trkpt>
      <trkpt lat="43.16521" lon="5.88541">
        <ele>472</ele>
        <time>2022-06-01T07:22:29Z</time>
      </trkpt>
      <trkpt lat="43.16527" lon="5.88551">
        <ele>473.2</ele>
        <time>2022-06-01T07:22:33Z</time>
      </trkpt>
      <trkpt lat="43.16538" lon="5.8857">
        <ele>474.2</ele>
        <time>2022-06-01T07:22:41Z</time>
      </trkpt>
      <trkpt lat="43.16541" lon="5.88581">
        <ele>475.4</ele>
        <time>2022-06-01T07:22:45Z</time>
      </trkpt>
      <trkpt lat="43.16543" lon="5.88602">
        <ele>476.4</ele>
        <time>2022-06-01T07:22:52Z</time>
      </trkpt>
      <trkpt lat="43.16543" lon="5.88627">
        <ele>477.6</ele>
        <time>2022-06-01T07:23:00Z</time>
      </trkpt>
      <trkpt lat="43.16541" lon="5.88655">
        <ele>478.6</ele>
        <time>2022-06-01T07:23:09Z</time>
      </trkpt>
      <trkpt lat="43.16536" lon="5.88673">
        <ele>479.8</ele>
        <time>2022-06-01T07:23:15Z</time>
      </trkpt>
      <trkpt lat="43.16527" lon="5.88697">
        <ele>480.6</ele>
        <time>2022-06-01T07:23:23Z</time>
      </trkpt>
      <trkpt lat="43.16522" lon="5.88719">
        <ele>481.6</ele>
        <time>2022-06-01T07:23:29Z</time>
      </trkpt>
      <trkpt lat="43.16514" lon="5.88749">
        <ele>482.8</ele>
        <time>2022-06-01T07:23:36Z</time>
      </trkpt>
      <trkpt lat="43.16497" lon="5.8881">
        <ele>483.6</ele>
        <time>2022-06-01T07:23:50Z</time>
      </trkpt>
      <trkpt lat="43.16446" lon="5.88806">
        <ele>484.4</ele>
        <time>2022-06-01T07:24:04Z</time>
      </trkpt>
      <trkpt lat="43.16427" lon="5.88805">
        <ele>484.6</ele>
        <time>2022-06-01T07:24:09Z</time>
      </trkpt>
      <trkpt lat="43.16396" lon="5.88819">
        <ele>485.4</ele>
        <time>2022-06-01T07:24:22Z</time>
      </trkpt>
      <trkpt lat="43.16384" lon="5.88821">
        <ele>486.6</ele>
        <time>2022-06-01T07:24:27Z</time>
      </trkpt>
      <trkpt lat="43.16369" lon="5.8882">
        <ele>487.8</ele>
        <time>2022-06-01T07:24:33Z</time>
      </trkpt>
      <trkpt lat="43.16355" lon="5.88814">
        <ele>488.6</ele>
        <time>2022-06-01T07:24:39Z</time>
      </trkpt>
      <trkpt lat="43.16341" lon="5.88809">
        <ele>490</ele>
        <time>2022-06-01T07:24:45Z</time>
      </trkpt>
      <trkpt lat="43.16329" lon="5.88807">
        <ele>490.8</ele>
        <time>2022-06-01T07:24:50Z</time>
      </trkpt>
      <trkpt lat="43.16317" lon="5.88807">
        <ele>491.8</ele>
        <time>2022-06-01T07:24:55Z</time>
      </trkpt>
      <trkpt lat="43.16303" lon="5.88809">
        <ele>493.2</ele>
        <time>2022-06-01T07:25:01Z</time>
      </trkpt>
      <trkpt lat="43.1629" lon="5.88812">
        <ele>494.4</ele>
        <time>2022-06-01T07:25:07Z</time>
      </trkpt>
      <trkpt lat="43.16281" lon="5.88815">
        <ele>495.4</ele>
        <time>2022-06-01T07:25:11Z</time>
      </trkpt>
      <trkpt lat="43.16269" lon="5.88822">
        <ele>496.4</ele>
        <time>2022-06-01T07:25:16Z</time>
      </trkpt>
      <trkpt lat="43.16263" lon="5.88837">
        <ele>497.4</ele>
        <time>2022-06-01T07:25:22Z</time>
      </trkpt>
      <trkpt lat="43.16266" lon="5.8886">
        <ele>498.6</ele>
        <time>2022-06-01T07:25:29Z</time>
      </trkpt>
      <trkpt lat="43.16276" lon="5.88884">
        <ele>499.6</ele>
        <time>2022-06-01T07:25:38Z</time>
      </trkpt>
      <trkpt lat="43.1628" lon="5.88898">
        <ele>500.4</ele>
        <time>2022-06-01T07:25:43Z</time>
      </trkpt>
      <trkpt lat="43.16284" lon="5.88916">
        <ele>501.6</ele>
        <time>2022-06-01T07:25:49Z</time>
      </trkpt>
      <trkpt lat="43.16288" lon="5.8893">
        <ele>502.8</ele>
        <time>2022-06-01T07:25:54Z</time>
      </trkpt>
      <trkpt lat="43.16293" lon="5.88949">
        <ele>504</ele>
        <time>2022-06-01T07:26:00Z</time>
      </trkpt>
      <trkpt lat="43.16297" lon="5.88967">
        <ele>505</ele>
        <time>2022-06-01T07:26:06Z</time>
      </trkpt>
      <trkpt lat="43.163" lon="5.88985">
        <ele>506.2</ele>
        <time>2022-06-01T07:26:12Z</time>
      </trkpt>
      <trkpt lat="43.16303" lon="5.89">
        <ele>507.2</ele>
        <time>2022-06-01T07:26:17Z</time>
      </trkpt>
      <trkpt lat="43.16307" lon="5.89018">
        <ele>508.4</ele>
        <time>2022-06-01T07:26:23Z</time>
      </trkpt>
      <trkpt lat="43.16312" lon="5.89034">
        <ele>509.4</ele>
        <time>2022-06-01T07:26:29Z</time>
      </trkpt>
      <trkpt lat="43.16316" lon="5.89043">
        <ele>510.4</ele>
        <time>2022-06-01T07:26:33Z</time>
      </trkpt>
      <trkpt lat="43.16319" lon="5.89047">
        <ele>511.2</ele>
        <time>2022-06-01T07:26:37Z</time>
      </trkpt>
      <trkpt lat="43.16319" lon="5.89047">
        <ele>512.4</ele>
        <time>2022-06-01T07:26:41Z</time>
      </trkpt>
      <trkpt lat="43.16319" lon="5.89047">
        <ele>513.6</ele>
        <time>2022-06-01T07:26:57Z</time>
      </trkpt>
      <trkpt lat="43.16319" lon="5.89048">
        <ele>513.4</ele>
        <time>2022-06-01T07:27:11Z</time>
      </trkpt>
      <trkpt lat="43.16329" lon="5.89062">
        <ele>513.4</ele>
        <time>2022-06-01T07:27:18Z</time>
      </trkpt>
      <trkpt lat="43.16336" lon="5.89072">
        <ele>514.4</ele>
        <time>2022-06-01T07:27:23Z</time>
      </trkpt>
      <trkpt lat="43.16344" lon="5.89084">
        <ele>515.4</ele>
        <time>2022-06-01T07:27:28Z</time>
      </trkpt>
      <trkpt lat="43.16345" lon="5.89087">
        <ele>515.6</ele>
        <time>2022-06-01T07:27:29Z</time>
      </trkpt>
      <trkpt lat="43.16354" lon="5.891">
        <ele>516.8</ele>
        <time>2022-06-01T07:27:34Z</time>
      </trkpt>
      <trkpt lat="43.16362" lon="5.89114">
        <ele>517.8</ele>
        <time>2022-06-01T07:27:39Z</time>
      </trkpt>
      <trkpt lat="43.16375" lon="5.89137">
        <ele>518.8</ele>
        <time>2022-06-01T07:27:47Z</time>
      </trkpt>
      <trkpt lat="43.16376" lon="5.8914">
        <ele>518.8</ele>
        <time>2022-06-01T07:27:48Z</time>
      </trkpt>
      <trkpt lat="43.16382" lon="5.89152">
        <ele>520</ele>
        <time>2022-06-01T07:27:52Z</time>
      </trkpt>
      <trkpt lat="43.16386" lon="5.89162">
        <ele>521</ele>
        <time>2022-06-01T07:27:55Z</time>
      </trkpt>
      <trkpt lat="43.1639" lon="5.89179">
        <ele>521.8</ele>
        <time>2022-06-01T07:28:00Z</time>
      </trkpt>
      <trkpt lat="43.16391" lon="5.89196">
        <ele>523</ele>
        <time>2022-06-01T07:28:05Z</time>
      </trkpt>
      <trkpt lat="43.16385" lon="5.89219">
        <ele>524.4</ele>
        <time>2022-06-01T07:28:12Z</time>
      </trkpt>
      <trkpt lat="43.16377" lon="5.89233">
        <ele>525.4</ele>
        <time>2022-06-01T07:28:17Z</time>
      </trkpt>
      <trkpt lat="43.16366" lon="5.89246">
        <ele>526.6</ele>
        <time>2022-06-01T07:28:23Z</time>
      </trkpt>
      <trkpt lat="43.16355" lon="5.89259">
        <ele>528</ele>
        <time>2022-06-01T07:28:29Z</time>
      </trkpt>
      <trkpt lat="43.16346" lon="5.89269">
        <ele>529</ele>
        <time>2022-06-01T07:28:34Z</time>
      </trkpt>
      <trkpt lat="43.16337" lon="5.89282">
        <ele>530.2</ele>
        <time>2022-06-01T07:28:40Z</time>
      </trkpt>
      <trkpt lat="43.16329" lon="5.89293">
        <ele>531.2</ele>
        <time>2022-06-01T07:28:45Z</time>
      </trkpt>
      <trkpt lat="43.16324" lon="5.89303">
        <ele>532.2</ele>
        <time>2022-06-01T07:28:49Z</time>
      </trkpt>
      <trkpt lat="43.1632" lon="5.89316">
        <ele>533.2</ele>
        <time>2022-06-01T07:28:54Z</time>
      </trkpt>
      <trkpt lat="43.1632" lon="5.8933">
        <ele>534.6</ele>
        <time>2022-06-01T07:28:59Z</time>
      </trkpt>
      <trkpt lat="43.16325" lon="5.89339">
        <ele>535.6</ele>
        <time>2022-06-01T07:29:03Z</time>
      </trkpt>
      <trkpt lat="43.16327" lon="5.8934">
        <ele>536</ele>
        <time>2022-06-01T07:29:04Z</time>
      </trkpt>
      <trkpt lat="43.16331" lon="5.8934">
        <ele>536.8</ele>
        <time>2022-06-01T07:29:06Z</time>
      </trkpt>
      <trkpt lat="43.16336" lon="5.89336">
        <ele>537.6</ele>
        <time>2022-06-01T07:29:09Z</time>
      </trkpt>
      <trkpt lat="43.1634" lon="5.89333">
        <ele>538</ele>
        <time>2022-06-01T07:29:11Z</time>
      </trkpt>
      <trkpt lat="43.1635" lon="5.89327">
        <ele>539.2</ele>
        <time>2022-06-01T07:29:16Z</time>
      </trkpt>
      <trkpt lat="43.16361" lon="5.89322">
        <ele>540.2</ele>
        <time>2022-06-01T07:29:22Z</time>
      </trkpt>
      <trkpt lat="43.16374" lon="5.89324">
        <ele>541.4</ele>
        <time>2022-06-01T07:29:28Z</time>
      </trkpt>
      <trkpt lat="43.16386" lon="5.89332">
        <ele>542.4</ele>
        <time>2022-06-01T07:29:34Z</time>
      </trkpt>
      <trkpt lat="43.1639" lon="5.8934">
        <ele>543.6</ele>
        <time>2022-06-01T07:29:38Z</time>
      </trkpt>
      <trkpt lat="43.1639" lon="5.89351">
        <ele>544.4</ele>
        <time>2022-06-01T07:29:42Z</time>
      </trkpt>
      <trkpt lat="43.16389" lon="5.89354">
        <ele>544.8</ele>
        <time>2022-06-01T07:29:43Z</time>
      </trkpt>
      <trkpt lat="43.16387" lon="5.89364">
        <ele>545.8</ele>
        <time>2022-06-01T07:29:47Z</time>
      </trkpt>
      <trkpt lat="43.16384" lon="5.89372">
        <ele>546.8</ele>
        <time>2022-06-01T07:29:51Z</time>
      </trkpt>
      <trkpt lat="43.16384" lon="5.89371">
        <ele>547.8</ele>
        <time>2022-06-01T07:29:58Z</time>
      </trkpt>
      <trkpt lat="43.16384" lon="5.89371">
        <ele>547.8</ele>
        <time>2022-06-01T07:30:23Z</time>
      </trkpt>
      <trkpt lat="43.16384" lon="5.89371">
        <ele>547.8</ele>
        <time>2022-06-01T07:30:27Z</time>
      </trkpt>
      <trkpt lat="43.16384" lon="5.89371">
        <ele>547.6</ele>
        <time>2022-06-01T07:30:47Z</time>
      </trkpt>
      <trkpt lat="43.16384" lon="5.89371">
        <ele>547.8</ele>
        <time>2022-06-01T07:30:58Z</time>
      </trkpt>
      <trkpt lat="43.16384" lon="5.89371">
        <ele>547.6</ele>
        <time>2022-06-01T07:31:03Z</time>
      </trkpt>
      <trkpt lat="43.16384" lon="5.89371">
        <ele>547.6</ele>
        <time>2022-06-01T07:31:10Z</time>
      </trkpt>
      <trkpt lat="43.16384" lon="5.89371">
        <ele>547.6</ele>
        <time>2022-06-01T07:31:33Z</time>
      </trkpt>
      <trkpt lat="43.16386" lon="5.8937">
        <ele>547.6</ele>
        <time>2022-06-01T07:32:05Z</time>
      </trkpt>
      <trkpt lat="43.16388" lon="5.89337">
        <ele>547.4</ele>
        <time>2022-06-01T07:32:16Z</time>
      </trkpt>
      <trkpt lat="43.16378" lon="5.89325">
        <ele>547</ele>
        <time>2022-06-01T07:32:20Z</time>
      </trkpt>
      <trkpt lat="43.16377" lon="5.89323">
        <ele>546.8</ele>
        <time>2022-06-01T07:32:21Z</time>
      </trkpt>
      <trkpt lat="43.16376" lon="5.89317">
        <ele>546.2</ele>
        <time>2022-06-01T07:32:23Z</time>
      </trkpt>
      <trkpt lat="43.16377" lon="5.89306">
        <ele>545</ele>
        <time>2022-06-01T07:32:26Z</time>
      </trkpt>
      <trkpt lat="43.16377" lon="5.893">
        <ele>544</ele>
        <time>2022-06-01T07:32:28Z</time>
      </trkpt>
      <trkpt lat="43.16376" lon="5.89289">
        <ele>542.4</ele>
        <time>2022-06-01T07:32:31Z</time>
      </trkpt>
      <trkpt lat="43.16375" lon="5.89281">
        <ele>541.2</ele>
        <time>2022-06-01T07:32:33Z</time>
      </trkpt>
      <trkpt lat="43.16373" lon="5.89272">
        <ele>540</ele>
        <time>2022-06-01T07:32:35Z</time>
      </trkpt>
      <trkpt lat="43.16372" lon="5.89265">
        <ele>538.6</ele>
        <time>2022-06-01T07:32:37Z</time>
      </trkpt>
      <trkpt lat="43.1637" lon="5.89259">
        <ele>537.2</ele>
        <time>2022-06-01T07:32:39Z</time>
      </trkpt>
      <trkpt lat="43.16368" lon="5.89252">
        <ele>535</ele>
        <time>2022-06-01T07:32:41Z</time>
      </trkpt>
      <trkpt lat="43.16367" lon="5.89248">
        <ele>533.4</ele>
        <time>2022-06-01T07:32:43Z</time>
      </trkpt>
      <trkpt lat="43.16367" lon="5.89246">
        <ele>532</ele>
        <time>2022-06-01T07:32:46Z</time>
      </trkpt>
      <trkpt lat="43.16369" lon="5.89244">
        <ele>530.4</ele>
        <time>2022-06-01T07:32:48Z</time>
      </trkpt>
      <trkpt lat="43.16372" lon="5.89239">
        <ele>529</ele>
        <time>2022-06-01T07:32:50Z</time>
      </trkpt>
      <trkpt lat="43.16379" lon="5.89229">
        <ele>528.4</ele>
        <time>2022-06-01T07:32:53Z</time>
      </trkpt>
      <trkpt lat="43.16389" lon="5.89208">
        <ele>528</ele>
        <time>2022-06-01T07:32:58Z</time>
      </trkpt>
      <trkpt lat="43.16391" lon="5.89188">
        <ele>527.2</ele>
        <time>2022-06-01T07:33:01Z</time>
      </trkpt>
      <trkpt lat="43.16391" lon="5.8918">
        <ele>526.8</ele>
        <time>2022-06-01T07:33:02Z</time>
      </trkpt>
      <trkpt lat="43.16381" lon="5.89149">
        <ele>525.8</ele>
        <time>2022-06-01T07:33:06Z</time>
      </trkpt>
      <trkpt lat="43.16364" lon="5.89116">
        <ele>524.2</ele>
        <time>2022-06-01T07:33:10Z</time>
      </trkpt>
      <trkpt lat="43.16354" lon="5.89101">
        <ele>523</ele>
        <time>2022-06-01T07:33:12Z</time>
      </trkpt>
      <trkpt lat="43.16337" lon="5.89076">
        <ele>521.8</ele>
        <time>2022-06-01T07:33:15Z</time>
      </trkpt>
      <trkpt lat="43.16323" lon="5.89053">
        <ele>520.2</ele>
        <time>2022-06-01T07:33:18Z</time>
      </trkpt>
      <trkpt lat="43.16315" lon="5.8904">
        <ele>519</ele>
        <time>2022-06-01T07:33:20Z</time>
      </trkpt>
      <trkpt lat="43.16309" lon="5.89025">
        <ele>518.2</ele>
        <time>2022-06-01T07:33:22Z</time>
      </trkpt>
      <trkpt lat="43.16306" lon="5.89016">
        <ele>517.8</ele>
        <time>2022-06-01T07:33:23Z</time>
      </trkpt>
      <trkpt lat="43.16301" lon="5.88994">
        <ele>516</ele>
        <time>2022-06-01T07:33:25Z</time>
      </trkpt>
      <trkpt lat="43.16299" lon="5.88983">
        <ele>515.4</ele>
        <time>2022-06-01T07:33:26Z</time>
      </trkpt>
      <trkpt lat="43.16297" lon="5.88971">
        <ele>514.6</ele>
        <time>2022-06-01T07:33:27Z</time>
      </trkpt>
      <trkpt lat="43.16292" lon="5.88947">
        <ele>513</ele>
        <time>2022-06-01T07:33:29Z</time>
      </trkpt>
      <trkpt lat="43.16286" lon="5.88923">
        <ele>511.8</ele>
        <time>2022-06-01T07:33:31Z</time>
      </trkpt>
      <trkpt lat="43.1628" lon="5.88898">
        <ele>510.4</ele>
        <time>2022-06-01T07:33:33Z</time>
      </trkpt>
      <trkpt lat="43.16274" lon="5.88878">
        <ele>508</ele>
        <time>2022-06-01T07:33:35Z</time>
      </trkpt>
      <trkpt lat="43.16267" lon="5.88861">
        <ele>506.8</ele>
        <time>2022-06-01T07:33:37Z</time>
      </trkpt>
      <trkpt lat="43.16264" lon="5.88853">
        <ele>506.4</ele>
        <time>2022-06-01T07:33:38Z</time>
      </trkpt>
      <trkpt lat="43.16262" lon="5.88844">
        <ele>505.8</ele>
        <time>2022-06-01T07:33:39Z</time>
      </trkpt>
      <trkpt lat="43.16264" lon="5.88829">
        <ele>503.6</ele>
        <time>2022-06-01T07:33:41Z</time>
      </trkpt>
      <trkpt lat="43.16267" lon="5.88822">
        <ele>502.4</ele>
        <time>2022-06-01T07:33:42Z</time>
      </trkpt>
      <trkpt lat="43.16277" lon="5.88814">
        <ele>501.2</ele>
        <time>2022-06-01T07:33:44Z</time>
      </trkpt>
      <trkpt lat="43.16288" lon="5.8881">
        <ele>500</ele>
        <time>2022-06-01T07:33:46Z</time>
      </trkpt>
      <trkpt lat="43.16301" lon="5.88807">
        <ele>498.8</ele>
        <time>2022-06-01T07:33:48Z</time>
      </trkpt>
      <trkpt lat="43.16324" lon="5.88805">
        <ele>497.6</ele>
        <time>2022-06-01T07:33:51Z</time>
      </trkpt>
      <trkpt lat="43.16332" lon="5.88806">
        <ele>497.2</ele>
        <time>2022-06-01T07:33:52Z</time>
      </trkpt>
      <trkpt lat="43.16358" lon="5.88813">
        <ele>496.4</ele>
        <time>2022-06-01T07:33:55Z</time>
      </trkpt>
      <trkpt lat="43.16366" lon="5.88817">
        <ele>495.8</ele>
        <time>2022-06-01T07:33:56Z</time>
      </trkpt>
      <trkpt lat="43.16372" lon="5.8882">
        <ele>495</ele>
        <time>2022-06-01T07:33:57Z</time>
      </trkpt>
      <trkpt lat="43.16394" lon="5.88819">
        <ele>493.6</ele>
        <time>2022-06-01T07:34:00Z</time>
      </trkpt>
      <trkpt lat="43.16408" lon="5.88813">
        <ele>492.6</ele>
        <time>2022-06-01T07:34:02Z</time>
      </trkpt>
      <trkpt lat="43.16415" lon="5.88809">
        <ele>491.8</ele>
        <time>2022-06-01T07:34:03Z</time>
      </trkpt>
      <trkpt lat="43.16422" lon="5.88807">
        <ele>490.6</ele>
        <time>2022-06-01T07:34:04Z</time>
      </trkpt>
      <trkpt lat="43.16435" lon="5.88806">
        <ele>489.6</ele>
        <time>2022-06-01T07:34:06Z</time>
      </trkpt>
      <trkpt lat="43.16448" lon="5.88809">
        <ele>488.4</ele>
        <time>2022-06-01T07:34:08Z</time>
      </trkpt>
      <trkpt lat="43.16454" lon="5.88812">
        <ele>487.2</ele>
        <time>2022-06-01T07:34:09Z</time>
      </trkpt>
      <trkpt lat="43.16466" lon="5.88817">
        <ele>486</ele>
        <time>2022-06-01T07:34:11Z</time>
      </trkpt>
      <trkpt lat="43.16476" lon="5.8882">
        <ele>484.8</ele>
        <time>2022-06-01T07:34:13Z</time>
      </trkpt>
      <trkpt lat="43.16495" lon="5.88812">
        <ele>484.2</ele>
        <time>2022-06-01T07:34:17Z</time>
      </trkpt>
      <trkpt lat="43.16502" lon="5.8879">
        <ele>484</ele>
        <time>2022-06-01T07:34:21Z</time>
      </trkpt>
      <trkpt lat="43.16504" lon="5.88785">
        <ele>484</ele>
        <time>2022-06-01T07:34:22Z</time>
      </trkpt>
      <trkpt lat="43.16508" lon="5.88767">
        <ele>483.8</ele>
        <time>2022-06-01T07:34:25Z</time>
      </trkpt>
      <trkpt lat="43.1652" lon="5.88725">
        <ele>483</ele>
        <time>2022-06-01T07:34:32Z</time>
      </trkpt>
      <trkpt lat="43.16523" lon="5.88707">
        <ele>482.8</ele>
        <time>2022-06-01T07:34:35Z</time>
      </trkpt>
      <trkpt lat="43.16531" lon="5.88686">
        <ele>482.6</ele>
        <time>2022-06-01T07:34:39Z</time>
      </trkpt>
      <trkpt lat="43.16538" lon="5.88667">
        <ele>482</ele>
        <time>2022-06-01T07:34:42Z</time>
      </trkpt>
      <trkpt lat="43.16542" lon="5.88659">
        <ele>481.8</ele>
        <time>2022-06-01T07:34:44Z</time>
      </trkpt>
      <trkpt lat="43.16544" lon="5.88656">
        <ele>481.6</ele>
        <time>2022-06-01T07:34:45Z</time>
      </trkpt>
      <trkpt lat="43.16548" lon="5.8865">
        <ele>481</ele>
        <time>2022-06-01T07:34:48Z</time>
      </trkpt>
      <trkpt lat="43.16549" lon="5.88648">
        <ele>480.4</ele>
        <time>2022-06-01T07:34:49Z</time>
      </trkpt>
      <trkpt lat="43.16557" lon="5.88639">
        <ele>479.6</ele>
        <time>2022-06-01T07:34:53Z</time>
      </trkpt>
      <trkpt lat="43.16561" lon="5.88637">
        <ele>479.2</ele>
        <time>2022-06-01T07:34:55Z</time>
      </trkpt>
      <trkpt lat="43.16564" lon="5.88636">
        <ele>479.2</ele>
        <time>2022-06-01T07:34:57Z</time>
      </trkpt>
      <trkpt lat="43.16572" lon="5.88631">
        <ele>479.2</ele>
        <time>2022-06-01T07:35:01Z</time>
      </trkpt>
      <trkpt lat="43.16587" lon="5.88616">
        <ele>479.8</ele>
        <time>2022-06-01T07:35:08Z</time>
      </trkpt>
      <trkpt lat="43.16607" lon="5.88549">
        <ele>478.8</ele>
        <time>2022-06-01T07:35:25Z</time>
      </trkpt>
      <trkpt lat="43.16609" lon="5.88544">
        <ele>478.6</ele>
        <time>2022-06-01T07:35:27Z</time>
      </trkpt>
      <trkpt lat="43.16618" lon="5.88537">
        <ele>478.4</ele>
        <time>2022-06-01T07:35:32Z</time>
      </trkpt>
      <trkpt lat="43.16628" lon="5.88528">
        <ele>478.4</ele>
        <time>2022-06-01T07:35:37Z</time>
      </trkpt>
      <trkpt lat="43.16633" lon="5.88515">
        <ele>478.8</ele>
        <time>2022-06-01T07:35:42Z</time>
      </trkpt>
      <trkpt lat="43.16639" lon="5.88493">
        <ele>479</ele>
        <time>2022-06-01T07:35:50Z</time>
      </trkpt>
      <trkpt lat="43.16646" lon="5.88491">
        <ele>480.2</ele>
        <time>2022-06-01T07:36:01Z</time>
      </trkpt>
      <trkpt lat="43.16646" lon="5.88491">
        <ele>480.8</ele>
        <time>2022-06-01T07:36:40Z</time>
      </trkpt>
      <trkpt lat="43.16646" lon="5.8849">
        <ele>480.8</ele>
        <time>2022-06-01T07:36:49Z</time>
      </trkpt>
      <trkpt lat="43.16646" lon="5.88484">
        <ele>481</ele>
        <time>2022-06-01T07:36:55Z</time>
      </trkpt>
      <trkpt lat="43.16647" lon="5.88475">
        <ele>481.2</ele>
        <time>2022-06-01T07:36:58Z</time>
      </trkpt>
      <trkpt lat="43.16649" lon="5.88472">
        <ele>481.2</ele>
        <time>2022-06-01T07:36:59Z</time>
      </trkpt>
      <trkpt lat="43.16665" lon="5.88453">
        <ele>481.8</ele>
        <time>2022-06-01T07:37:07Z</time>
      </trkpt>
      <trkpt lat="43.1667" lon="5.88439">
        <ele>482.4</ele>
        <time>2022-06-01T07:37:11Z</time>
      </trkpt>
      <trkpt lat="43.16676" lon="5.88418">
        <ele>483.4</ele>
        <time>2022-06-01T07:37:16Z</time>
      </trkpt>
      <trkpt lat="43.16688" lon="5.88343">
        <ele>484</ele>
        <time>2022-06-01T07:37:32Z</time>
      </trkpt>
      <trkpt lat="43.16693" lon="5.88305">
        <ele>483.8</ele>
        <time>2022-06-01T07:37:39Z</time>
      </trkpt>
      <trkpt lat="43.16698" lon="5.88276">
        <ele>483.6</ele>
        <time>2022-06-01T07:37:44Z</time>
      </trkpt>
      <trkpt lat="43.16703" lon="5.88241">
        <ele>483</ele>
        <time>2022-06-01T07:37:49Z</time>
      </trkpt>
      <trkpt lat="43.1671" lon="5.88223">
        <ele>482.2</ele>
        <time>2022-06-01T07:37:52Z</time>
      </trkpt>
      <trkpt lat="43.16717" lon="5.88215">
        <ele>481.6</ele>
        <time>2022-06-01T07:37:54Z</time>
      </trkpt>
      <trkpt lat="43.1672" lon="5.8821">
        <ele>481.2</ele>
        <time>2022-06-01T07:37:55Z</time>
      </trkpt>
      <trkpt lat="43.16728" lon="5.88196">
        <ele>480.4</ele>
        <time>2022-06-01T07:37:58Z</time>
      </trkpt>
      <trkpt lat="43.16731" lon="5.8819">
        <ele>480.2</ele>
        <time>2022-06-01T07:37:59Z</time>
      </trkpt>
      <trkpt lat="43.1675" lon="5.88158">
        <ele>479.2</ele>
        <time>2022-06-01T07:38:05Z</time>
      </trkpt>
      <trkpt lat="43.16783" lon="5.88095">
        <ele>478.6</ele>
        <time>2022-06-01T07:38:17Z</time>
      </trkpt>
      <trkpt lat="43.16786" lon="5.8809">
        <ele>478.8</ele>
        <time>2022-06-01T07:38:18Z</time>
      </trkpt>
      <trkpt lat="43.16792" lon="5.88058">
        <ele>479</ele>
        <time>2022-06-01T07:38:23Z</time>
      </trkpt>
      <trkpt lat="43.16797" lon="5.88029">
        <ele>479</ele>
        <time>2022-06-01T07:38:27Z</time>
      </trkpt>
      <trkpt lat="43.16803" lon="5.8801">
        <ele>479</ele>
        <time>2022-06-01T07:38:30Z</time>
      </trkpt>
      <trkpt lat="43.16809" lon="5.87984">
        <ele>478.8</ele>
        <time>2022-06-01T07:38:34Z</time>
      </trkpt>
      <trkpt lat="43.16799" lon="5.87949">
        <ele>478.4</ele>
        <time>2022-06-01T07:38:40Z</time>
      </trkpt>
      <trkpt lat="43.16794" lon="5.87938">
        <ele>477.8</ele>
        <time>2022-06-01T07:38:42Z</time>
      </trkpt>
      <trkpt lat="43.16787" lon="5.87922">
        <ele>476.8</ele>
        <time>2022-06-01T07:38:45Z</time>
      </trkpt>
      <trkpt lat="43.16786" lon="5.87904">
        <ele>475.4</ele>
        <time>2022-06-01T07:38:48Z</time>
      </trkpt>
      <trkpt lat="43.16788" lon="5.87895">
        <ele>474.6</ele>
        <time>2022-06-01T07:38:50Z</time>
      </trkpt>
      <trkpt lat="43.16789" lon="5.87891">
        <ele>474</ele>
        <time>2022-06-01T07:38:51Z</time>
      </trkpt>
      <trkpt lat="43.1679" lon="5.87879">
        <ele>472.8</ele>
        <time>2022-06-01T07:38:54Z</time>
      </trkpt>
      <trkpt lat="43.1679" lon="5.87864">
        <ele>471.2</ele>
        <time>2022-06-01T07:38:58Z</time>
      </trkpt>
      <trkpt lat="43.1679" lon="5.87858">
        <ele>470</ele>
        <time>2022-06-01T07:39:01Z</time>
      </trkpt>
      <trkpt lat="43.1679" lon="5.87857">
        <ele>468.6</ele>
        <time>2022-06-01T07:39:04Z</time>
      </trkpt>
      <trkpt lat="43.16791" lon="5.87855">
        <ele>468.2</ele>
        <time>2022-06-01T07:39:05Z</time>
      </trkpt>
      <trkpt lat="43.16792" lon="5.87847">
        <ele>467.2</ele>
        <time>2022-06-01T07:39:07Z</time>
      </trkpt>
      <trkpt lat="43.16793" lon="5.87839">
        <ele>466.2</ele>
        <time>2022-06-01T07:39:11Z</time>
      </trkpt>
      <trkpt lat="43.16793" lon="5.87839">
        <ele>465.4</ele>
        <time>2022-06-01T07:39:15Z</time>
      </trkpt>
      <trkpt lat="43.16793" lon="5.87839">
        <ele>464</ele>
        <time>2022-06-01T07:39:20Z</time>
      </trkpt>
      <trkpt lat="43.16793" lon="5.87839">
        <ele>464</ele>
        <time>2022-06-01T07:39:37Z</time>
      </trkpt>
      <trkpt lat="43.16793" lon="5.87838">
        <ele>463.8</ele>
        <time>2022-06-01T07:39:41Z</time>
      </trkpt>
      <trkpt lat="43.16795" lon="5.87826">
        <ele>463.8</ele>
        <time>2022-06-01T07:39:44Z</time>
      </trkpt>
      <trkpt lat="43.16797" lon="5.87803">
        <ele>463.6</ele>
        <time>2022-06-01T07:39:48Z</time>
      </trkpt>
      <trkpt lat="43.16798" lon="5.87785">
        <ele>463</ele>
        <time>2022-06-01T07:39:51Z</time>
      </trkpt>
      <trkpt lat="43.16798" lon="5.8778">
        <ele>462.4</ele>
        <time>2022-06-01T07:39:52Z</time>
      </trkpt>
      <trkpt lat="43.16799" lon="5.87773">
        <ele>462</ele>
        <time>2022-06-01T07:39:53Z</time>
      </trkpt>
      <trkpt lat="43.168" lon="5.87766">
        <ele>461.4</ele>
        <time>2022-06-01T07:39:54Z</time>
      </trkpt>
      <trkpt lat="43.16802" lon="5.8776">
        <ele>460.6</ele>
        <time>2022-06-01T07:39:55Z</time>
      </trkpt>
      <trkpt lat="43.16804" lon="5.87749">
        <ele>459.4</ele>
        <time>2022-06-01T07:39:57Z</time>
      </trkpt>
      <trkpt lat="43.16805" lon="5.87739">
        <ele>457.6</ele>
        <time>2022-06-01T07:39:59Z</time>
      </trkpt>
      <trkpt lat="43.16806" lon="5.87727">
        <ele>456.4</ele>
        <time>2022-06-01T07:40:01Z</time>
      </trkpt>
      <trkpt lat="43.16809" lon="5.87713">
        <ele>454.8</ele>
        <time>2022-06-01T07:40:04Z</time>
      </trkpt>
      <trkpt lat="43.1681" lon="5.877">
        <ele>453.6</ele>
        <time>2022-06-01T07:40:07Z</time>
      </trkpt>
      <trkpt lat="43.1681" lon="5.87691">
        <ele>452.2</ele>
        <time>2022-06-01T07:40:09Z</time>
      </trkpt>
      <trkpt lat="43.1681" lon="5.87685">
        <ele>451</ele>
        <time>2022-06-01T07:40:11Z</time>
      </trkpt>
      <trkpt lat="43.1681" lon="5.87677">
        <ele>449.6</ele>
        <time>2022-06-01T07:40:13Z</time>
      </trkpt>
      <trkpt lat="43.1681" lon="5.87676">
        <ele>448.6</ele>
        <time>2022-06-01T07:40:15Z</time>
      </trkpt>
      <trkpt lat="43.16807" lon="5.87675">
        <ele>446.6</ele>
        <time>2022-06-01T07:40:18Z</time>
      </trkpt>
      <trkpt lat="43.16805" lon="5.87675">
        <ele>445.6</ele>
        <time>2022-06-01T07:40:22Z</time>
      </trkpt>
      <trkpt lat="43.16805" lon="5.87676">
        <ele>444.4</ele>
        <time>2022-06-01T07:40:27Z</time>
      </trkpt>
      <trkpt lat="43.16804" lon="5.87676">
        <ele>444</ele>
        <time>2022-06-01T07:40:31Z</time>
      </trkpt>
      <trkpt lat="43.16803" lon="5.87673">
        <ele>443.2</ele>
        <time>2022-06-01T07:40:41Z</time>
      </trkpt>
      <trkpt lat="43.16803" lon="5.87671">
        <ele>442</ele>
        <time>2022-06-01T07:40:46Z</time>
      </trkpt>
      <trkpt lat="43.16803" lon="5.8767">
        <ele>440.8</ele>
        <time>2022-06-01T07:40:50Z</time>
      </trkpt>
      <trkpt lat="43.16803" lon="5.8767">
        <ele>439.2</ele>
        <time>2022-06-01T07:40:52Z</time>
      </trkpt>
      <trkpt lat="43.16801" lon="5.87669">
        <ele>438</ele>
        <time>2022-06-01T07:41:00Z</time>
      </trkpt>
      <trkpt lat="43.16796" lon="5.87659">
        <ele>437.6</ele>
        <time>2022-06-01T07:41:04Z</time>
      </trkpt>
      <trkpt lat="43.16794" lon="5.8765">
        <ele>436.8</ele>
        <time>2022-06-01T07:41:07Z</time>
      </trkpt>
      <trkpt lat="43.16793" lon="5.87639">
        <ele>435.4</ele>
        <time>2022-06-01T07:41:10Z</time>
      </trkpt>
      <trkpt lat="43.16792" lon="5.87631">
        <ele>434</ele>
        <time>2022-06-01T07:41:13Z</time>
      </trkpt>
      <trkpt lat="43.1679" lon="5.87624">
        <ele>432.6</ele>
        <time>2022-06-01T07:41:15Z</time>
      </trkpt>
      <trkpt lat="43.16788" lon="5.87618">
        <ele>431.2</ele>
        <time>2022-06-01T07:41:17Z</time>
      </trkpt>
      <trkpt lat="43.16787" lon="5.87612">
        <ele>430.2</ele>
        <time>2022-06-01T07:41:19Z</time>
      </trkpt>
      <trkpt lat="43.16787" lon="5.87605">
        <ele>429</ele>
        <time>2022-06-01T07:41:21Z</time>
      </trkpt>
      <trkpt lat="43.16787" lon="5.87598">
        <ele>427.8</ele>
        <time>2022-06-01T07:41:23Z</time>
      </trkpt>
      <trkpt lat="43.16787" lon="5.87593">
        <ele>426.6</ele>
        <time>2022-06-01T07:41:25Z</time>
      </trkpt>
      <trkpt lat="43.16787" lon="5.87591">
        <ele>425.6</ele>
        <time>2022-06-01T07:41:26Z</time>
      </trkpt>
      <trkpt lat="43.16786" lon="5.87587">
        <ele>424.8</ele>
        <time>2022-06-01T07:41:27Z</time>
      </trkpt>
      <trkpt lat="43.16785" lon="5.87584">
        <ele>424</ele>
        <time>2022-06-01T07:41:28Z</time>
      </trkpt>
      <trkpt lat="43.16783" lon="5.87577">
        <ele>422.8</ele>
        <time>2022-06-01T07:41:30Z</time>
      </trkpt>
      <trkpt lat="43.16782" lon="5.87571">
        <ele>421.6</ele>
        <time>2022-06-01T07:41:32Z</time>
      </trkpt>
      <trkpt lat="43.16782" lon="5.87568">
        <ele>421</ele>
        <time>2022-06-01T07:41:33Z</time>
      </trkpt>
      <trkpt lat="43.16782" lon="5.87563">
        <ele>420</ele>
        <time>2022-06-01T07:41:35Z</time>
      </trkpt>
      <trkpt lat="43.16779" lon="5.87555">
        <ele>418.2</ele>
        <time>2022-06-01T07:41:38Z</time>
      </trkpt>
      <trkpt lat="43.1678" lon="5.87548">
        <ele>416.8</ele>
        <time>2022-06-01T07:41:40Z</time>
      </trkpt>
      <trkpt lat="43.16781" lon="5.87542">
        <ele>415.4</ele>
        <time>2022-06-01T07:41:42Z</time>
      </trkpt>
      <trkpt lat="43.16783" lon="5.87531">
        <ele>414</ele>
        <time>2022-06-01T07:41:45Z</time>
      </trkpt>
      <trkpt lat="43.16784" lon="5.87523">
        <ele>412.6</ele>
        <time>2022-06-01T07:41:47Z</time>
      </trkpt>
      <trkpt lat="43.16784" lon="5.87516">
        <ele>411.6</ele>
        <time>2022-06-01T07:41:49Z</time>
      </trkpt>
      <trkpt lat="43.16783" lon="5.87508">
        <ele>409.8</ele>
        <time>2022-06-01T07:41:51Z</time>
      </trkpt>
      <trkpt lat="43.16783" lon="5.87506">
        <ele>409.2</ele>
        <time>2022-06-01T07:41:52Z</time>
      </trkpt>
      <trkpt lat="43.16783" lon="5.87503">
        <ele>408.6</ele>
        <time>2022-06-01T07:41:53Z</time>
      </trkpt>
      <trkpt lat="43.16782" lon="5.87497">
        <ele>407.2</ele>
        <time>2022-06-01T07:41:55Z</time>
      </trkpt>
      <trkpt lat="43.16784" lon="5.8749">
        <ele>406</ele>
        <time>2022-06-01T07:41:57Z</time>
      </trkpt>
      <trkpt lat="43.16785" lon="5.87483">
        <ele>403.8</ele>
        <time>2022-06-01T07:41:59Z</time>
      </trkpt>
      <trkpt lat="43.16783" lon="5.87475">
        <ele>402.6</ele>
        <time>2022-06-01T07:42:01Z</time>
      </trkpt>
      <trkpt lat="43.16782" lon="5.87467">
        <ele>401</ele>
        <time>2022-06-01T07:42:03Z</time>
      </trkpt>
      <trkpt lat="43.16781" lon="5.87459">
        <ele>399.8</ele>
        <time>2022-06-01T07:42:05Z</time>
      </trkpt>
      <trkpt lat="43.16779" lon="5.87451">
        <ele>398.4</ele>
        <time>2022-06-01T07:42:07Z</time>
      </trkpt>
      <trkpt lat="43.1678" lon="5.87446">
        <ele>397</ele>
        <time>2022-06-01T07:42:09Z</time>
      </trkpt>
      <trkpt lat="43.16779" lon="5.87441">
        <ele>395.8</ele>
        <time>2022-06-01T07:42:11Z</time>
      </trkpt>
      <trkpt lat="43.16777" lon="5.87438">
        <ele>395.4</ele>
        <time>2022-06-01T07:42:12Z</time>
      </trkpt>
      <trkpt lat="43.16773" lon="5.87429">
        <ele>394.2</ele>
        <time>2022-06-01T07:42:14Z</time>
      </trkpt>
      <trkpt lat="43.16768" lon="5.87422">
        <ele>393</ele>
        <time>2022-06-01T07:42:16Z</time>
      </trkpt>
      <trkpt lat="43.16764" lon="5.87412">
        <ele>392</ele>
        <time>2022-06-01T07:42:18Z</time>
      </trkpt>
      <trkpt lat="43.16759" lon="5.87406">
        <ele>390.8</ele>
        <time>2022-06-01T07:42:20Z</time>
      </trkpt>
      <trkpt lat="43.16756" lon="5.87406">
        <ele>390</ele>
        <time>2022-06-01T07:42:21Z</time>
      </trkpt>
      <trkpt lat="43.16754" lon="5.87405">
        <ele>389.2</ele>
        <time>2022-06-01T07:42:22Z</time>
      </trkpt>
      <trkpt lat="43.1675" lon="5.87399">
        <ele>387.2</ele>
        <time>2022-06-01T07:42:24Z</time>
      </trkpt>
      <trkpt lat="43.16749" lon="5.87397">
        <ele>385.4</ele>
        <time>2022-06-01T07:42:26Z</time>
      </trkpt>
      <trkpt lat="43.16748" lon="5.87396">
        <ele>384.2</ele>
        <time>2022-06-01T07:42:28Z</time>
      </trkpt>
      <trkpt lat="43.16748" lon="5.87396">
        <ele>383</ele>
        <time>2022-06-01T07:42:30Z</time>
      </trkpt>
      <trkpt lat="43.16748" lon="5.87396">
        <ele>381.6</ele>
        <time>2022-06-01T07:42:32Z</time>
      </trkpt>
      <trkpt lat="43.16748" lon="5.87396">
        <ele>381</ele>
        <time>2022-06-01T07:42:42Z</time>
      </trkpt>
      <trkpt lat="43.16748" lon="5.87396">
        <ele>381.2</ele>
        <time>2022-06-01T07:42:53Z</time>
      </trkpt>
      <trkpt lat="43.16748" lon="5.87396">
        <ele>381.2</ele>
        <time>2022-06-01T07:43:00Z</time>
      </trkpt>
      <trkpt lat="43.16748" lon="5.87396">
        <ele>381.2</ele>
        <time>2022-06-01T07:43:04Z</time>
      </trkpt>
      <trkpt lat="43.16734" lon="5.87389">
        <ele>381.2</ele>
        <time>2022-06-01T07:43:12Z</time>
      </trkpt>
      <trkpt lat="43.16726" lon="5.87381">
        <ele>380.6</ele>
        <time>2022-06-01T07:43:16Z</time>
      </trkpt>
      <trkpt lat="43.16724" lon="5.87379">
        <ele>380.2</ele>
        <time>2022-06-01T07:43:17Z</time>
      </trkpt>
      <trkpt lat="43.16725" lon="5.87369">
        <ele>378.8</ele>
        <time>2022-06-01T07:43:20Z</time>
      </trkpt>
      <trkpt lat="43.16728" lon="5.87362">
        <ele>377.6</ele>
        <time>2022-06-01T07:43:22Z</time>
      </trkpt>
      <trkpt lat="43.16726" lon="5.87357">
        <ele>376.4</ele>
        <time>2022-06-01T07:43:24Z</time>
      </trkpt>
      <trkpt lat="43.1672" lon="5.87352">
        <ele>375.4</ele>
        <time>2022-06-01T07:43:26Z</time>
      </trkpt>
      <trkpt lat="43.16716" lon="5.8734">
        <ele>374.2</ele>
        <time>2022-06-01T07:43:29Z</time>
      </trkpt>
      <trkpt lat="43.16715" lon="5.87329">
        <ele>373.4</ele>
        <time>2022-06-01T07:43:32Z</time>
      </trkpt>
      <trkpt lat="43.16715" lon="5.87325">
        <ele>372.8</ele>
        <time>2022-06-01T07:43:33Z</time>
      </trkpt>
      <trkpt lat="43.16715" lon="5.87316">
        <ele>371.6</ele>
        <time>2022-06-01T07:43:35Z</time>
      </trkpt>
      <trkpt lat="43.16713" lon="5.87309">
        <ele>370.4</ele>
        <time>2022-06-01T07:43:37Z</time>
      </trkpt>
      <trkpt lat="43.16712" lon="5.87302">
        <ele>368.8</ele>
        <time>2022-06-01T07:43:39Z</time>
      </trkpt>
      <trkpt lat="43.16712" lon="5.87295">
        <ele>367.2</ele>
        <time>2022-06-01T07:43:41Z</time>
      </trkpt>
      <trkpt lat="43.16715" lon="5.87283">
        <ele>365.8</ele>
        <time>2022-06-01T07:43:44Z</time>
      </trkpt>
      <trkpt lat="43.16717" lon="5.87271">
        <ele>364.8</ele>
        <time>2022-06-01T07:43:46Z</time>
      </trkpt>
      <trkpt lat="43.16719" lon="5.87261">
        <ele>363.6</ele>
        <time>2022-06-01T07:43:48Z</time>
      </trkpt>
      <trkpt lat="43.16721" lon="5.8725">
        <ele>362.4</ele>
        <time>2022-06-01T07:43:50Z</time>
      </trkpt>
      <trkpt lat="43.16723" lon="5.87241">
        <ele>361</ele>
        <time>2022-06-01T07:43:52Z</time>
      </trkpt>
      <trkpt lat="43.16724" lon="5.87233">
        <ele>359.4</ele>
        <time>2022-06-01T07:43:54Z</time>
      </trkpt>
      <trkpt lat="43.16722" lon="5.87223">
        <ele>358</ele>
        <time>2022-06-01T07:43:57Z</time>
      </trkpt>
      <trkpt lat="43.16723" lon="5.8722">
        <ele>357.4</ele>
        <time>2022-06-01T07:43:58Z</time>
      </trkpt>
      <trkpt lat="43.16724" lon="5.87216">
        <ele>356.8</ele>
        <time>2022-06-01T07:43:59Z</time>
      </trkpt>
      <trkpt lat="43.16727" lon="5.87208">
        <ele>355.8</ele>
        <time>2022-06-01T07:44:01Z</time>
      </trkpt>
      <trkpt lat="43.16727" lon="5.87201">
        <ele>354.4</ele>
        <time>2022-06-01T07:44:03Z</time>
      </trkpt>
      <trkpt lat="43.16722" lon="5.87196">
        <ele>353</ele>
        <time>2022-06-01T07:44:05Z</time>
      </trkpt>
      <trkpt lat="43.16719" lon="5.8719">
        <ele>351.8</ele>
        <time>2022-06-01T07:44:07Z</time>
      </trkpt>
      <trkpt lat="43.16718" lon="5.87187">
        <ele>351</ele>
        <time>2022-06-01T07:44:08Z</time>
      </trkpt>
      <trkpt lat="43.16718" lon="5.87185">
        <ele>350.6</ele>
        <time>2022-06-01T07:44:09Z</time>
      </trkpt>
      <trkpt lat="43.16716" lon="5.87179">
        <ele>349.4</ele>
        <time>2022-06-01T07:44:11Z</time>
      </trkpt>
      <trkpt lat="43.16715" lon="5.87174">
        <ele>348.2</ele>
        <time>2022-06-01T07:44:13Z</time>
      </trkpt>
      <trkpt lat="43.16716" lon="5.87172">
        <ele>347.2</ele>
        <time>2022-06-01T07:44:14Z</time>
      </trkpt>
      <trkpt lat="43.16715" lon="5.87166">
        <ele>345.8</ele>
        <time>2022-06-01T07:44:17Z</time>
      </trkpt>
      <trkpt lat="43.16713" lon="5.87163">
        <ele>344.6</ele>
        <time>2022-06-01T07:44:19Z</time>
      </trkpt>
      <trkpt lat="43.16712" lon="5.87161">
        <ele>344</ele>
        <time>2022-06-01T07:44:20Z</time>
      </trkpt>
      <trkpt lat="43.16711" lon="5.87159">
        <ele>343.4</ele>
        <time>2022-06-01T07:44:21Z</time>
      </trkpt>
      <trkpt lat="43.16708" lon="5.87154">
        <ele>342</ele>
        <time>2022-06-01T07:44:23Z</time>
      </trkpt>
      <trkpt lat="43.16707" lon="5.87149">
        <ele>341</ele>
        <time>2022-06-01T07:44:25Z</time>
      </trkpt>
      <trkpt lat="43.16706" lon="5.87145">
        <ele>339.4</ele>
        <time>2022-06-01T07:44:27Z</time>
      </trkpt>
      <trkpt lat="43.16706" lon="5.87144">
        <ele>337.8</ele>
        <time>2022-06-01T07:44:29Z</time>
      </trkpt>
      <trkpt lat="43.16706" lon="5.87145">
        <ele>336.4</ele>
        <time>2022-06-01T07:44:31Z</time>
      </trkpt>
      <trkpt lat="43.16706" lon="5.87145">
        <ele>335.2</ele>
        <time>2022-06-01T07:44:33Z</time>
      </trkpt>
      <trkpt lat="43.16706" lon="5.87145">
        <ele>333.8</ele>
        <time>2022-06-01T07:44:35Z</time>
      </trkpt>
      <trkpt lat="43.16706" lon="5.87145">
        <ele>332.8</ele>
        <time>2022-06-01T07:44:40Z</time>
      </trkpt>
      <trkpt lat="43.16706" lon="5.87145">
        <ele>332.6</ele>
        <time>2022-06-01T07:44:44Z</time>
      </trkpt>
      <trkpt lat="43.16706" lon="5.87145">
        <ele>332.2</ele>
        <time>2022-06-01T07:44:53Z</time>
      </trkpt>
      <trkpt lat="43.16706" lon="5.87145">
        <ele>332.2</ele>
        <time>2022-06-01T07:44:57Z</time>
      </trkpt>
      <trkpt lat="43.16706" lon="5.87145">
        <ele>332.2</ele>
        <time>2022-06-01T07:45:01Z</time>
      </trkpt>
      <trkpt lat="43.16706" lon="5.87145">
        <ele>332.2</ele>
        <time>2022-06-01T07:45:04Z</time>
      </trkpt>
      <trkpt lat="43.16704" lon="5.87114">
        <ele>331.4</ele>
        <time>2022-06-01T07:45:15Z</time>
      </trkpt>
      <trkpt lat="43.16704" lon="5.87109">
        <ele>330.4</ele>
        <time>2022-06-01T07:45:17Z</time>
      </trkpt>
      <trkpt lat="43.16705" lon="5.87105">
        <ele>329</ele>
        <time>2022-06-01T07:45:20Z</time>
      </trkpt>
      <trkpt lat="43.16704" lon="5.87104">
        <ele>327</ele>
        <time>2022-06-01T07:45:22Z</time>
      </trkpt>
      <trkpt lat="43.16704" lon="5.87103">
        <ele>325.8</ele>
        <time>2022-06-01T07:45:24Z</time>
      </trkpt>
      <trkpt lat="43.16704" lon="5.87103">
        <ele>324.8</ele>
        <time>2022-06-01T07:45:28Z</time>
      </trkpt>
      <trkpt lat="43.16704" lon="5.87103">
        <ele>324.6</ele>
        <time>2022-06-01T07:45:35Z</time>
      </trkpt>
      <trkpt lat="43.16704" lon="5.87103">
        <ele>324.4</ele>
        <time>2022-06-01T07:45:55Z</time>
      </trkpt>
      <trkpt lat="43.16704" lon="5.87103">
        <ele>324.4</ele>
        <time>2022-06-01T07:45:59Z</time>
      </trkpt>
      <trkpt lat="43.16704" lon="5.871">
        <ele>324.4</ele>
        <time>2022-06-01T07:46:07Z</time>
      </trkpt>
      <trkpt lat="43.16703" lon="5.87093">
        <ele>324.4</ele>
        <time>2022-06-01T07:46:10Z</time>
      </trkpt>
      <trkpt lat="43.16701" lon="5.87072">
        <ele>324.2</ele>
        <time>2022-06-01T07:46:16Z</time>
      </trkpt>
      <trkpt lat="43.16699" lon="5.87061">
        <ele>323.4</ele>
        <time>2022-06-01T07:46:19Z</time>
      </trkpt>
      <trkpt lat="43.16698" lon="5.87052">
        <ele>322</ele>
        <time>2022-06-01T07:46:21Z</time>
      </trkpt>
      <trkpt lat="43.16697" lon="5.87041">
        <ele>320.8</ele>
        <time>2022-06-01T07:46:23Z</time>
      </trkpt>
      <trkpt lat="43.16695" lon="5.87028">
        <ele>319.2</ele>
        <time>2022-06-01T07:46:26Z</time>
      </trkpt>
      <trkpt lat="43.16695" lon="5.87021">
        <ele>317.8</ele>
        <time>2022-06-01T07:46:28Z</time>
      </trkpt>
      <trkpt lat="43.16694" lon="5.87016">
        <ele>316.2</ele>
        <time>2022-06-01T07:46:30Z</time>
      </trkpt>
      <trkpt lat="43.16694" lon="5.87015">
        <ele>314.6</ele>
        <time>2022-06-01T07:46:31Z</time>
      </trkpt>
      <trkpt lat="43.16693" lon="5.87012">
        <ele>313.8</ele>
        <time>2022-06-01T07:46:32Z</time>
      </trkpt>
      <trkpt lat="43.16691" lon="5.87009">
        <ele>313.4</ele>
        <time>2022-06-01T07:46:33Z</time>
      </trkpt>
      <trkpt lat="43.16687" lon="5.87004">
        <ele>312.2</ele>
        <time>2022-06-01T07:46:35Z</time>
      </trkpt>
      <trkpt lat="43.16681" lon="5.86995">
        <ele>311</ele>
        <time>2022-06-01T07:46:38Z</time>
      </trkpt>
      <trkpt lat="43.16679" lon="5.86983">
        <ele>309.4</ele>
        <time>2022-06-01T07:46:41Z</time>
      </trkpt>
      <trkpt lat="43.1668" lon="5.86975">
        <ele>308</ele>
        <time>2022-06-01T07:46:43Z</time>
      </trkpt>
      <trkpt lat="43.16683" lon="5.86966">
        <ele>306.8</ele>
        <time>2022-06-01T07:46:45Z</time>
      </trkpt>
      <trkpt lat="43.16685" lon="5.86959">
        <ele>305.4</ele>
        <time>2022-06-01T07:46:47Z</time>
      </trkpt>
      <trkpt lat="43.16687" lon="5.86952">
        <ele>303.8</ele>
        <time>2022-06-01T07:46:49Z</time>
      </trkpt>
      <trkpt lat="43.16688" lon="5.86944">
        <ele>302.6</ele>
        <time>2022-06-01T07:46:51Z</time>
      </trkpt>
      <trkpt lat="43.1669" lon="5.86936">
        <ele>301.4</ele>
        <time>2022-06-01T07:46:53Z</time>
      </trkpt>
      <trkpt lat="43.16691" lon="5.86927">
        <ele>299.6</ele>
        <time>2022-06-01T07:46:55Z</time>
      </trkpt>
      <trkpt lat="43.1669" lon="5.86919">
        <ele>298.4</ele>
        <time>2022-06-01T07:46:57Z</time>
      </trkpt>
      <trkpt lat="43.16689" lon="5.86913">
        <ele>297</ele>
        <time>2022-06-01T07:46:59Z</time>
      </trkpt>
      <trkpt lat="43.1669" lon="5.86908">
        <ele>295.4</ele>
        <time>2022-06-01T07:47:01Z</time>
      </trkpt>
      <trkpt lat="43.1669" lon="5.86905">
        <ele>294.8</ele>
        <time>2022-06-01T07:47:02Z</time>
      </trkpt>
      <trkpt lat="43.16689" lon="5.86903">
        <ele>294</ele>
        <time>2022-06-01T07:47:03Z</time>
      </trkpt>
      <trkpt lat="43.16688" lon="5.86899">
        <ele>292.2</ele>
        <time>2022-06-01T07:47:04Z</time>
      </trkpt>
      <trkpt lat="43.1669" lon="5.8689">
        <ele>290.8</ele>
        <time>2022-06-01T07:47:06Z</time>
      </trkpt>
      <trkpt lat="43.16691" lon="5.86885">
        <ele>290.4</ele>
        <time>2022-06-01T07:47:07Z</time>
      </trkpt>
      <trkpt lat="43.16693" lon="5.86876">
        <ele>289.6</ele>
        <time>2022-06-01T07:47:09Z</time>
      </trkpt>
      <trkpt lat="43.16693" lon="5.86864">
        <ele>288</ele>
        <time>2022-06-01T07:47:12Z</time>
      </trkpt>
      <trkpt lat="43.16692" lon="5.86853">
        <ele>286.6</ele>
        <time>2022-06-01T07:47:14Z</time>
      </trkpt>
      <trkpt lat="43.1669" lon="5.86847">
        <ele>286</ele>
        <time>2022-06-01T07:47:15Z</time>
      </trkpt>
      <trkpt lat="43.16688" lon="5.86842">
        <ele>285.4</ele>
        <time>2022-06-01T07:47:16Z</time>
      </trkpt>
      <trkpt lat="43.16682" lon="5.86832">
        <ele>283.8</ele>
        <time>2022-06-01T07:47:18Z</time>
      </trkpt>
      <trkpt lat="43.16679" lon="5.86827">
        <ele>283</ele>
        <time>2022-06-01T07:47:19Z</time>
      </trkpt>
      <trkpt lat="43.16679" lon="5.86821">
        <ele>282.6</ele>
        <time>2022-06-01T07:47:20Z</time>
      </trkpt>
      <trkpt lat="43.16679" lon="5.86815">
        <ele>282</ele>
        <time>2022-06-01T07:47:21Z</time>
      </trkpt>
      <trkpt lat="43.1668" lon="5.86807">
        <ele>281.4</ele>
        <time>2022-06-01T07:47:22Z</time>
      </trkpt>
      <trkpt lat="43.16683" lon="5.86795">
        <ele>280</ele>
        <time>2022-06-01T07:47:24Z</time>
      </trkpt>
      <trkpt lat="43.16684" lon="5.86788">
        <ele>279.2</ele>
        <time>2022-06-01T07:47:25Z</time>
      </trkpt>
      <trkpt lat="43.16684" lon="5.86781">
        <ele>278.2</ele>
        <time>2022-06-01T07:47:26Z</time>
      </trkpt>
      <trkpt lat="43.16685" lon="5.86769">
        <ele>277</ele>
        <time>2022-06-01T07:47:28Z</time>
      </trkpt>
      <trkpt lat="43.16686" lon="5.86761">
        <ele>275.6</ele>
        <time>2022-06-01T07:47:30Z</time>
      </trkpt>
      <trkpt lat="43.1669" lon="5.86754">
        <ele>274.2</ele>
        <time>2022-06-01T07:47:32Z</time>
      </trkpt>
      <trkpt lat="43.16696" lon="5.86743">
        <ele>273.2</ele>
        <time>2022-06-01T07:47:34Z</time>
      </trkpt>
      <trkpt lat="43.16699" lon="5.86737">
        <ele>272</ele>
        <time>2022-06-01T07:47:35Z</time>
      </trkpt>
      <trkpt lat="43.16705" lon="5.86729">
        <ele>270</ele>
        <time>2022-06-01T07:47:37Z</time>
      </trkpt>
      <trkpt lat="43.16711" lon="5.86721">
        <ele>269</ele>
        <time>2022-06-01T07:47:39Z</time>
      </trkpt>
      <trkpt lat="43.16714" lon="5.86715">
        <ele>268</ele>
        <time>2022-06-01T07:47:41Z</time>
      </trkpt>
      <trkpt lat="43.16715" lon="5.86713">
        <ele>267.4</ele>
        <time>2022-06-01T07:47:42Z</time>
      </trkpt>
      <trkpt lat="43.16719" lon="5.86701">
        <ele>266</ele>
        <time>2022-06-01T07:47:45Z</time>
      </trkpt>
      <trkpt lat="43.16723" lon="5.86698">
        <ele>265</ele>
        <time>2022-06-01T07:47:47Z</time>
      </trkpt>
      <trkpt lat="43.16725" lon="5.86693">
        <ele>264</ele>
        <time>2022-06-01T07:47:49Z</time>
      </trkpt>
      <trkpt lat="43.16729" lon="5.86689">
        <ele>262.6</ele>
        <time>2022-06-01T07:47:52Z</time>
      </trkpt>
      <trkpt lat="43.16779" lon="5.86658">
        <ele>261.6</ele>
        <time>2022-06-01T07:48:11Z</time>
      </trkpt>
      <trkpt lat="43.16791" lon="5.86667">
        <ele>261.6</ele>
        <time>2022-06-01T07:48:16Z</time>
      </trkpt>
      <trkpt lat="43.16813" lon="5.86689">
        <ele>261.8</ele>
        <time>2022-06-01T07:48:25Z</time>
      </trkpt>
      <trkpt lat="43.16849" lon="5.86748">
        <ele>262.8</ele>
        <time>2022-06-01T07:48:41Z</time>
      </trkpt>
      <trkpt lat="43.16875" lon="5.86803">
        <ele>261.4</ele>
        <time>2022-06-01T07:48:52Z</time>
      </trkpt>
      <trkpt lat="43.16878" lon="5.86808">
        <ele>261.4</ele>
        <time>2022-06-01T07:48:53Z</time>
      </trkpt>
      <trkpt lat="43.16886" lon="5.86822">
        <ele>260.4</ele>
        <time>2022-06-01T07:48:56Z</time>
      </trkpt>
      <trkpt lat="43.16893" lon="5.8684">
        <ele>259.4</ele>
        <time>2022-06-01T07:49:00Z</time>
      </trkpt>
      <trkpt lat="43.16907" lon="5.86868">
        <ele>258.4</ele>
        <time>2022-06-01T07:49:06Z</time>
      </trkpt>
      <trkpt lat="43.16911" lon="5.86875">
        <ele>258.2</ele>
        <time>2022-06-01T07:49:08Z</time>
      </trkpt>
      <trkpt lat="43.16943" lon="5.86917">
        <ele>257.2</ele>
        <time>2022-06-01T07:49:21Z</time>
      </trkpt>
      <trkpt lat="43.16975" lon="5.86939">
        <ele>256.2</ele>
        <time>2022-06-01T07:49:31Z</time>
      </trkpt>
      <trkpt lat="43.16993" lon="5.86966">
        <ele>255.2</ele>
        <time>2022-06-01T07:49:40Z</time>
      </trkpt>
      <trkpt lat="43.17017" lon="5.87007">
        <ele>255</ele>
        <time>2022-06-01T07:49:55Z</time>
      </trkpt>
      <trkpt lat="43.17023" lon="5.87014">
        <ele>255</ele>
        <time>2022-06-01T07:49:59Z</time>
      </trkpt>
      <trkpt lat="43.17038" lon="5.87023">
        <ele>256</ele>
        <time>2022-06-01T07:50:07Z</time>
      </trkpt>
      <trkpt lat="43.17054" lon="5.8703">
        <ele>257</ele>
        <time>2022-06-01T07:50:14Z</time>
      </trkpt>
      <trkpt lat="43.17065" lon="5.87025">
        <ele>257</ele>
        <time>2022-06-01T07:50:19Z</time>
      </trkpt>
      <trkpt lat="43.17072" lon="5.87022">
        <ele>256</ele>
        <time>2022-06-01T07:50:35Z</time>
      </trkpt>
      <trkpt lat="43.17093" lon="5.86989">
        <ele>255.6</ele>
        <time>2022-06-01T07:50:49Z</time>
      </trkpt>
      <trkpt lat="43.17106" lon="5.86969">
        <ele>256.2</ele>
        <time>2022-06-01T07:50:57Z</time>
      </trkpt>
      <trkpt lat="43.1713" lon="5.86917">
        <ele>257</ele>
        <time>2022-06-01T07:51:14Z</time>
      </trkpt>
      <trkpt lat="43.17146" lon="5.86892">
        <ele>258</ele>
        <time>2022-06-01T07:51:25Z</time>
      </trkpt>
      <trkpt lat="43.1715" lon="5.86878">
        <ele>258.2</ele>
        <time>2022-06-01T07:51:30Z</time>
      </trkpt>
      <trkpt lat="43.17151" lon="5.86868">
        <ele>258.4</ele>
        <time>2022-06-01T07:51:33Z</time>
      </trkpt>
      <trkpt lat="43.17154" lon="5.86847">
        <ele>259</ele>
        <time>2022-06-01T07:51:40Z</time>
      </trkpt>
      <trkpt lat="43.17198" lon="5.86805">
        <ele>259.8</ele>
        <time>2022-06-01T07:51:59Z</time>
      </trkpt>
      <trkpt lat="43.17212" lon="5.86795">
        <ele>260.2</ele>
        <time>2022-06-01T07:52:05Z</time>
      </trkpt>
      <trkpt lat="43.17245" lon="5.8676">
        <ele>260.8</ele>
        <time>2022-06-01T07:52:21Z</time>
      </trkpt>
      <trkpt lat="43.17248" lon="5.86753">
        <ele>261</ele>
        <time>2022-06-01T07:52:29Z</time>
      </trkpt>
      <trkpt lat="43.17248" lon="5.86753">
        <ele>261</ele>
        <time>2022-06-01T07:52:37Z</time>
      </trkpt>
      <trkpt lat="43.17248" lon="5.86753">
        <ele>261</ele>
        <time>2022-06-01T07:52:43Z</time>
      </trkpt>
      <trkpt lat="43.17248" lon="5.86753">
        <ele>261.2</ele>
        <time>2022-06-01T07:52:58Z</time>
      </trkpt>
      <trkpt lat="43.17249" lon="5.86752">
        <ele>261.2</ele>
        <time>2022-06-01T07:53:04Z</time>
      </trkpt>
      <trkpt lat="43.1726" lon="5.86734">
        <ele>261.2</ele>
        <time>2022-06-01T07:53:12Z</time>
      </trkpt>
      <trkpt lat="43.17263" lon="5.86729">
        <ele>261.6</ele>
        <time>2022-06-01T07:53:14Z</time>
      </trkpt>
      <trkpt lat="43.17266" lon="5.86725">
        <ele>263</ele>
        <time>2022-06-01T07:53:19Z</time>
      </trkpt>
      <trkpt lat="43.17266" lon="5.86725">
        <ele>264</ele>
        <time>2022-06-01T07:53:21Z</time>
      </trkpt>
      <trkpt lat="43.17266" lon="5.86725">
        <ele>265.2</ele>
        <time>2022-06-01T07:53:23Z</time>
      </trkpt>
      <trkpt lat="43.17266" lon="5.86724">
        <ele>266.2</ele>
        <time>2022-06-01T07:53:28Z</time>
      </trkpt>
      <trkpt lat="43.17268" lon="5.86722">
        <ele>266.4</ele>
        <time>2022-06-01T07:53:35Z</time>
      </trkpt>
      <trkpt lat="43.17269" lon="5.86723">
        <ele>266.4</ele>
        <time>2022-06-01T07:53:37Z</time>
      </trkpt>
      <trkpt lat="43.1727" lon="5.86724">
        <ele>267.4</ele>
        <time>2022-06-01T07:53:42Z</time>
      </trkpt>
      <trkpt lat="43.17269" lon="5.86731">
        <ele>267.8</ele>
        <time>2022-06-01T07:53:49Z</time>
      </trkpt>
      <trkpt lat="43.17284" lon="5.86806">
        <ele>267.6</ele>
        <time>2022-06-01T07:54:07Z</time>
      </trkpt>
      <trkpt lat="43.1729" lon="5.86842">
        <ele>268.6</ele>
        <time>2022-06-01T07:54:16Z</time>
      </trkpt>
      <trkpt lat="43.17296" lon="5.8687">
        <ele>269.6</ele>
        <time>2022-06-01T07:54:23Z</time>
      </trkpt>
      <trkpt lat="43.17305" lon="5.86903">
        <ele>270.6</ele>
        <time>2022-06-01T07:54:31Z</time>
      </trkpt>
      <trkpt lat="43.17317" lon="5.86947">
        <ele>271.8</ele>
        <time>2022-06-01T07:54:41Z</time>
      </trkpt>
      <trkpt lat="43.17329" lon="5.86985">
        <ele>272.6</ele>
        <time>2022-06-01T07:54:50Z</time>
      </trkpt>
      <trkpt lat="43.17331" lon="5.86992">
        <ele>272.8</ele>
        <time>2022-06-01T07:54:52Z</time>
      </trkpt>
      <trkpt lat="43.17343" lon="5.87023">
        <ele>274</ele>
        <time>2022-06-01T07:55:00Z</time>
      </trkpt>
      <trkpt lat="43.17364" lon="5.87062">
        <ele>275</ele>
        <time>2022-06-01T07:55:11Z</time>
      </trkpt>
      <trkpt lat="43.1737" lon="5.87098">
        <ele>276</ele>
        <time>2022-06-01T07:55:23Z</time>
      </trkpt>
      <trkpt lat="43.1737" lon="5.87098">
        <ele>276.2</ele>
        <time>2022-06-01T07:55:41Z</time>
      </trkpt>
      <trkpt lat="43.1737" lon="5.87098">
        <ele>276.4</ele>
        <time>2022-06-01T07:55:56Z</time>
      </trkpt>
      <trkpt lat="43.17373" lon="5.87105">
        <ele>276.2</ele>
        <time>2022-06-01T07:56:31Z</time>
      </trkpt>
      <trkpt lat="43.17388" lon="5.87139">
        <ele>277.4</ele>
        <time>2022-06-01T07:56:41Z</time>
      </trkpt>
      <trkpt lat="43.17405" lon="5.87162">
        <ele>278.4</ele>
        <time>2022-06-01T07:56:49Z</time>
      </trkpt>
      <trkpt lat="43.17425" lon="5.87183">
        <ele>279.6</ele>
        <time>2022-06-01T07:56:57Z</time>
      </trkpt>
      <trkpt lat="43.17437" lon="5.87196">
        <ele>280.2</ele>
        <time>2022-06-01T07:57:02Z</time>
      </trkpt>
      <trkpt lat="43.17442" lon="5.87201">
        <ele>280.6</ele>
        <time>2022-06-01T07:57:04Z</time>
      </trkpt>
      <trkpt lat="43.17452" lon="5.87212">
        <ele>281</ele>
        <time>2022-06-01T07:57:08Z</time>
      </trkpt>
      <trkpt lat="43.17466" lon="5.87226">
        <ele>282</ele>
        <time>2022-06-01T07:57:14Z</time>
      </trkpt>
      <trkpt lat="43.17483" lon="5.87244">
        <ele>283</ele>
        <time>2022-06-01T07:57:22Z</time>
      </trkpt>
      <trkpt lat="43.17508" lon="5.87273">
        <ele>284</ele>
        <time>2022-06-01T07:57:31Z</time>
      </trkpt>
      <trkpt lat="43.17516" lon="5.87317">
        <ele>285.2</ele>
        <time>2022-06-01T07:57:42Z</time>
      </trkpt>
      <trkpt lat="43.17517" lon="5.87334">
        <ele>286</ele>
        <time>2022-06-01T07:57:46Z</time>
      </trkpt>
      <trkpt lat="43.17517" lon="5.87343">
        <ele>286.6</ele>
        <time>2022-06-01T07:57:48Z</time>
      </trkpt>
      <trkpt lat="43.17517" lon="5.8737">
        <ele>287.8</ele>
        <time>2022-06-01T07:57:54Z</time>
      </trkpt>
      <trkpt lat="43.17517" lon="5.87384">
        <ele>288.2</ele>
        <time>2022-06-01T07:57:57Z</time>
      </trkpt>
      <trkpt lat="43.17531" lon="5.87458">
        <ele>288.8</ele>
        <time>2022-06-01T07:58:14Z</time>
      </trkpt>
      <trkpt lat="43.17533" lon="5.87461">
        <ele>288.8</ele>
        <time>2022-06-01T07:58:15Z</time>
      </trkpt>
      <trkpt lat="43.17538" lon="5.87492">
        <ele>289.6</ele>
        <time>2022-06-01T07:58:23Z</time>
      </trkpt>
      <trkpt lat="43.17492" lon="5.87528">
        <ele>289.8</ele>
        <time>2022-06-01T07:58:34Z</time>
      </trkpt>
      <trkpt lat="43.17487" lon="5.87532">
        <ele>289.8</ele>
        <time>2022-06-01T07:58:35Z</time>
      </trkpt>
      <trkpt lat="43.17472" lon="5.87558">
        <ele>288.8</ele>
        <time>2022-06-01T07:58:39Z</time>
      </trkpt>
      <trkpt lat="43.17468" lon="5.87572">
        <ele>287.8</ele>
        <time>2022-06-01T07:58:41Z</time>
      </trkpt>
      <trkpt lat="43.17468" lon="5.87584">
        <ele>286.6</ele>
        <time>2022-06-01T07:58:43Z</time>
      </trkpt>
      <trkpt lat="43.17471" lon="5.87653">
        <ele>287.6</ele>
        <time>2022-06-01T07:58:59Z</time>
      </trkpt>
      <trkpt lat="43.17471" lon="5.87679">
        <ele>288.8</ele>
        <time>2022-06-01T07:59:06Z</time>
      </trkpt>
      <trkpt lat="43.17466" lon="5.87698">
        <ele>290</ele>
        <time>2022-06-01T07:59:11Z</time>
      </trkpt>
      <trkpt lat="43.1746" lon="5.87719">
        <ele>291.4</ele>
        <time>2022-06-01T07:59:18Z</time>
      </trkpt>
      <trkpt lat="43.17458" lon="5.8773">
        <ele>291.6</ele>
        <time>2022-06-01T07:59:21Z</time>
      </trkpt>
      <trkpt lat="43.17454" lon="5.87743">
        <ele>292.2</ele>
        <time>2022-06-01T07:59:25Z</time>
      </trkpt>
      <trkpt lat="43.17453" lon="5.87749">
        <ele>292.6</ele>
        <time>2022-06-01T07:59:27Z</time>
      </trkpt>
      <trkpt lat="43.1745" lon="5.87765">
        <ele>293.6</ele>
        <time>2022-06-01T07:59:32Z</time>
      </trkpt>
      <trkpt lat="43.17443" lon="5.87783">
        <ele>294.6</ele>
        <time>2022-06-01T07:59:37Z</time>
      </trkpt>
      <trkpt lat="43.17437" lon="5.87809">
        <ele>295.8</ele>
        <time>2022-06-01T07:59:44Z</time>
      </trkpt>
      <trkpt lat="43.1743" lon="5.87831">
        <ele>296.8</ele>
        <time>2022-06-01T07:59:51Z</time>
      </trkpt>
      <trkpt lat="43.17421" lon="5.87857">
        <ele>298</ele>
        <time>2022-06-01T07:59:59Z</time>
      </trkpt>
      <trkpt lat="43.17413" lon="5.87882">
        <ele>299</ele>
        <time>2022-06-01T08:00:07Z</time>
      </trkpt>
      <trkpt lat="43.17409" lon="5.87902">
        <ele>300.2</ele>
        <time>2022-06-01T08:00:13Z</time>
      </trkpt>
      <trkpt lat="43.17414" lon="5.87922">
        <ele>301.2</ele>
        <time>2022-06-01T08:00:19Z</time>
      </trkpt>
      <trkpt lat="43.17416" lon="5.87929">
        <ele>301.6</ele>
        <time>2022-06-01T08:00:21Z</time>
      </trkpt>
      <trkpt lat="43.17413" lon="5.87942">
        <ele>302.2</ele>
        <time>2022-06-01T08:00:25Z</time>
      </trkpt>
      <trkpt lat="43.17412" lon="5.87947">
        <ele>302</ele>
        <time>2022-06-01T08:00:27Z</time>
      </trkpt>
      <trkpt lat="43.17405" lon="5.87967">
        <ele>303.4</ele>
        <time>2022-06-01T08:00:34Z</time>
      </trkpt>
      <trkpt lat="43.17403" lon="5.87977">
        <ele>304.4</ele>
        <time>2022-06-01T08:00:37Z</time>
      </trkpt>
      <trkpt lat="43.17402" lon="5.8798">
        <ele>304.8</ele>
        <time>2022-06-01T08:00:38Z</time>
      </trkpt>
      <trkpt lat="43.174" lon="5.87992">
        <ele>305.6</ele>
        <time>2022-06-01T08:00:42Z</time>
      </trkpt>
      <trkpt lat="43.17394" lon="5.88013">
        <ele>306.6</ele>
        <time>2022-06-01T08:00:49Z</time>
      </trkpt>
      <trkpt lat="43.17392" lon="5.88026">
        <ele>307.8</ele>
        <time>2022-06-01T08:00:53Z</time>
      </trkpt>
      <trkpt lat="43.17386" lon="5.88047">
        <ele>309</ele>
        <time>2022-06-01T08:00:59Z</time>
      </trkpt>
      <trkpt lat="43.17383" lon="5.88056">
        <ele>309.4</ele>
        <time>2022-06-01T08:01:02Z</time>
      </trkpt>
      <trkpt lat="43.17381" lon="5.88064">
        <ele>309.8</ele>
        <time>2022-06-01T08:01:04Z</time>
      </trkpt>
      <trkpt lat="43.17375" lon="5.88092">
        <ele>310.8</ele>
        <time>2022-06-01T08:01:11Z</time>
      </trkpt>
      <trkpt lat="43.17371" lon="5.88114">
        <ele>312</ele>
        <time>2022-06-01T08:01:19Z</time>
      </trkpt>
      <trkpt lat="43.17367" lon="5.88125">
        <ele>313</ele>
        <time>2022-06-01T08:01:23Z</time>
      </trkpt>
      <trkpt lat="43.17352" lon="5.88162">
        <ele>314</ele>
        <time>2022-06-01T08:01:35Z</time>
      </trkpt>
      <trkpt lat="43.17345" lon="5.88182">
        <ele>315.2</ele>
        <time>2022-06-01T08:01:42Z</time>
      </trkpt>
      <trkpt lat="43.17342" lon="5.88193">
        <ele>315.4</ele>
        <time>2022-06-01T08:01:46Z</time>
      </trkpt>
      <trkpt lat="43.17339" lon="5.88199">
        <ele>316.2</ele>
        <time>2022-06-01T08:01:48Z</time>
      </trkpt>
      <trkpt lat="43.17338" lon="5.88204">
        <ele>317.4</ele>
        <time>2022-06-01T08:01:50Z</time>
      </trkpt>
      <trkpt lat="43.17332" lon="5.8822">
        <ele>318.4</ele>
        <time>2022-06-01T08:01:56Z</time>
      </trkpt>
      <trkpt lat="43.17331" lon="5.88223">
        <ele>318.6</ele>
        <time>2022-06-01T08:01:57Z</time>
      </trkpt>
      <trkpt lat="43.17329" lon="5.88234">
        <ele>319</ele>
        <time>2022-06-01T08:02:01Z</time>
      </trkpt>
      <trkpt lat="43.17329" lon="5.88237">
        <ele>319.4</ele>
        <time>2022-06-01T08:02:02Z</time>
      </trkpt>
      <trkpt lat="43.17328" lon="5.88241">
        <ele>319.6</ele>
        <time>2022-06-01T08:02:03Z</time>
      </trkpt>
      <trkpt lat="43.17324" lon="5.8825">
        <ele>320.8</ele>
        <time>2022-06-01T08:02:07Z</time>
      </trkpt>
      <trkpt lat="43.17322" lon="5.88253">
        <ele>321</ele>
        <time>2022-06-01T08:02:08Z</time>
      </trkpt>
      <trkpt lat="43.17315" lon="5.88264">
        <ele>322</ele>
        <time>2022-06-01T08:02:13Z</time>
      </trkpt>
      <trkpt lat="43.17311" lon="5.88273">
        <ele>323.2</ele>
        <time>2022-06-01T08:02:16Z</time>
      </trkpt>
      <trkpt lat="43.17307" lon="5.88284">
        <ele>324.4</ele>
        <time>2022-06-01T08:02:20Z</time>
      </trkpt>
      <trkpt lat="43.17305" lon="5.88294">
        <ele>325.6</ele>
        <time>2022-06-01T08:02:23Z</time>
      </trkpt>
      <trkpt lat="43.17294" lon="5.88311">
        <ele>326.6</ele>
        <time>2022-06-01T08:02:30Z</time>
      </trkpt>
      <trkpt lat="43.17287" lon="5.8832">
        <ele>327.8</ele>
        <time>2022-06-01T08:02:34Z</time>
      </trkpt>
      <trkpt lat="43.17274" lon="5.88332">
        <ele>328.8</ele>
        <time>2022-06-01T08:02:41Z</time>
      </trkpt>
      <trkpt lat="43.17266" lon="5.88339">
        <ele>329.8</ele>
        <time>2022-06-01T08:02:45Z</time>
      </trkpt>
      <trkpt lat="43.17257" lon="5.88347">
        <ele>331</ele>
        <time>2022-06-01T08:02:50Z</time>
      </trkpt>
      <trkpt lat="43.17252" lon="5.88351">
        <ele>332</ele>
        <time>2022-06-01T08:02:53Z</time>
      </trkpt>
      <trkpt lat="43.17246" lon="5.88356">
        <ele>333.2</ele>
        <time>2022-06-01T08:02:57Z</time>
      </trkpt>
      <trkpt lat="43.1724" lon="5.88362">
        <ele>334.4</ele>
        <time>2022-06-01T08:03:01Z</time>
      </trkpt>
      <trkpt lat="43.17227" lon="5.88372">
        <ele>335.4</ele>
        <time>2022-06-01T08:03:08Z</time>
      </trkpt>
      <trkpt lat="43.17219" lon="5.88378">
        <ele>336.4</ele>
        <time>2022-06-01T08:03:13Z</time>
      </trkpt>
      <trkpt lat="43.17217" lon="5.88378">
        <ele>336.6</ele>
        <time>2022-06-01T08:03:14Z</time>
      </trkpt>
      <trkpt lat="43.1721" lon="5.88384">
        <ele>337.8</ele>
        <time>2022-06-01T08:03:18Z</time>
      </trkpt>
      <trkpt lat="43.17205" lon="5.88389">
        <ele>338.4</ele>
        <time>2022-06-01T08:03:21Z</time>
      </trkpt>
      <trkpt lat="43.172" lon="5.88395">
        <ele>339</ele>
        <time>2022-06-01T08:03:24Z</time>
      </trkpt>
      <trkpt lat="43.17195" lon="5.88405">
        <ele>340</ele>
        <time>2022-06-01T08:03:28Z</time>
      </trkpt>
      <trkpt lat="43.17187" lon="5.88417">
        <ele>341.2</ele>
        <time>2022-06-01T08:03:33Z</time>
      </trkpt>
      <trkpt lat="43.17181" lon="5.88427">
        <ele>341.8</ele>
        <time>2022-06-01T08:03:37Z</time>
      </trkpt>
      <trkpt lat="43.17178" lon="5.88431">
        <ele>342.4</ele>
        <time>2022-06-01T08:03:39Z</time>
      </trkpt>
      <trkpt lat="43.17169" lon="5.88444">
        <ele>343.4</ele>
        <time>2022-06-01T08:03:46Z</time>
      </trkpt>
      <trkpt lat="43.1716" lon="5.88457">
        <ele>344.4</ele>
        <time>2022-06-01T08:03:52Z</time>
      </trkpt>
      <trkpt lat="43.17147" lon="5.88469">
        <ele>345.4</ele>
        <time>2022-06-01T08:03:59Z</time>
      </trkpt>
      <trkpt lat="43.17133" lon="5.88481">
        <ele>346.6</ele>
        <time>2022-06-01T08:04:07Z</time>
      </trkpt>
      <trkpt lat="43.17126" lon="5.88485">
        <ele>347.8</ele>
        <time>2022-06-01T08:04:11Z</time>
      </trkpt>
      <trkpt lat="43.17123" lon="5.88487">
        <ele>348.2</ele>
        <time>2022-06-01T08:04:13Z</time>
      </trkpt>
      <trkpt lat="43.17119" lon="5.88495">
        <ele>349.2</ele>
        <time>2022-06-01T08:04:17Z</time>
      </trkpt>
      <trkpt lat="43.17111" lon="5.88506">
        <ele>350.2</ele>
        <time>2022-06-01T08:04:21Z</time>
      </trkpt>
      <trkpt lat="43.17106" lon="5.88518">
        <ele>351.2</ele>
        <time>2022-06-01T08:04:26Z</time>
      </trkpt>
      <trkpt lat="43.171" lon="5.88533">
        <ele>352.4</ele>
        <time>2022-06-01T08:04:32Z</time>
      </trkpt>
      <trkpt lat="43.17088" lon="5.8856">
        <ele>353.4</ele>
        <time>2022-06-01T08:04:42Z</time>
      </trkpt>
      <trkpt lat="43.17081" lon="5.88587">
        <ele>354.4</ele>
        <time>2022-06-01T08:04:52Z</time>
      </trkpt>
      <trkpt lat="43.1707" lon="5.88611">
        <ele>355.4</ele>
        <time>2022-06-01T08:05:00Z</time>
      </trkpt>
      <trkpt lat="43.17065" lon="5.88631">
        <ele>356.6</ele>
        <time>2022-06-01T08:05:07Z</time>
      </trkpt>
      <trkpt lat="43.1706" lon="5.88646">
        <ele>357.6</ele>
        <time>2022-06-01T08:05:13Z</time>
      </trkpt>
      <trkpt lat="43.17058" lon="5.88661">
        <ele>359.2</ele>
        <time>2022-06-01T08:05:18Z</time>
      </trkpt>
      <trkpt lat="43.17058" lon="5.88691">
        <ele>360.4</ele>
        <time>2022-06-01T08:05:26Z</time>
      </trkpt>
      <trkpt lat="43.1706" lon="5.887">
        <ele>360.8</ele>
        <time>2022-06-01T08:05:29Z</time>
      </trkpt>
      <trkpt lat="43.17063" lon="5.88717">
        <ele>361.4</ele>
        <time>2022-06-01T08:05:35Z</time>
      </trkpt>
      <trkpt lat="43.17063" lon="5.88733">
        <ele>362.4</ele>
        <time>2022-06-01T08:05:40Z</time>
      </trkpt>
      <trkpt lat="43.17063" lon="5.88741">
        <ele>363</ele>
        <time>2022-06-01T08:05:43Z</time>
      </trkpt>
      <trkpt lat="43.1706" lon="5.88745">
        <ele>363.8</ele>
        <time>2022-06-01T08:05:45Z</time>
      </trkpt>
      <trkpt lat="43.17053" lon="5.88753">
        <ele>364.6</ele>
        <time>2022-06-01T08:05:49Z</time>
      </trkpt>
      <trkpt lat="43.17052" lon="5.88755">
        <ele>365.2</ele>
        <time>2022-06-01T08:05:50Z</time>
      </trkpt>
      <trkpt lat="43.1705" lon="5.8876">
        <ele>365.8</ele>
        <time>2022-06-01T08:05:52Z</time>
      </trkpt>
      <trkpt lat="43.17048" lon="5.8876">
        <ele>366.2</ele>
        <time>2022-06-01T08:05:53Z</time>
      </trkpt>
      <trkpt lat="43.17042" lon="5.8876">
        <ele>367.2</ele>
        <time>2022-06-01T08:05:56Z</time>
      </trkpt>
      <trkpt lat="43.17036" lon="5.88769">
        <ele>368.2</ele>
        <time>2022-06-01T08:06:00Z</time>
      </trkpt>
      <trkpt lat="43.17036" lon="5.88772">
        <ele>368.4</ele>
        <time>2022-06-01T08:06:01Z</time>
      </trkpt>
      <trkpt lat="43.17033" lon="5.88784">
        <ele>369.6</ele>
        <time>2022-06-01T08:06:05Z</time>
      </trkpt>
      <trkpt lat="43.17028" lon="5.88804">
        <ele>370.6</ele>
        <time>2022-06-01T08:06:10Z</time>
      </trkpt>
      <trkpt lat="43.17" lon="5.88809">
        <ele>371.4</ele>
        <time>2022-06-01T08:06:23Z</time>
      </trkpt>
      <trkpt lat="43.16998" lon="5.88807">
        <ele>371.8</ele>
        <time>2022-06-01T08:06:24Z</time>
      </trkpt>
      <trkpt lat="43.16983" lon="5.88792">
        <ele>373</ele>
        <time>2022-06-01T08:06:30Z</time>
      </trkpt>
      <trkpt lat="43.16941" lon="5.88741">
        <ele>373.6</ele>
        <time>2022-06-01T08:06:46Z</time>
      </trkpt>
      <trkpt lat="43.16919" lon="5.88719">
        <ele>373.8</ele>
        <time>2022-06-01T08:06:53Z</time>
      </trkpt>
      <trkpt lat="43.16871" lon="5.88674">
        <ele>373</ele>
        <time>2022-06-01T08:07:01Z</time>
      </trkpt>
      <trkpt lat="43.16864" lon="5.88666">
        <ele>372.6</ele>
        <time>2022-06-01T08:07:02Z</time>
      </trkpt>
      <trkpt lat="43.16858" lon="5.8866">
        <ele>371.8</ele>
        <time>2022-06-01T08:07:03Z</time>
      </trkpt>
      <trkpt lat="43.16846" lon="5.88653">
        <ele>370.4</ele>
        <time>2022-06-01T08:07:05Z</time>
      </trkpt>
      <trkpt lat="43.16838" lon="5.88657">
        <ele>369</ele>
        <time>2022-06-01T08:07:07Z</time>
      </trkpt>
      <trkpt lat="43.16831" lon="5.88667">
        <ele>367.4</ele>
        <time>2022-06-01T08:07:09Z</time>
      </trkpt>
      <trkpt lat="43.16825" lon="5.88676">
        <ele>365.8</ele>
        <time>2022-06-01T08:07:11Z</time>
      </trkpt>
      <trkpt lat="43.1682" lon="5.88684">
        <ele>364.8</ele>
        <time>2022-06-01T08:07:13Z</time>
      </trkpt>
      <trkpt lat="43.16811" lon="5.887">
        <ele>363.8</ele>
        <time>2022-06-01T08:07:17Z</time>
      </trkpt>
      <trkpt lat="43.168" lon="5.88719">
        <ele>363.2</ele>
        <time>2022-06-01T08:07:21Z</time>
      </trkpt>
      <trkpt lat="43.16797" lon="5.88724">
        <ele>363.2</ele>
        <time>2022-06-01T08:07:22Z</time>
      </trkpt>
      <trkpt lat="43.16782" lon="5.8876">
        <ele>363.2</ele>
        <time>2022-06-01T08:07:28Z</time>
      </trkpt>
      <trkpt lat="43.16779" lon="5.8879">
        <ele>363</ele>
        <time>2022-06-01T08:07:33Z</time>
      </trkpt>
      <trkpt lat="43.16778" lon="5.88796">
        <ele>362.8</ele>
        <time>2022-06-01T08:07:34Z</time>
      </trkpt>
      <trkpt lat="43.16771" lon="5.88832">
        <ele>362.6</ele>
        <time>2022-06-01T08:07:41Z</time>
      </trkpt>
      <trkpt lat="43.16763" lon="5.88891">
        <ele>364</ele>
        <time>2022-06-01T08:07:59Z</time>
      </trkpt>
      <trkpt lat="43.16763" lon="5.88933">
        <ele>364.2</ele>
        <time>2022-06-01T08:08:08Z</time>
      </trkpt>
      <trkpt lat="43.16755" lon="5.89006">
        <ele>363</ele>
        <time>2022-06-01T08:08:16Z</time>
      </trkpt>
      <trkpt lat="43.16753" lon="5.89017">
        <ele>362.4</ele>
        <time>2022-06-01T08:08:17Z</time>
      </trkpt>
      <trkpt lat="43.1675" lon="5.89047">
        <ele>361.2</ele>
        <time>2022-06-01T08:08:20Z</time>
      </trkpt>
      <trkpt lat="43.1675" lon="5.89057">
        <ele>360.6</ele>
        <time>2022-06-01T08:08:21Z</time>
      </trkpt>
      <trkpt lat="43.16751" lon="5.89078">
        <ele>360.2</ele>
        <time>2022-06-01T08:08:23Z</time>
      </trkpt>
      <trkpt lat="43.16752" lon="5.8911">
        <ele>359</ele>
        <time>2022-06-01T08:08:26Z</time>
      </trkpt>
      <trkpt lat="43.16752" lon="5.8912">
        <ele>358.6</ele>
        <time>2022-06-01T08:08:27Z</time>
      </trkpt>
      <trkpt lat="43.16744" lon="5.89159">
        <ele>357.4</ele>
        <time>2022-06-01T08:08:31Z</time>
      </trkpt>
      <trkpt lat="43.1674" lon="5.89184">
        <ele>356.4</ele>
        <time>2022-06-01T08:08:34Z</time>
      </trkpt>
      <trkpt lat="43.16731" lon="5.89259">
        <ele>355.8</ele>
        <time>2022-06-01T08:08:50Z</time>
      </trkpt>
      <trkpt lat="43.16725" lon="5.89292">
        <ele>357.2</ele>
        <time>2022-06-01T08:08:58Z</time>
      </trkpt>
      <trkpt lat="43.16721" lon="5.89305">
        <ele>357.8</ele>
        <time>2022-06-01T08:09:02Z</time>
      </trkpt>
      <trkpt lat="43.16718" lon="5.89315">
        <ele>358.4</ele>
        <time>2022-06-01T08:09:05Z</time>
      </trkpt>
      <trkpt lat="43.16714" lon="5.89329">
        <ele>359.2</ele>
        <time>2022-06-01T08:09:09Z</time>
      </trkpt>
      <trkpt lat="43.16713" lon="5.89334">
        <ele>359.4</ele>
        <time>2022-06-01T08:09:10Z</time>
      </trkpt>
      <trkpt lat="43.16707" lon="5.89356">
        <ele>360.4</ele>
        <time>2022-06-01T08:09:16Z</time>
      </trkpt>
      <trkpt lat="43.16706" lon="5.8936">
        <ele>360.6</ele>
        <time>2022-06-01T08:09:17Z</time>
      </trkpt>
      <trkpt lat="43.16691" lon="5.89389">
        <ele>361.8</ele>
        <time>2022-06-01T08:09:25Z</time>
      </trkpt>
      <trkpt lat="43.16696" lon="5.89439">
        <ele>362</ele>
        <time>2022-06-01T08:09:35Z</time>
      </trkpt>
      <trkpt lat="43.16706" lon="5.89466">
        <ele>362</ele>
        <time>2022-06-01T08:09:39Z</time>
      </trkpt>
      <trkpt lat="43.16707" lon="5.89473">
        <ele>362</ele>
        <time>2022-06-01T08:09:40Z</time>
      </trkpt>
      <trkpt lat="43.16706" lon="5.895">
        <ele>362</ele>
        <time>2022-06-01T08:09:44Z</time>
      </trkpt>
      <trkpt lat="43.16687" lon="5.89537">
        <ele>362.2</ele>
        <time>2022-06-01T08:09:54Z</time>
      </trkpt>
      <trkpt lat="43.16675" lon="5.89549">
        <ele>362.6</ele>
        <time>2022-06-01T08:10:00Z</time>
      </trkpt>
      <trkpt lat="43.16662" lon="5.8956">
        <ele>362.6</ele>
        <time>2022-06-01T08:10:03Z</time>
      </trkpt>
      <trkpt lat="43.16642" lon="5.89573">
        <ele>362.2</ele>
        <time>2022-06-01T08:10:07Z</time>
      </trkpt>
      <trkpt lat="43.16617" lon="5.89584">
        <ele>360.6</ele>
        <time>2022-06-01T08:10:11Z</time>
      </trkpt>
      <trkpt lat="43.16596" lon="5.89592">
        <ele>359</ele>
        <time>2022-06-01T08:10:14Z</time>
      </trkpt>
      <trkpt lat="43.16583" lon="5.89598">
        <ele>357.2</ele>
        <time>2022-06-01T08:10:16Z</time>
      </trkpt>
      <trkpt lat="43.16572" lon="5.89605">
        <ele>355.6</ele>
        <time>2022-06-01T08:10:18Z</time>
      </trkpt>
      <trkpt lat="43.16566" lon="5.8961">
        <ele>355</ele>
        <time>2022-06-01T08:10:19Z</time>
      </trkpt>
      <trkpt lat="43.16559" lon="5.89616">
        <ele>354.4</ele>
        <time>2022-06-01T08:10:20Z</time>
      </trkpt>
      <trkpt lat="43.16551" lon="5.89622">
        <ele>353.4</ele>
        <time>2022-06-01T08:10:21Z</time>
      </trkpt>
      <trkpt lat="43.16533" lon="5.89631">
        <ele>351.6</ele>
        <time>2022-06-01T08:10:23Z</time>
      </trkpt>
      <trkpt lat="43.16524" lon="5.89635">
        <ele>350</ele>
        <time>2022-06-01T08:10:24Z</time>
      </trkpt>
      <trkpt lat="43.16503" lon="5.89636">
        <ele>348.2</ele>
        <time>2022-06-01T08:10:26Z</time>
      </trkpt>
      <trkpt lat="43.16494" lon="5.89635">
        <ele>347</ele>
        <time>2022-06-01T08:10:27Z</time>
      </trkpt>
      <trkpt lat="43.16476" lon="5.89634">
        <ele>345.4</ele>
        <time>2022-06-01T08:10:29Z</time>
      </trkpt>
      <trkpt lat="43.16467" lon="5.89635">
        <ele>344.2</ele>
        <time>2022-06-01T08:10:30Z</time>
      </trkpt>
      <trkpt lat="43.16449" lon="5.89639">
        <ele>342.4</ele>
        <time>2022-06-01T08:10:32Z</time>
      </trkpt>
      <trkpt lat="43.16433" lon="5.89642">
        <ele>340.6</ele>
        <time>2022-06-01T08:10:34Z</time>
      </trkpt>
      <trkpt lat="43.16419" lon="5.89645">
        <ele>339.2</ele>
        <time>2022-06-01T08:10:36Z</time>
      </trkpt>
      <trkpt lat="43.16405" lon="5.8965">
        <ele>337.8</ele>
        <time>2022-06-01T08:10:38Z</time>
      </trkpt>
      <trkpt lat="43.16398" lon="5.89654">
        <ele>337.2</ele>
        <time>2022-06-01T08:10:39Z</time>
      </trkpt>
      <trkpt lat="43.16383" lon="5.89663">
        <ele>336.8</ele>
        <time>2022-06-01T08:10:41Z</time>
      </trkpt>
      <trkpt lat="43.16328" lon="5.89672">
        <ele>336</ele>
        <time>2022-06-01T08:10:47Z</time>
      </trkpt>
      <trkpt lat="43.16299" lon="5.89676">
        <ele>334.2</ele>
        <time>2022-06-01T08:10:50Z</time>
      </trkpt>
      <trkpt lat="43.1629" lon="5.89677">
        <ele>333.2</ele>
        <time>2022-06-01T08:10:51Z</time>
      </trkpt>
      <trkpt lat="43.1627" lon="5.89676">
        <ele>331.6</ele>
        <time>2022-06-01T08:10:53Z</time>
      </trkpt>
      <trkpt lat="43.16261" lon="5.89674">
        <ele>331</ele>
        <time>2022-06-01T08:10:54Z</time>
      </trkpt>
      <trkpt lat="43.16253" lon="5.89671">
        <ele>330.4</ele>
        <time>2022-06-01T08:10:55Z</time>
      </trkpt>
      <trkpt lat="43.16239" lon="5.89659">
        <ele>328.4</ele>
        <time>2022-06-01T08:10:57Z</time>
      </trkpt>
      <trkpt lat="43.16225" lon="5.89649">
        <ele>326.6</ele>
        <time>2022-06-01T08:10:59Z</time>
      </trkpt>
      <trkpt lat="43.16219" lon="5.89648">
        <ele>325.6</ele>
        <time>2022-06-01T08:11:00Z</time>
      </trkpt>
      <trkpt lat="43.16206" lon="5.89647">
        <ele>324.4</ele>
        <time>2022-06-01T08:11:02Z</time>
      </trkpt>
      <trkpt lat="43.16188" lon="5.89656">
        <ele>323</ele>
        <time>2022-06-01T08:11:05Z</time>
      </trkpt>
      <trkpt lat="43.16184" lon="5.89661">
        <ele>322.8</ele>
        <time>2022-06-01T08:11:06Z</time>
      </trkpt>
      <trkpt lat="43.16179" lon="5.89665">
        <ele>322.8</ele>
        <time>2022-06-01T08:11:07Z</time>
      </trkpt>
      <trkpt lat="43.16155" lon="5.8966">
        <ele>322.4</ele>
        <time>2022-06-01T08:11:11Z</time>
      </trkpt>
      <trkpt lat="43.1615" lon="5.89657">
        <ele>322</ele>
        <time>2022-06-01T08:11:12Z</time>
      </trkpt>
      <trkpt lat="43.16138" lon="5.89658">
        <ele>321</ele>
        <time>2022-06-01T08:11:14Z</time>
      </trkpt>
      <trkpt lat="43.16126" lon="5.89664">
        <ele>319.4</ele>
        <time>2022-06-01T08:11:16Z</time>
      </trkpt>
      <trkpt lat="43.16113" lon="5.89675">
        <ele>317.6</ele>
        <time>2022-06-01T08:11:18Z</time>
      </trkpt>
      <trkpt lat="43.16107" lon="5.8968">
        <ele>316.4</ele>
        <time>2022-06-01T08:11:19Z</time>
      </trkpt>
      <trkpt lat="43.16095" lon="5.8969">
        <ele>314.8</ele>
        <time>2022-06-01T08:11:21Z</time>
      </trkpt>
      <trkpt lat="43.16082" lon="5.89698">
        <ele>313.6</ele>
        <time>2022-06-01T08:11:23Z</time>
      </trkpt>
      <trkpt lat="43.16068" lon="5.89706">
        <ele>312.4</ele>
        <time>2022-06-01T08:11:25Z</time>
      </trkpt>
      <trkpt lat="43.16055" lon="5.89714">
        <ele>311</ele>
        <time>2022-06-01T08:11:27Z</time>
      </trkpt>
      <trkpt lat="43.16044" lon="5.89721">
        <ele>309.4</ele>
        <time>2022-06-01T08:11:29Z</time>
      </trkpt>
      <trkpt lat="43.16036" lon="5.89725">
        <ele>306.8</ele>
        <time>2022-06-01T08:11:31Z</time>
      </trkpt>
      <trkpt lat="43.16033" lon="5.89727">
        <ele>305.6</ele>
        <time>2022-06-01T08:11:32Z</time>
      </trkpt>
      <trkpt lat="43.1603" lon="5.8973">
        <ele>304.4</ele>
        <time>2022-06-01T08:11:34Z</time>
      </trkpt>
      <trkpt lat="43.16026" lon="5.89731">
        <ele>302.6</ele>
        <time>2022-06-01T08:11:36Z</time>
      </trkpt>
      <trkpt lat="43.16021" lon="5.89733">
        <ele>301.2</ele>
        <time>2022-06-01T08:11:38Z</time>
      </trkpt>
      <trkpt lat="43.16014" lon="5.89734">
        <ele>299.8</ele>
        <time>2022-06-01T08:11:40Z</time>
      </trkpt>
      <trkpt lat="43.16006" lon="5.89725">
        <ele>298.6</ele>
        <time>2022-06-01T08:11:43Z</time>
      </trkpt>
      <trkpt lat="43.16003" lon="5.89707">
        <ele>298.2</ele>
        <time>2022-06-01T08:11:46Z</time>
      </trkpt>
      <trkpt lat="43.15999" lon="5.89685">
        <ele>297.6</ele>
        <time>2022-06-01T08:11:49Z</time>
      </trkpt>
      <trkpt lat="43.15994" lon="5.89671">
        <ele>296.6</ele>
        <time>2022-06-01T08:11:51Z</time>
      </trkpt>
      <trkpt lat="43.15991" lon="5.89665">
        <ele>296.2</ele>
        <time>2022-06-01T08:11:52Z</time>
      </trkpt>
      <trkpt lat="43.15983" lon="5.89662">
        <ele>294.8</ele>
        <time>2022-06-01T08:11:54Z</time>
      </trkpt>
      <trkpt lat="43.15975" lon="5.89668">
        <ele>293.6</ele>
        <time>2022-06-01T08:11:56Z</time>
      </trkpt>
      <trkpt lat="43.15969" lon="5.89676">
        <ele>292.2</ele>
        <time>2022-06-01T08:11:58Z</time>
      </trkpt>
      <trkpt lat="43.15966" lon="5.8968">
        <ele>291.2</ele>
        <time>2022-06-01T08:11:59Z</time>
      </trkpt>
      <trkpt lat="43.15963" lon="5.89684">
        <ele>290</ele>
        <time>2022-06-01T08:12:00Z</time>
      </trkpt>
      <trkpt lat="43.15961" lon="5.89688">
        <ele>289</ele>
        <time>2022-06-01T08:12:01Z</time>
      </trkpt>
      <trkpt lat="43.15959" lon="5.8969">
        <ele>287.8</ele>
        <time>2022-06-01T08:12:02Z</time>
      </trkpt>
      <trkpt lat="43.15958" lon="5.89691">
        <ele>286.8</ele>
        <time>2022-06-01T08:12:03Z</time>
      </trkpt>
      <trkpt lat="43.15957" lon="5.89691">
        <ele>284.4</ele>
        <time>2022-06-01T08:12:04Z</time>
      </trkpt>
      <trkpt lat="43.15957" lon="5.89691">
        <ele>283</ele>
        <time>2022-06-01T08:12:05Z</time>
      </trkpt>
      <trkpt lat="43.15958" lon="5.89691">
        <ele>281.6</ele>
        <time>2022-06-01T08:12:06Z</time>
      </trkpt>
      <trkpt lat="43.15957" lon="5.89691">
        <ele>280.4</ele>
        <time>2022-06-01T08:12:07Z</time>
      </trkpt>
      <trkpt lat="43.15956" lon="5.8969">
        <ele>279.4</ele>
        <time>2022-06-01T08:12:08Z</time>
      </trkpt>
      <trkpt lat="43.15955" lon="5.89684">
        <ele>277.6</ele>
        <time>2022-06-01T08:12:10Z</time>
      </trkpt>
      <trkpt lat="43.15953" lon="5.89678">
        <ele>276.6</ele>
        <time>2022-06-01T08:12:12Z</time>
      </trkpt>
      <trkpt lat="43.15953" lon="5.89674">
        <ele>276.4</ele>
        <time>2022-06-01T08:12:13Z</time>
      </trkpt>
      <trkpt lat="43.15951" lon="5.89671">
        <ele>276.2</ele>
        <time>2022-06-01T08:12:14Z</time>
      </trkpt>
      <trkpt lat="43.15945" lon="5.89661">
        <ele>274.8</ele>
        <time>2022-06-01T08:12:18Z</time>
      </trkpt>
      <trkpt lat="43.15941" lon="5.89656">
        <ele>273.6</ele>
        <time>2022-06-01T08:12:20Z</time>
      </trkpt>
      <trkpt lat="43.15937" lon="5.8965">
        <ele>272.2</ele>
        <time>2022-06-01T08:12:23Z</time>
      </trkpt>
      <trkpt lat="43.15934" lon="5.89645">
        <ele>270.8</ele>
        <time>2022-06-01T08:12:25Z</time>
      </trkpt>
      <trkpt lat="43.15932" lon="5.89643">
        <ele>270.4</ele>
        <time>2022-06-01T08:12:26Z</time>
      </trkpt>
      <trkpt lat="43.1593" lon="5.8964">
        <ele>269.6</ele>
        <time>2022-06-01T08:12:27Z</time>
      </trkpt>
      <trkpt lat="43.1593" lon="5.89636">
        <ele>269</ele>
        <time>2022-06-01T08:12:28Z</time>
      </trkpt>
      <trkpt lat="43.1593" lon="5.89631">
        <ele>268.4</ele>
        <time>2022-06-01T08:12:29Z</time>
      </trkpt>
      <trkpt lat="43.1593" lon="5.89621">
        <ele>267.2</ele>
        <time>2022-06-01T08:12:31Z</time>
      </trkpt>
      <trkpt lat="43.15928" lon="5.89612">
        <ele>266.2</ele>
        <time>2022-06-01T08:12:33Z</time>
      </trkpt>
      <trkpt lat="43.15925" lon="5.89605">
        <ele>264.6</ele>
        <time>2022-06-01T08:12:35Z</time>
      </trkpt>
      <trkpt lat="43.1592" lon="5.89599">
        <ele>263.2</ele>
        <time>2022-06-01T08:12:37Z</time>
      </trkpt>
      <trkpt lat="43.15918" lon="5.89597">
        <ele>262.2</ele>
        <time>2022-06-01T08:12:38Z</time>
      </trkpt>
      <trkpt lat="43.15916" lon="5.89596">
        <ele>261.6</ele>
        <time>2022-06-01T08:12:39Z</time>
      </trkpt>
      <trkpt lat="43.15913" lon="5.89596">
        <ele>261</ele>
        <time>2022-06-01T08:12:40Z</time>
      </trkpt>
      <trkpt lat="43.15905" lon="5.89596">
        <ele>259.8</ele>
        <time>2022-06-01T08:12:42Z</time>
      </trkpt>
      <trkpt lat="43.15896" lon="5.89594">
        <ele>258.4</ele>
        <time>2022-06-01T08:12:44Z</time>
      </trkpt>
      <trkpt lat="43.15887" lon="5.89593">
        <ele>257.4</ele>
        <time>2022-06-01T08:12:46Z</time>
      </trkpt>
      <trkpt lat="43.15869" lon="5.89587">
        <ele>255.6</ele>
        <time>2022-06-01T08:12:50Z</time>
      </trkpt>
      <trkpt lat="43.15862" lon="5.89585">
        <ele>254.8</ele>
        <time>2022-06-01T08:12:52Z</time>
      </trkpt>
      <trkpt lat="43.15858" lon="5.89583">
        <ele>253.6</ele>
        <time>2022-06-01T08:12:55Z</time>
      </trkpt>
      <trkpt lat="43.15834" lon="5.89587">
        <ele>252.8</ele>
        <time>2022-06-01T08:13:02Z</time>
      </trkpt>
      <trkpt lat="43.1583" lon="5.89587">
        <ele>252.6</ele>
        <time>2022-06-01T08:13:03Z</time>
      </trkpt>
      <trkpt lat="43.15821" lon="5.89589">
        <ele>252.4</ele>
        <time>2022-06-01T08:13:05Z</time>
      </trkpt>
      <trkpt lat="43.15813" lon="5.8959">
        <ele>251.8</ele>
        <time>2022-06-01T08:13:07Z</time>
      </trkpt>
      <trkpt lat="43.1581" lon="5.8959">
        <ele>251.4</ele>
        <time>2022-06-01T08:13:08Z</time>
      </trkpt>
      <trkpt lat="43.15801" lon="5.89588">
        <ele>249.8</ele>
        <time>2022-06-01T08:13:10Z</time>
      </trkpt>
      <trkpt lat="43.1579" lon="5.89587">
        <ele>248.4</ele>
        <time>2022-06-01T08:13:12Z</time>
      </trkpt>
      <trkpt lat="43.15786" lon="5.89586">
        <ele>247</ele>
        <time>2022-06-01T08:13:13Z</time>
      </trkpt>
      <trkpt lat="43.15777" lon="5.89583">
        <ele>245.2</ele>
        <time>2022-06-01T08:13:15Z</time>
      </trkpt>
      <trkpt lat="43.15771" lon="5.89581">
        <ele>243.6</ele>
        <time>2022-06-01T08:13:17Z</time>
      </trkpt>
      <trkpt lat="43.15768" lon="5.89582">
        <ele>242.8</ele>
        <time>2022-06-01T08:13:18Z</time>
      </trkpt>
      <trkpt lat="43.15766" lon="5.89583">
        <ele>241.8</ele>
        <time>2022-06-01T08:13:19Z</time>
      </trkpt>
      <trkpt lat="43.15762" lon="5.89584">
        <ele>240.6</ele>
        <time>2022-06-01T08:13:21Z</time>
      </trkpt>
      <trkpt lat="43.15756" lon="5.89583">
        <ele>239.4</ele>
        <time>2022-06-01T08:13:23Z</time>
      </trkpt>
      <trkpt lat="43.15753" lon="5.89583">
        <ele>238</ele>
        <time>2022-06-01T08:13:25Z</time>
      </trkpt>
      <trkpt lat="43.15752" lon="5.89583">
        <ele>236.6</ele>
        <time>2022-06-01T08:13:27Z</time>
      </trkpt>
      <trkpt lat="43.15752" lon="5.89582">
        <ele>235</ele>
        <time>2022-06-01T08:13:29Z</time>
      </trkpt>
      <trkpt lat="43.15751" lon="5.89582">
        <ele>234.2</ele>
        <time>2022-06-01T08:13:31Z</time>
      </trkpt>
      <trkpt lat="43.15751" lon="5.89582">
        <ele>233</ele>
        <time>2022-06-01T08:13:33Z</time>
      </trkpt>
      <trkpt lat="43.15751" lon="5.89582">
        <ele>232.2</ele>
        <time>2022-06-01T08:13:41Z</time>
      </trkpt>
      <trkpt lat="43.15751" lon="5.89582">
        <ele>232.2</ele>
        <time>2022-06-01T08:13:56Z</time>
      </trkpt>
      <trkpt lat="43.15751" lon="5.89582">
        <ele>232.2</ele>
        <time>2022-06-01T08:14:02Z</time>
      </trkpt>
      <trkpt lat="43.1575" lon="5.89582">
        <ele>232</ele>
        <time>2022-06-01T08:14:13Z</time>
      </trkpt>
      <trkpt lat="43.15737" lon="5.89579">
        <ele>232</ele>
        <time>2022-06-01T08:14:18Z</time>
      </trkpt>
      <trkpt lat="43.15729" lon="5.89584">
        <ele>232</ele>
        <time>2022-06-01T08:14:21Z</time>
      </trkpt>
      <trkpt lat="43.15723" lon="5.89585">
        <ele>230.8</ele>
        <time>2022-06-01T08:14:23Z</time>
      </trkpt>
      <trkpt lat="43.15715" lon="5.89592">
        <ele>228.8</ele>
        <time>2022-06-01T08:14:26Z</time>
      </trkpt>
      <trkpt lat="43.15712" lon="5.89595">
        <ele>228.2</ele>
        <time>2022-06-01T08:14:27Z</time>
      </trkpt>
      <trkpt lat="43.15712" lon="5.89599">
        <ele>227.4</ele>
        <time>2022-06-01T08:14:28Z</time>
      </trkpt>
      <trkpt lat="43.15712" lon="5.89604">
        <ele>226.4</ele>
        <time>2022-06-01T08:14:29Z</time>
      </trkpt>
      <trkpt lat="43.15711" lon="5.89611">
        <ele>224.8</ele>
        <time>2022-06-01T08:14:31Z</time>
      </trkpt>
      <trkpt lat="43.15707" lon="5.89615">
        <ele>223.8</ele>
        <time>2022-06-01T08:14:33Z</time>
      </trkpt>
      <trkpt lat="43.15702" lon="5.89617">
        <ele>222.4</ele>
        <time>2022-06-01T08:14:35Z</time>
      </trkpt>
      <trkpt lat="43.15696" lon="5.89622">
        <ele>221</ele>
        <time>2022-06-01T08:14:37Z</time>
      </trkpt>
      <trkpt lat="43.15691" lon="5.89625">
        <ele>219.6</ele>
        <time>2022-06-01T08:14:39Z</time>
      </trkpt>
      <trkpt lat="43.15686" lon="5.89629">
        <ele>218.4</ele>
        <time>2022-06-01T08:14:41Z</time>
      </trkpt>
      <trkpt lat="43.15683" lon="5.89635">
        <ele>217.2</ele>
        <time>2022-06-01T08:14:43Z</time>
      </trkpt>
      <trkpt lat="43.15678" lon="5.89636">
        <ele>215.8</ele>
        <time>2022-06-01T08:14:45Z</time>
      </trkpt>
      <trkpt lat="43.15668" lon="5.89634">
        <ele>214.2</ele>
        <time>2022-06-01T08:14:48Z</time>
      </trkpt>
      <trkpt lat="43.15665" lon="5.89631">
        <ele>213.4</ele>
        <time>2022-06-01T08:14:49Z</time>
      </trkpt>
      <trkpt lat="43.15662" lon="5.89628">
        <ele>212.4</ele>
        <time>2022-06-01T08:14:50Z</time>
      </trkpt>
      <trkpt lat="43.15658" lon="5.89625">
        <ele>211.4</ele>
        <time>2022-06-01T08:14:52Z</time>
      </trkpt>
      <trkpt lat="43.15654" lon="5.89624">
        <ele>210.2</ele>
        <time>2022-06-01T08:14:54Z</time>
      </trkpt>
      <trkpt lat="43.15653" lon="5.89626">
        <ele>209</ele>
        <time>2022-06-01T08:14:56Z</time>
      </trkpt>
      <trkpt lat="43.15652" lon="5.89634">
        <ele>207.6</ele>
        <time>2022-06-01T08:14:59Z</time>
      </trkpt>
      <trkpt lat="43.15655" lon="5.89644">
        <ele>206.4</ele>
        <time>2022-06-01T08:15:03Z</time>
      </trkpt>
      <trkpt lat="43.15655" lon="5.89646">
        <ele>206</ele>
        <time>2022-06-01T08:15:04Z</time>
      </trkpt>
      <trkpt lat="43.15653" lon="5.89649">
        <ele>205.6</ele>
        <time>2022-06-01T08:15:06Z</time>
      </trkpt>
      <trkpt lat="43.15651" lon="5.89654">
        <ele>205.4</ele>
        <time>2022-06-01T08:15:09Z</time>
      </trkpt>
      <trkpt lat="43.15648" lon="5.89671">
        <ele>204.4</ele>
        <time>2022-06-01T08:15:15Z</time>
      </trkpt>
      <trkpt lat="43.15644" lon="5.89679">
        <ele>203.2</ele>
        <time>2022-06-01T08:15:18Z</time>
      </trkpt>
      <trkpt lat="43.15642" lon="5.89679">
        <ele>202.8</ele>
        <time>2022-06-01T08:15:20Z</time>
      </trkpt>
      <trkpt lat="43.1564" lon="5.89676">
        <ele>202.2</ele>
        <time>2022-06-01T08:15:22Z</time>
      </trkpt>
      <trkpt lat="43.15638" lon="5.89675">
        <ele>202</ele>
        <time>2022-06-01T08:15:23Z</time>
      </trkpt>
      <trkpt lat="43.15635" lon="5.89676">
        <ele>200.8</ele>
        <time>2022-06-01T08:15:25Z</time>
      </trkpt>
      <trkpt lat="43.15632" lon="5.89677">
        <ele>199.8</ele>
        <time>2022-06-01T08:15:27Z</time>
      </trkpt>
      <trkpt lat="43.15628" lon="5.89679">
        <ele>199</ele>
        <time>2022-06-01T08:15:29Z</time>
      </trkpt>
      <trkpt lat="43.15625" lon="5.89679">
        <ele>198.6</ele>
        <time>2022-06-01T08:15:31Z</time>
      </trkpt>
      <trkpt lat="43.15617" lon="5.89682">
        <ele>197.2</ele>
        <time>2022-06-01T08:15:35Z</time>
      </trkpt>
      <trkpt lat="43.15615" lon="5.89683">
        <ele>196.8</ele>
        <time>2022-06-01T08:15:36Z</time>
      </trkpt>
      <trkpt lat="43.15611" lon="5.89682">
        <ele>195.8</ele>
        <time>2022-06-01T08:15:38Z</time>
      </trkpt>
      <trkpt lat="43.15607" lon="5.8968">
        <ele>194.8</ele>
        <time>2022-06-01T08:15:40Z</time>
      </trkpt>
      <trkpt lat="43.15603" lon="5.89677">
        <ele>194.2</ele>
        <time>2022-06-01T08:15:42Z</time>
      </trkpt>
      <trkpt lat="43.15602" lon="5.89676">
        <ele>193.4</ele>
        <time>2022-06-01T08:15:43Z</time>
      </trkpt>
      <trkpt lat="43.15599" lon="5.89673">
        <ele>192.6</ele>
        <time>2022-06-01T08:15:45Z</time>
      </trkpt>
      <trkpt lat="43.156" lon="5.89672">
        <ele>192</ele>
        <time>2022-06-01T08:15:46Z</time>
      </trkpt>
      <trkpt lat="43.15603" lon="5.89665">
        <ele>190.6</ele>
        <time>2022-06-01T08:15:49Z</time>
      </trkpt>
      <trkpt lat="43.15603" lon="5.89662">
        <ele>190</ele>
        <time>2022-06-01T08:15:50Z</time>
      </trkpt>
      <trkpt lat="43.15607" lon="5.89653">
        <ele>189.6</ele>
        <time>2022-06-01T08:15:54Z</time>
      </trkpt>
      <trkpt lat="43.15617" lon="5.89627">
        <ele>190.4</ele>
        <time>2022-06-01T08:16:04Z</time>
      </trkpt>
      <trkpt lat="43.15618" lon="5.89624">
        <ele>190.8</ele>
        <time>2022-06-01T08:16:05Z</time>
      </trkpt>
      <trkpt lat="43.15623" lon="5.89612">
        <ele>192</ele>
        <time>2022-06-01T08:16:10Z</time>
      </trkpt>
      <trkpt lat="43.1563" lon="5.89599">
        <ele>193.2</ele>
        <time>2022-06-01T08:16:15Z</time>
      </trkpt>
      <trkpt lat="43.15637" lon="5.89585">
        <ele>194.4</ele>
        <time>2022-06-01T08:16:21Z</time>
      </trkpt>
      <trkpt lat="43.15644" lon="5.89573">
        <ele>195.4</ele>
        <time>2022-06-01T08:16:26Z</time>
      </trkpt>
      <trkpt lat="43.1565" lon="5.89564">
        <ele>196.6</ele>
        <time>2022-06-01T08:16:30Z</time>
      </trkpt>
      <trkpt lat="43.15657" lon="5.8955">
        <ele>197.6</ele>
        <time>2022-06-01T08:16:36Z</time>
      </trkpt>
      <trkpt lat="43.15663" lon="5.89542">
        <ele>198.8</ele>
        <time>2022-06-01T08:16:40Z</time>
      </trkpt>
      <trkpt lat="43.1567" lon="5.89532">
        <ele>199.8</ele>
        <time>2022-06-01T08:16:45Z</time>
      </trkpt>
      <trkpt lat="43.15679" lon="5.89522">
        <ele>201</ele>
        <time>2022-06-01T08:16:51Z</time>
      </trkpt>
      <trkpt lat="43.15687" lon="5.89514">
        <ele>202</ele>
        <time>2022-06-01T08:16:56Z</time>
      </trkpt>
      <trkpt lat="43.15696" lon="5.89505">
        <ele>203</ele>
        <time>2022-06-01T08:17:01Z</time>
      </trkpt>
      <trkpt lat="43.15702" lon="5.89497">
        <ele>204.2</ele>
        <time>2022-06-01T08:17:05Z</time>
      </trkpt>
      <trkpt lat="43.15704" lon="5.89489">
        <ele>204.6</ele>
        <time>2022-06-01T08:17:07Z</time>
      </trkpt>
      <trkpt lat="43.15702" lon="5.8948">
        <ele>205.6</ele>
        <time>2022-06-01T08:17:10Z</time>
      </trkpt>
      <trkpt lat="43.15696" lon="5.89478">
        <ele>207.2</ele>
        <time>2022-06-01T08:17:14Z</time>
      </trkpt>
      <trkpt lat="43.15694" lon="5.89478">
        <ele>207.4</ele>
        <time>2022-06-01T08:17:15Z</time>
      </trkpt>
      <trkpt lat="43.1569" lon="5.89478">
        <ele>208.4</ele>
        <time>2022-06-01T08:17:19Z</time>
      </trkpt>
      <trkpt lat="43.15681" lon="5.89475">
        <ele>209.2</ele>
        <time>2022-06-01T08:17:24Z</time>
      </trkpt>
      <trkpt lat="43.15669" lon="5.89467">
        <ele>210.4</ele>
        <time>2022-06-01T08:17:30Z</time>
      </trkpt>
      <trkpt lat="43.15658" lon="5.8946">
        <ele>211.4</ele>
        <time>2022-06-01T08:17:36Z</time>
      </trkpt>
      <trkpt lat="43.15645" lon="5.89448">
        <ele>212.6</ele>
        <time>2022-06-01T08:17:41Z</time>
      </trkpt>
      <trkpt lat="43.15634" lon="5.89437">
        <ele>213.6</ele>
        <time>2022-06-01T08:17:47Z</time>
      </trkpt>
      <trkpt lat="43.15625" lon="5.89427">
        <ele>214.8</ele>
        <time>2022-06-01T08:17:52Z</time>
      </trkpt>
      <trkpt lat="43.15616" lon="5.89417">
        <ele>215.8</ele>
        <time>2022-06-01T08:17:57Z</time>
      </trkpt>
      <trkpt lat="43.15607" lon="5.89402">
        <ele>217</ele>
        <time>2022-06-01T08:18:03Z</time>
      </trkpt>
      <trkpt lat="43.15604" lon="5.89388">
        <ele>218</ele>
        <time>2022-06-01T08:18:08Z</time>
      </trkpt>
      <trkpt lat="43.15603" lon="5.89373">
        <ele>219.2</ele>
        <time>2022-06-01T08:18:14Z</time>
      </trkpt>
      <trkpt lat="43.15604" lon="5.89358">
        <ele>220.2</ele>
        <time>2022-06-01T08:18:19Z</time>
      </trkpt>
      <trkpt lat="43.15605" lon="5.89346">
        <ele>221.2</ele>
        <time>2022-06-01T08:18:23Z</time>
      </trkpt>
      <trkpt lat="43.1561" lon="5.89332">
        <ele>222.2</ele>
        <time>2022-06-01T08:18:28Z</time>
      </trkpt>
      <trkpt lat="43.15614" lon="5.89322">
        <ele>223.4</ele>
        <time>2022-06-01T08:18:32Z</time>
      </trkpt>
      <trkpt lat="43.15617" lon="5.8931">
        <ele>224.4</ele>
        <time>2022-06-01T08:18:37Z</time>
      </trkpt>
      <trkpt lat="43.15622" lon="5.89298">
        <ele>225.8</ele>
        <time>2022-06-01T08:18:42Z</time>
      </trkpt>
      <trkpt lat="43.15628" lon="5.89283">
        <ele>226.8</ele>
        <time>2022-06-01T08:18:48Z</time>
      </trkpt>
      <trkpt lat="43.15632" lon="5.89272">
        <ele>227.8</ele>
        <time>2022-06-01T08:18:53Z</time>
      </trkpt>
      <trkpt lat="43.15636" lon="5.89261">
        <ele>229</ele>
        <time>2022-06-01T08:18:58Z</time>
      </trkpt>
      <trkpt lat="43.15641" lon="5.89248">
        <ele>230</ele>
        <time>2022-06-01T08:19:04Z</time>
      </trkpt>
      <trkpt lat="43.15646" lon="5.89237">
        <ele>231</ele>
        <time>2022-06-01T08:19:09Z</time>
      </trkpt>
      <trkpt lat="43.15647" lon="5.89234">
        <ele>231.2</ele>
        <time>2022-06-01T08:19:10Z</time>
      </trkpt>
      <trkpt lat="43.1565" lon="5.89225">
        <ele>232.2</ele>
        <time>2022-06-01T08:19:14Z</time>
      </trkpt>
      <trkpt lat="43.15654" lon="5.89218">
        <ele>233</ele>
        <time>2022-06-01T08:19:17Z</time>
      </trkpt>
      <trkpt lat="43.15655" lon="5.89216">
        <ele>233.2</ele>
        <time>2022-06-01T08:19:18Z</time>
      </trkpt>
      <trkpt lat="43.15661" lon="5.892">
        <ele>234.2</ele>
        <time>2022-06-01T08:19:24Z</time>
      </trkpt>
      <trkpt lat="43.15668" lon="5.89187">
        <ele>235.6</ele>
        <time>2022-06-01T08:19:30Z</time>
      </trkpt>
      <trkpt lat="43.15674" lon="5.89177">
        <ele>236.6</ele>
        <time>2022-06-01T08:19:35Z</time>
      </trkpt>
      <trkpt lat="43.1568" lon="5.89163">
        <ele>238</ele>
        <time>2022-06-01T08:19:41Z</time>
      </trkpt>
      <trkpt lat="43.15686" lon="5.89153">
        <ele>239</ele>
        <time>2022-06-01T08:19:46Z</time>
      </trkpt>
      <trkpt lat="43.15694" lon="5.89142">
        <ele>240.2</ele>
        <time>2022-06-01T08:19:52Z</time>
      </trkpt>
      <trkpt lat="43.15701" lon="5.89132">
        <ele>241.2</ele>
        <time>2022-06-01T08:19:57Z</time>
      </trkpt>
      <trkpt lat="43.15703" lon="5.89117">
        <ele>242.2</ele>
        <time>2022-06-01T08:20:02Z</time>
      </trkpt>
      <trkpt lat="43.15702" lon="5.89113">
        <ele>242.4</ele>
        <time>2022-06-01T08:20:03Z</time>
      </trkpt>
      <trkpt lat="43.15693" lon="5.89103">
        <ele>243.4</ele>
        <time>2022-06-01T08:20:08Z</time>
      </trkpt>
      <trkpt lat="43.15691" lon="5.891">
        <ele>243.6</ele>
        <time>2022-06-01T08:20:09Z</time>
      </trkpt>
      <trkpt lat="43.1567" lon="5.89085">
        <ele>244.2</ele>
        <time>2022-06-01T08:20:17Z</time>
      </trkpt>
      <trkpt lat="43.15626" lon="5.89073">
        <ele>245.2</ele>
        <time>2022-06-01T08:20:33Z</time>
      </trkpt>
      <trkpt lat="43.15604" lon="5.89068">
        <ele>246.4</ele>
        <time>2022-06-01T08:20:41Z</time>
      </trkpt>
      <trkpt lat="43.15591" lon="5.89066">
        <ele>247.4</ele>
        <time>2022-06-01T08:20:46Z</time>
      </trkpt>
      <trkpt lat="43.15578" lon="5.89064">
        <ele>248.4</ele>
        <time>2022-06-01T08:20:51Z</time>
      </trkpt>
      <trkpt lat="43.15567" lon="5.89063">
        <ele>249.4</ele>
        <time>2022-06-01T08:20:55Z</time>
      </trkpt>
      <trkpt lat="43.15557" lon="5.89061">
        <ele>250.6</ele>
        <time>2022-06-01T08:20:59Z</time>
      </trkpt>
      <trkpt lat="43.1555" lon="5.89054">
        <ele>251.8</ele>
        <time>2022-06-01T08:21:03Z</time>
      </trkpt>
      <trkpt lat="43.15545" lon="5.89038">
        <ele>253</ele>
        <time>2022-06-01T08:21:08Z</time>
      </trkpt>
      <trkpt lat="43.15545" lon="5.89025">
        <ele>254.2</ele>
        <time>2022-06-01T08:21:12Z</time>
      </trkpt>
      <trkpt lat="43.15546" lon="5.89011">
        <ele>255.4</ele>
        <time>2022-06-01T08:21:16Z</time>
      </trkpt>
      <trkpt lat="43.15547" lon="5.88998">
        <ele>256.6</ele>
        <time>2022-06-01T08:21:20Z</time>
      </trkpt>
      <trkpt lat="43.15549" lon="5.88986">
        <ele>257.6</ele>
        <time>2022-06-01T08:21:24Z</time>
      </trkpt>
      <trkpt lat="43.15549" lon="5.8897">
        <ele>258.8</ele>
        <time>2022-06-01T08:21:29Z</time>
      </trkpt>
      <trkpt lat="43.15549" lon="5.88954">
        <ele>260</ele>
        <time>2022-06-01T08:21:34Z</time>
      </trkpt>
      <trkpt lat="43.15545" lon="5.88938">
        <ele>261</ele>
        <time>2022-06-01T08:21:39Z</time>
      </trkpt>
      <trkpt lat="43.15539" lon="5.88914">
        <ele>262.2</ele>
        <time>2022-06-01T08:21:46Z</time>
      </trkpt>
      <trkpt lat="43.1553" lon="5.88889">
        <ele>263.2</ele>
        <time>2022-06-01T08:21:54Z</time>
      </trkpt>
      <trkpt lat="43.15519" lon="5.88866">
        <ele>264.2</ele>
        <time>2022-06-01T08:22:02Z</time>
      </trkpt>
      <trkpt lat="43.15509" lon="5.88852">
        <ele>265.4</ele>
        <time>2022-06-01T08:22:08Z</time>
      </trkpt>
      <trkpt lat="43.15503" lon="5.88843">
        <ele>266.6</ele>
        <time>2022-06-01T08:22:12Z</time>
      </trkpt>
      <trkpt lat="43.15494" lon="5.88833">
        <ele>267.8</ele>
        <time>2022-06-01T08:22:17Z</time>
      </trkpt>
      <trkpt lat="43.15484" lon="5.88823">
        <ele>269.2</ele>
        <time>2022-06-01T08:22:22Z</time>
      </trkpt>
      <trkpt lat="43.15475" lon="5.88813">
        <ele>270.4</ele>
        <time>2022-06-01T08:22:27Z</time>
      </trkpt>
      <trkpt lat="43.15463" lon="5.88801">
        <ele>271.6</ele>
        <time>2022-06-01T08:22:33Z</time>
      </trkpt>
      <trkpt lat="43.15453" lon="5.88788">
        <ele>272.8</ele>
        <time>2022-06-01T08:22:39Z</time>
      </trkpt>
      <trkpt lat="43.15445" lon="5.88772">
        <ele>274</ele>
        <time>2022-06-01T08:22:45Z</time>
      </trkpt>
      <trkpt lat="43.1544" lon="5.88757">
        <ele>275</ele>
        <time>2022-06-01T08:22:50Z</time>
      </trkpt>
      <trkpt lat="43.15442" lon="5.88736">
        <ele>276</ele>
        <time>2022-06-01T08:22:56Z</time>
      </trkpt>
      <trkpt lat="43.15456" lon="5.88731">
        <ele>277.2</ele>
        <time>2022-06-01T08:23:03Z</time>
      </trkpt>
      <trkpt lat="43.15456" lon="5.88732">
        <ele>277.8</ele>
        <time>2022-06-01T08:23:13Z</time>
      </trkpt>
      <trkpt lat="43.15456" lon="5.88732">
        <ele>278</ele>
        <time>2022-06-01T08:23:29Z</time>
      </trkpt>
      <trkpt lat="43.15456" lon="5.88732">
        <ele>278</ele>
        <time>2022-06-01T08:23:38Z</time>
      </trkpt>
      <trkpt lat="43.15484" lon="5.88721">
        <ele>278.4</ele>
        <time>2022-06-01T08:23:53Z</time>
      </trkpt>
      <trkpt lat="43.15502" lon="5.88714">
        <ele>279.6</ele>
        <time>2022-06-01T08:24:00Z</time>
      </trkpt>
      <trkpt lat="43.15515" lon="5.88709">
        <ele>280.6</ele>
        <time>2022-06-01T08:24:05Z</time>
      </trkpt>
      <trkpt lat="43.15526" lon="5.88705">
        <ele>281.6</ele>
        <time>2022-06-01T08:24:10Z</time>
      </trkpt>
      <trkpt lat="43.1554" lon="5.88701">
        <ele>282.8</ele>
        <time>2022-06-01T08:24:16Z</time>
      </trkpt>
      <trkpt lat="43.15554" lon="5.88694">
        <ele>283.8</ele>
        <time>2022-06-01T08:24:22Z</time>
      </trkpt>
      <trkpt lat="43.15556" lon="5.88693">
        <ele>284</ele>
        <time>2022-06-01T08:24:23Z</time>
      </trkpt>
      <trkpt lat="43.15558" lon="5.88692">
        <ele>284.4</ele>
        <time>2022-06-01T08:24:24Z</time>
      </trkpt>
      <trkpt lat="43.15565" lon="5.88689">
        <ele>285</ele>
        <time>2022-06-01T08:24:27Z</time>
      </trkpt>
      <trkpt lat="43.15578" lon="5.88677">
        <ele>286.2</ele>
        <time>2022-06-01T08:24:34Z</time>
      </trkpt>
      <trkpt lat="43.15588" lon="5.88665">
        <ele>287.4</ele>
        <time>2022-06-01T08:24:40Z</time>
      </trkpt>
      <trkpt lat="43.15599" lon="5.88655">
        <ele>288.6</ele>
        <time>2022-06-01T08:24:46Z</time>
      </trkpt>
      <trkpt lat="43.15611" lon="5.88647">
        <ele>289.8</ele>
        <time>2022-06-01T08:24:52Z</time>
      </trkpt>
      <trkpt lat="43.15622" lon="5.88642">
        <ele>291</ele>
        <time>2022-06-01T08:24:57Z</time>
      </trkpt>
      <trkpt lat="43.15633" lon="5.88639">
        <ele>292.2</ele>
        <time>2022-06-01T08:25:02Z</time>
      </trkpt>
      <trkpt lat="43.15643" lon="5.88635">
        <ele>293.4</ele>
        <time>2022-06-01T08:25:07Z</time>
      </trkpt>
      <trkpt lat="43.15656" lon="5.88629">
        <ele>295</ele>
        <time>2022-06-01T08:25:14Z</time>
      </trkpt>
      <trkpt lat="43.15666" lon="5.88627">
        <ele>296</ele>
        <time>2022-06-01T08:25:19Z</time>
      </trkpt>
      <trkpt lat="43.15679" lon="5.88624">
        <ele>297.2</ele>
        <time>2022-06-01T08:25:25Z</time>
      </trkpt>
      <trkpt lat="43.15693" lon="5.88624">
        <ele>298.2</ele>
        <time>2022-06-01T08:25:31Z</time>
      </trkpt>
      <trkpt lat="43.15703" lon="5.88626">
        <ele>299.4</ele>
        <time>2022-06-01T08:25:36Z</time>
      </trkpt>
      <trkpt lat="43.15714" lon="5.88629">
        <ele>300.4</ele>
        <time>2022-06-01T08:25:41Z</time>
      </trkpt>
      <trkpt lat="43.15726" lon="5.88634">
        <ele>301.6</ele>
        <time>2022-06-01T08:25:47Z</time>
      </trkpt>
      <trkpt lat="43.15735" lon="5.88641">
        <ele>302.8</ele>
        <time>2022-06-01T08:25:52Z</time>
      </trkpt>
      <trkpt lat="43.15747" lon="5.88648">
        <ele>303.8</ele>
        <time>2022-06-01T08:25:58Z</time>
      </trkpt>
      <trkpt lat="43.15752" lon="5.88652">
        <ele>304.6</ele>
        <time>2022-06-01T08:26:01Z</time>
      </trkpt>
      <trkpt lat="43.15756" lon="5.88654">
        <ele>305</ele>
        <time>2022-06-01T08:26:03Z</time>
      </trkpt>
      <trkpt lat="43.15768" lon="5.88663">
        <ele>306.2</ele>
        <time>2022-06-01T08:26:09Z</time>
      </trkpt>
      <trkpt lat="43.1578" lon="5.88668">
        <ele>307.4</ele>
        <time>2022-06-01T08:26:15Z</time>
      </trkpt>
      <trkpt lat="43.15792" lon="5.88676">
        <ele>308.4</ele>
        <time>2022-06-01T08:26:21Z</time>
      </trkpt>
      <trkpt lat="43.15801" lon="5.88682">
        <ele>309.6</ele>
        <time>2022-06-01T08:26:26Z</time>
      </trkpt>
      <trkpt lat="43.1581" lon="5.88688">
        <ele>310.8</ele>
        <time>2022-06-01T08:26:31Z</time>
      </trkpt>
      <trkpt lat="43.15819" lon="5.88696">
        <ele>311.8</ele>
        <time>2022-06-01T08:26:36Z</time>
      </trkpt>
      <trkpt lat="43.15826" lon="5.88702">
        <ele>313</ele>
        <time>2022-06-01T08:26:40Z</time>
      </trkpt>
      <trkpt lat="43.15835" lon="5.8871">
        <ele>314</ele>
        <time>2022-06-01T08:26:45Z</time>
      </trkpt>
      <trkpt lat="43.15849" lon="5.88716">
        <ele>315.4</ele>
        <time>2022-06-01T08:26:52Z</time>
      </trkpt>
      <trkpt lat="43.15862" lon="5.88718">
        <ele>316.8</ele>
        <time>2022-06-01T08:26:58Z</time>
      </trkpt>
      <trkpt lat="43.15872" lon="5.88719">
        <ele>318</ele>
        <time>2022-06-01T08:27:03Z</time>
      </trkpt>
      <trkpt lat="43.15885" lon="5.88718">
        <ele>319.2</ele>
        <time>2022-06-01T08:27:09Z</time>
      </trkpt>
      <trkpt lat="43.15898" lon="5.8872">
        <ele>320.2</ele>
        <time>2022-06-01T08:27:15Z</time>
      </trkpt>
      <trkpt lat="43.15909" lon="5.88724">
        <ele>321.2</ele>
        <time>2022-06-01T08:27:20Z</time>
      </trkpt>
      <trkpt lat="43.15919" lon="5.88728">
        <ele>322.4</ele>
        <time>2022-06-01T08:27:25Z</time>
      </trkpt>
      <trkpt lat="43.15934" lon="5.88731">
        <ele>323.8</ele>
        <time>2022-06-01T08:27:32Z</time>
      </trkpt>
      <trkpt lat="43.15948" lon="5.88729">
        <ele>325</ele>
        <time>2022-06-01T08:27:38Z</time>
      </trkpt>
      <trkpt lat="43.15959" lon="5.88728">
        <ele>326</ele>
        <time>2022-06-01T08:27:43Z</time>
      </trkpt>
      <trkpt lat="43.1597" lon="5.88729">
        <ele>327</ele>
        <time>2022-06-01T08:27:48Z</time>
      </trkpt>
      <trkpt lat="43.15982" lon="5.88726">
        <ele>328.2</ele>
        <time>2022-06-01T08:27:53Z</time>
      </trkpt>
      <trkpt lat="43.15991" lon="5.88722">
        <ele>329.2</ele>
        <time>2022-06-01T08:27:57Z</time>
      </trkpt>
      <trkpt lat="43.16003" lon="5.88713">
        <ele>330.2</ele>
        <time>2022-06-01T08:28:03Z</time>
      </trkpt>
      <trkpt lat="43.16013" lon="5.88708">
        <ele>331.2</ele>
        <time>2022-06-01T08:28:07Z</time>
      </trkpt>
      <trkpt lat="43.16024" lon="5.88694">
        <ele>332.6</ele>
        <time>2022-06-01T08:28:13Z</time>
      </trkpt>
      <trkpt lat="43.16027" lon="5.88672">
        <ele>333.6</ele>
        <time>2022-06-01T08:28:19Z</time>
      </trkpt>
      <trkpt lat="43.16016" lon="5.88635">
        <ele>334.6</ele>
        <time>2022-06-01T08:28:28Z</time>
      </trkpt>
      <trkpt lat="43.15992" lon="5.88613">
        <ele>335.8</ele>
        <time>2022-06-01T08:28:38Z</time>
      </trkpt>
      <trkpt lat="43.15987" lon="5.88594">
        <ele>337</ele>
        <time>2022-06-01T08:28:43Z</time>
      </trkpt>
      <trkpt lat="43.1597" lon="5.88575">
        <ele>338</ele>
        <time>2022-06-01T08:28:51Z</time>
      </trkpt>
      <trkpt lat="43.15954" lon="5.88572">
        <ele>339</ele>
        <time>2022-06-01T08:28:57Z</time>
      </trkpt>
      <trkpt lat="43.15941" lon="5.88565">
        <ele>340.2</ele>
        <time>2022-06-01T08:29:03Z</time>
      </trkpt>
      <trkpt lat="43.15929" lon="5.88554">
        <ele>341.2</ele>
        <time>2022-06-01T08:29:09Z</time>
      </trkpt>
      <trkpt lat="43.15924" lon="5.88537">
        <ele>343</ele>
        <time>2022-06-01T08:29:15Z</time>
      </trkpt>
      <trkpt lat="43.1592" lon="5.88524">
        <ele>344.2</ele>
        <time>2022-06-01T08:29:20Z</time>
      </trkpt>
      <trkpt lat="43.15918" lon="5.88506">
        <ele>345.2</ele>
        <time>2022-06-01T08:29:26Z</time>
      </trkpt>
      <trkpt lat="43.15919" lon="5.88497">
        <ele>346</ele>
        <time>2022-06-01T08:29:29Z</time>
      </trkpt>
      <trkpt lat="43.1592" lon="5.88494">
        <ele>346.2</ele>
        <time>2022-06-01T08:29:30Z</time>
      </trkpt>
      <trkpt lat="43.15926" lon="5.88479">
        <ele>347.4</ele>
        <time>2022-06-01T08:29:36Z</time>
      </trkpt>
      <trkpt lat="43.15932" lon="5.88464">
        <ele>348.6</ele>
        <time>2022-06-01T08:29:42Z</time>
      </trkpt>
      <trkpt lat="43.15935" lon="5.88447">
        <ele>349.6</ele>
        <time>2022-06-01T08:29:48Z</time>
      </trkpt>
      <trkpt lat="43.15933" lon="5.88436">
        <ele>350.6</ele>
        <time>2022-06-01T08:29:52Z</time>
      </trkpt>
      <trkpt lat="43.15926" lon="5.88422">
        <ele>351.8</ele>
        <time>2022-06-01T08:29:58Z</time>
      </trkpt>
      <trkpt lat="43.15916" lon="5.88411">
        <ele>352.8</ele>
        <time>2022-06-01T08:30:04Z</time>
      </trkpt>
      <trkpt lat="43.15911" lon="5.884">
        <ele>353.8</ele>
        <time>2022-06-01T08:30:09Z</time>
      </trkpt>
      <trkpt lat="43.15912" lon="5.88384">
        <ele>355</ele>
        <time>2022-06-01T08:30:15Z</time>
      </trkpt>
      <trkpt lat="43.15917" lon="5.88371">
        <ele>356</ele>
        <time>2022-06-01T08:30:20Z</time>
      </trkpt>
      <trkpt lat="43.15922" lon="5.88361">
        <ele>357.2</ele>
        <time>2022-06-01T08:30:24Z</time>
      </trkpt>
      <trkpt lat="43.15927" lon="5.88346">
        <ele>358.4</ele>
        <time>2022-06-01T08:30:30Z</time>
      </trkpt>
      <trkpt lat="43.15933" lon="5.88332">
        <ele>359.4</ele>
        <time>2022-06-01T08:30:36Z</time>
      </trkpt>
      <trkpt lat="43.15936" lon="5.88319">
        <ele>360.4</ele>
        <time>2022-06-01T08:30:41Z</time>
      </trkpt>
      <trkpt lat="43.15937" lon="5.88301">
        <ele>361.6</ele>
        <time>2022-06-01T08:30:47Z</time>
      </trkpt>
      <trkpt lat="43.15935" lon="5.8828">
        <ele>362.8</ele>
        <time>2022-06-01T08:30:54Z</time>
      </trkpt>
      <trkpt lat="43.15934" lon="5.88268">
        <ele>364.2</ele>
        <time>2022-06-01T08:30:58Z</time>
      </trkpt>
      <trkpt lat="43.15928" lon="5.88255">
        <ele>365.4</ele>
        <time>2022-06-01T08:31:03Z</time>
      </trkpt>
      <trkpt lat="43.15921" lon="5.88241">
        <ele>366.4</ele>
        <time>2022-06-01T08:31:09Z</time>
      </trkpt>
      <trkpt lat="43.1592" lon="5.88222">
        <ele>367.4</ele>
        <time>2022-06-01T08:31:15Z</time>
      </trkpt>
      <trkpt lat="43.15924" lon="5.88208">
        <ele>368.4</ele>
        <time>2022-06-01T08:31:20Z</time>
      </trkpt>
      <trkpt lat="43.15928" lon="5.8819">
        <ele>369.8</ele>
        <time>2022-06-01T08:31:27Z</time>
      </trkpt>
      <trkpt lat="43.15929" lon="5.88173">
        <ele>371.2</ele>
        <time>2022-06-01T08:31:33Z</time>
      </trkpt>
      <trkpt lat="43.15924" lon="5.88153">
        <ele>372.4</ele>
        <time>2022-06-01T08:31:40Z</time>
      </trkpt>
      <trkpt lat="43.15918" lon="5.88141">
        <ele>373.4</ele>
        <time>2022-06-01T08:31:45Z</time>
      </trkpt>
      <trkpt lat="43.15912" lon="5.88125">
        <ele>374.4</ele>
        <time>2022-06-01T08:31:51Z</time>
      </trkpt>
      <trkpt lat="43.15915" lon="5.8811">
        <ele>375.6</ele>
        <time>2022-06-01T08:31:56Z</time>
      </trkpt>
      <trkpt lat="43.15919" lon="5.88094">
        <ele>376.8</ele>
        <time>2022-06-01T08:32:01Z</time>
      </trkpt>
      <trkpt lat="43.1592" lon="5.88075">
        <ele>378.2</ele>
        <time>2022-06-01T08:32:07Z</time>
      </trkpt>
      <trkpt lat="43.15918" lon="5.88063">
        <ele>379.2</ele>
        <time>2022-06-01T08:32:11Z</time>
      </trkpt>
      <trkpt lat="43.15913" lon="5.88047">
        <ele>380.4</ele>
        <time>2022-06-01T08:32:17Z</time>
      </trkpt>
      <trkpt lat="43.15907" lon="5.8803">
        <ele>381.4</ele>
        <time>2022-06-01T08:32:23Z</time>
      </trkpt>
      <trkpt lat="43.15903" lon="5.88022">
        <ele>382</ele>
        <time>2022-06-01T08:32:26Z</time>
      </trkpt>
      <trkpt lat="43.15898" lon="5.88014">
        <ele>382.6</ele>
        <time>2022-06-01T08:32:29Z</time>
      </trkpt>
      <trkpt lat="43.15884" lon="5.88001">
        <ele>383.8</ele>
        <time>2022-06-01T08:32:35Z</time>
      </trkpt>
      <trkpt lat="43.15868" lon="5.87996">
        <ele>384.8</ele>
        <time>2022-06-01T08:32:41Z</time>
      </trkpt>
      <trkpt lat="43.15854" lon="5.87994">
        <ele>385.8</ele>
        <time>2022-06-01T08:32:49Z</time>
      </trkpt>
      <trkpt lat="43.15854" lon="5.87994">
        <ele>386.4</ele>
        <time>2022-06-01T08:32:57Z</time>
      </trkpt>
      <trkpt lat="43.15854" lon="5.87994">
        <ele>386.4</ele>
        <time>2022-06-01T08:33:05Z</time>
      </trkpt>
      <trkpt lat="43.15854" lon="5.87994">
        <ele>386.4</ele>
        <time>2022-06-01T08:33:21Z</time>
      </trkpt>
      <trkpt lat="43.15831" lon="5.87994">
        <ele>386.4</ele>
        <time>2022-06-01T08:33:32Z</time>
      </trkpt>
      <trkpt lat="43.15824" lon="5.87994">
        <ele>386.8</ele>
        <time>2022-06-01T08:33:35Z</time>
      </trkpt>
      <trkpt lat="43.1582" lon="5.87993">
        <ele>387.2</ele>
        <time>2022-06-01T08:33:37Z</time>
      </trkpt>
      <trkpt lat="43.15806" lon="5.87989">
        <ele>388.2</ele>
        <time>2022-06-01T08:33:44Z</time>
      </trkpt>
      <trkpt lat="43.15791" lon="5.87984">
        <ele>389.4</ele>
        <time>2022-06-01T08:33:51Z</time>
      </trkpt>
      <trkpt lat="43.1578" lon="5.87982">
        <ele>390.4</ele>
        <time>2022-06-01T08:33:56Z</time>
      </trkpt>
      <trkpt lat="43.15771" lon="5.87981">
        <ele>391.2</ele>
        <time>2022-06-01T08:34:00Z</time>
      </trkpt>
      <trkpt lat="43.15769" lon="5.87981">
        <ele>391.4</ele>
        <time>2022-06-01T08:34:01Z</time>
      </trkpt>
      <trkpt lat="43.15758" lon="5.87981">
        <ele>392.6</ele>
        <time>2022-06-01T08:34:06Z</time>
      </trkpt>
      <trkpt lat="43.15755" lon="5.87982">
        <ele>393</ele>
        <time>2022-06-01T08:34:07Z</time>
      </trkpt>
      <trkpt lat="43.15744" lon="5.87984">
        <ele>394</ele>
        <time>2022-06-01T08:34:12Z</time>
      </trkpt>
      <trkpt lat="43.15733" lon="5.87986">
        <ele>395.2</ele>
        <time>2022-06-01T08:34:17Z</time>
      </trkpt>
      <trkpt lat="43.1572" lon="5.87989">
        <ele>396.2</ele>
        <time>2022-06-01T08:34:23Z</time>
      </trkpt>
      <trkpt lat="43.15708" lon="5.87992">
        <ele>397.4</ele>
        <time>2022-06-01T08:34:28Z</time>
      </trkpt>
      <trkpt lat="43.15697" lon="5.87996">
        <ele>398.6</ele>
        <time>2022-06-01T08:34:33Z</time>
      </trkpt>
      <trkpt lat="43.15686" lon="5.87999">
        <ele>399.6</ele>
        <time>2022-06-01T08:34:38Z</time>
      </trkpt>
      <trkpt lat="43.15673" lon="5.88001">
        <ele>400.8</ele>
        <time>2022-06-01T08:34:44Z</time>
      </trkpt>
      <trkpt lat="43.15662" lon="5.88001">
        <ele>402</ele>
        <time>2022-06-01T08:34:49Z</time>
      </trkpt>
      <trkpt lat="43.15651" lon="5.87997">
        <ele>403</ele>
        <time>2022-06-01T08:34:54Z</time>
      </trkpt>
      <trkpt lat="43.15641" lon="5.87989">
        <ele>404.2</ele>
        <time>2022-06-01T08:35:00Z</time>
      </trkpt>
      <trkpt lat="43.15638" lon="5.87985">
        <ele>405</ele>
        <time>2022-06-01T08:35:02Z</time>
      </trkpt>
      <trkpt lat="43.15638" lon="5.87979">
        <ele>405.2</ele>
        <time>2022-06-01T08:35:04Z</time>
      </trkpt>
      <trkpt lat="43.15636" lon="5.87971">
        <ele>406</ele>
        <time>2022-06-01T08:35:07Z</time>
      </trkpt>
      <trkpt lat="43.15634" lon="5.87959">
        <ele>406.4</ele>
        <time>2022-06-01T08:35:11Z</time>
      </trkpt>
      <trkpt lat="43.15638" lon="5.87941">
        <ele>407.4</ele>
        <time>2022-06-01T08:35:18Z</time>
      </trkpt>
      <trkpt lat="43.15642" lon="5.87928">
        <ele>408.4</ele>
        <time>2022-06-01T08:35:23Z</time>
      </trkpt>
      <trkpt lat="43.15649" lon="5.87911">
        <ele>409.6</ele>
        <time>2022-06-01T08:35:30Z</time>
      </trkpt>
      <trkpt lat="43.1565" lon="5.87909">
        <ele>409.8</ele>
        <time>2022-06-01T08:35:31Z</time>
      </trkpt>
      <trkpt lat="43.15656" lon="5.87901">
        <ele>410.8</ele>
        <time>2022-06-01T08:35:35Z</time>
      </trkpt>
      <trkpt lat="43.15661" lon="5.87896">
        <ele>411.2</ele>
        <time>2022-06-01T08:35:38Z</time>
      </trkpt>
      <trkpt lat="43.15665" lon="5.87892">
        <ele>412</ele>
        <time>2022-06-01T08:35:41Z</time>
      </trkpt>
      <trkpt lat="43.15673" lon="5.87886">
        <ele>413</ele>
        <time>2022-06-01T08:35:45Z</time>
      </trkpt>
      <trkpt lat="43.15682" lon="5.87878">
        <ele>414.2</ele>
        <time>2022-06-01T08:35:51Z</time>
      </trkpt>
      <trkpt lat="43.15691" lon="5.87868">
        <ele>415.2</ele>
        <time>2022-06-01T08:35:56Z</time>
      </trkpt>
      <trkpt lat="43.15698" lon="5.87863">
        <ele>416.2</ele>
        <time>2022-06-01T08:36:00Z</time>
      </trkpt>
      <trkpt lat="43.15706" lon="5.87857">
        <ele>417.2</ele>
        <time>2022-06-01T08:36:05Z</time>
      </trkpt>
      <trkpt lat="43.15714" lon="5.87854">
        <ele>418.4</ele>
        <time>2022-06-01T08:36:09Z</time>
      </trkpt>
      <trkpt lat="43.15723" lon="5.87849">
        <ele>419.4</ele>
        <time>2022-06-01T08:36:14Z</time>
      </trkpt>
      <trkpt lat="43.15732" lon="5.87844">
        <ele>420.6</ele>
        <time>2022-06-01T08:36:19Z</time>
      </trkpt>
      <trkpt lat="43.15746" lon="5.87842">
        <ele>422</ele>
        <time>2022-06-01T08:36:26Z</time>
      </trkpt>
      <trkpt lat="43.15759" lon="5.87842">
        <ele>423</ele>
        <time>2022-06-01T08:36:32Z</time>
      </trkpt>
      <trkpt lat="43.15773" lon="5.87842">
        <ele>424.2</ele>
        <time>2022-06-01T08:36:38Z</time>
      </trkpt>
      <trkpt lat="43.15783" lon="5.87844">
        <ele>425.2</ele>
        <time>2022-06-01T08:36:43Z</time>
      </trkpt>
      <trkpt lat="43.15797" lon="5.87846">
        <ele>426.4</ele>
        <time>2022-06-01T08:36:49Z</time>
      </trkpt>
      <trkpt lat="43.15808" lon="5.87847">
        <ele>427.2</ele>
        <time>2022-06-01T08:36:54Z</time>
      </trkpt>
      <trkpt lat="43.1582" lon="5.87852">
        <ele>428.6</ele>
        <time>2022-06-01T08:37:00Z</time>
      </trkpt>
      <trkpt lat="43.15828" lon="5.87857">
        <ele>429.6</ele>
        <time>2022-06-01T08:37:04Z</time>
      </trkpt>
      <trkpt lat="43.15843" lon="5.87867">
        <ele>430.8</ele>
        <time>2022-06-01T08:37:11Z</time>
      </trkpt>
      <trkpt lat="43.15855" lon="5.87871">
        <ele>432</ele>
        <time>2022-06-01T08:37:17Z</time>
      </trkpt>
      <trkpt lat="43.15862" lon="5.87872">
        <ele>433.2</ele>
        <time>2022-06-01T08:37:20Z</time>
      </trkpt>
      <trkpt lat="43.15875" lon="5.87875">
        <ele>434</ele>
        <time>2022-06-01T08:37:26Z</time>
      </trkpt>
      <trkpt lat="43.15881" lon="5.87877">
        <ele>435.2</ele>
        <time>2022-06-01T08:37:29Z</time>
      </trkpt>
      <trkpt lat="43.15892" lon="5.87879">
        <ele>436.2</ele>
        <time>2022-06-01T08:37:34Z</time>
      </trkpt>
      <trkpt lat="43.15902" lon="5.87878">
        <ele>437.4</ele>
        <time>2022-06-01T08:37:39Z</time>
      </trkpt>
      <trkpt lat="43.15919" lon="5.87877">
        <ele>438.6</ele>
        <time>2022-06-01T08:37:47Z</time>
      </trkpt>
      <trkpt lat="43.15929" lon="5.87872">
        <ele>439.8</ele>
        <time>2022-06-01T08:37:52Z</time>
      </trkpt>
      <trkpt lat="43.1594" lon="5.87864">
        <ele>441</ele>
        <time>2022-06-01T08:37:58Z</time>
      </trkpt>
      <trkpt lat="43.15949" lon="5.87856">
        <ele>442</ele>
        <time>2022-06-01T08:38:04Z</time>
      </trkpt>
      <trkpt lat="43.15956" lon="5.87849">
        <ele>443.2</ele>
        <time>2022-06-01T08:38:10Z</time>
      </trkpt>
      <trkpt lat="43.15963" lon="5.87835">
        <ele>444.4</ele>
        <time>2022-06-01T08:38:16Z</time>
      </trkpt>
      <trkpt lat="43.15966" lon="5.87823">
        <ele>445.4</ele>
        <time>2022-06-01T08:38:20Z</time>
      </trkpt>
      <trkpt lat="43.15969" lon="5.87805">
        <ele>446.6</ele>
        <time>2022-06-01T08:38:26Z</time>
      </trkpt>
      <trkpt lat="43.15973" lon="5.87792">
        <ele>447.8</ele>
        <time>2022-06-01T08:38:31Z</time>
      </trkpt>
      <trkpt lat="43.15977" lon="5.87772">
        <ele>448.8</ele>
        <time>2022-06-01T08:38:38Z</time>
      </trkpt>
      <trkpt lat="43.15981" lon="5.87759">
        <ele>449.8</ele>
        <time>2022-06-01T08:38:43Z</time>
      </trkpt>
      <trkpt lat="43.15985" lon="5.87745">
        <ele>450.8</ele>
        <time>2022-06-01T08:38:48Z</time>
      </trkpt>
      <trkpt lat="43.15991" lon="5.87729">
        <ele>452</ele>
        <time>2022-06-01T08:38:54Z</time>
      </trkpt>
      <trkpt lat="43.15992" lon="5.87717">
        <ele>453</ele>
        <time>2022-06-01T08:38:59Z</time>
      </trkpt>
      <trkpt lat="43.15994" lon="5.8771">
        <ele>454</ele>
        <time>2022-06-01T08:39:02Z</time>
      </trkpt>
      <trkpt lat="43.15997" lon="5.87696">
        <ele>455.2</ele>
        <time>2022-06-01T08:39:07Z</time>
      </trkpt>
      <trkpt lat="43.16001" lon="5.87679">
        <ele>456.2</ele>
        <time>2022-06-01T08:39:13Z</time>
      </trkpt>
      <trkpt lat="43.16007" lon="5.87667">
        <ele>457.2</ele>
        <time>2022-06-01T08:39:18Z</time>
      </trkpt>
      <trkpt lat="43.16012" lon="5.87651">
        <ele>458.4</ele>
        <time>2022-06-01T08:39:24Z</time>
      </trkpt>
      <trkpt lat="43.16015" lon="5.87638">
        <ele>459.4</ele>
        <time>2022-06-01T08:39:29Z</time>
      </trkpt>
      <trkpt lat="43.16025" lon="5.87625">
        <ele>460.6</ele>
        <time>2022-06-01T08:39:35Z</time>
      </trkpt>
      <trkpt lat="43.16033" lon="5.87619">
        <ele>461.6</ele>
        <time>2022-06-01T08:39:39Z</time>
      </trkpt>
      <trkpt lat="43.16041" lon="5.87609">
        <ele>462.8</ele>
        <time>2022-06-01T08:39:44Z</time>
      </trkpt>
      <trkpt lat="43.16048" lon="5.87598">
        <ele>463.8</ele>
        <time>2022-06-01T08:39:49Z</time>
      </trkpt>
      <trkpt lat="43.16053" lon="5.87585">
        <ele>465</ele>
        <time>2022-06-01T08:39:54Z</time>
      </trkpt>
      <trkpt lat="43.16056" lon="5.8758">
        <ele>465.6</ele>
        <time>2022-06-01T08:39:56Z</time>
      </trkpt>
      <trkpt lat="43.16063" lon="5.87573">
        <ele>466.2</ele>
        <time>2022-06-01T08:40:00Z</time>
      </trkpt>
      <trkpt lat="43.16067" lon="5.87571">
        <ele>466.8</ele>
        <time>2022-06-01T08:40:03Z</time>
      </trkpt>
      <trkpt lat="43.16068" lon="5.87578">
        <ele>467.2</ele>
        <time>2022-06-01T08:40:06Z</time>
      </trkpt>
      <trkpt lat="43.16066" lon="5.87583">
        <ele>467.6</ele>
        <time>2022-06-01T08:40:08Z</time>
      </trkpt>
      <trkpt lat="43.1606" lon="5.87597">
        <ele>468.2</ele>
        <time>2022-06-01T08:40:14Z</time>
      </trkpt>
      <trkpt lat="43.16056" lon="5.87605">
        <ele>469.4</ele>
        <time>2022-06-01T08:40:18Z</time>
      </trkpt>
      <trkpt lat="43.16055" lon="5.87616">
        <ele>470.6</ele>
        <time>2022-06-01T08:40:23Z</time>
      </trkpt>
      <trkpt lat="43.16056" lon="5.87632">
        <ele>472</ele>
        <time>2022-06-01T08:40:29Z</time>
      </trkpt>
      <trkpt lat="43.16056" lon="5.87642">
        <ele>473</ele>
        <time>2022-06-01T08:40:33Z</time>
      </trkpt>
      <trkpt lat="43.16056" lon="5.87645">
        <ele>473.4</ele>
        <time>2022-06-01T08:40:34Z</time>
      </trkpt>
      <trkpt lat="43.16057" lon="5.87648">
        <ele>474.2</ele>
        <time>2022-06-01T08:40:36Z</time>
      </trkpt>
      <trkpt lat="43.16058" lon="5.87657">
        <ele>475.6</ele>
        <time>2022-06-01T08:40:40Z</time>
      </trkpt>
      <trkpt lat="43.1606" lon="5.87663">
        <ele>476.8</ele>
        <time>2022-06-01T08:40:43Z</time>
      </trkpt>
      <trkpt lat="43.16061" lon="5.87669">
        <ele>478.2</ele>
        <time>2022-06-01T08:40:45Z</time>
      </trkpt>
      <trkpt lat="43.16063" lon="5.87679">
        <ele>479.6</ele>
        <time>2022-06-01T08:40:49Z</time>
      </trkpt>
      <trkpt lat="43.16064" lon="5.87691">
        <ele>480.6</ele>
        <time>2022-06-01T08:40:54Z</time>
      </trkpt>
      <trkpt lat="43.16062" lon="5.87702">
        <ele>481.4</ele>
        <time>2022-06-01T08:40:58Z</time>
      </trkpt>
      <trkpt lat="43.16061" lon="5.87705">
        <ele>481.6</ele>
        <time>2022-06-01T08:40:59Z</time>
      </trkpt>
      <trkpt lat="43.16058" lon="5.87715">
        <ele>482.6</ele>
        <time>2022-06-01T08:41:03Z</time>
      </trkpt>
      <trkpt lat="43.16056" lon="5.87726">
        <ele>484</ele>
        <time>2022-06-01T08:41:07Z</time>
      </trkpt>
      <trkpt lat="43.16054" lon="5.87734">
        <ele>485</ele>
        <time>2022-06-01T08:41:10Z</time>
      </trkpt>
      <trkpt lat="43.16052" lon="5.87746">
        <ele>486</ele>
        <time>2022-06-01T08:41:14Z</time>
      </trkpt>
      <trkpt lat="43.16047" lon="5.8776">
        <ele>486.8</ele>
        <time>2022-06-01T08:41:20Z</time>
      </trkpt>
      <trkpt lat="43.16046" lon="5.87776">
        <ele>487.8</ele>
        <time>2022-06-01T08:41:25Z</time>
      </trkpt>
      <trkpt lat="43.16045" lon="5.87778">
        <ele>487.8</ele>
        <time>2022-06-01T08:41:26Z</time>
      </trkpt>
      <trkpt lat="43.16045" lon="5.87837">
        <ele>487.6</ele>
        <time>2022-06-01T08:41:42Z</time>
      </trkpt>
      <trkpt lat="43.16045" lon="5.87854">
        <ele>487</ele>
        <time>2022-06-01T08:41:46Z</time>
      </trkpt>
      <trkpt lat="43.16044" lon="5.87859">
        <ele>486.8</ele>
        <time>2022-06-01T08:41:47Z</time>
      </trkpt>
      <trkpt lat="43.16045" lon="5.87866">
        <ele>486.4</ele>
        <time>2022-06-01T08:41:49Z</time>
      </trkpt>
      <trkpt lat="43.16049" lon="5.87891">
        <ele>486</ele>
        <time>2022-06-01T08:41:56Z</time>
      </trkpt>
      <trkpt lat="43.16053" lon="5.87903">
        <ele>486</ele>
        <time>2022-06-01T08:42:00Z</time>
      </trkpt>
      <trkpt lat="43.1606" lon="5.87907">
        <ele>486</ele>
        <time>2022-06-01T08:42:06Z</time>
      </trkpt>
      <trkpt lat="43.16066" lon="5.87908">
        <ele>486</ele>
        <time>2022-06-01T08:42:09Z</time>
      </trkpt>
      <trkpt lat="43.16076" lon="5.87894">
        <ele>486</ele>
        <time>2022-06-01T08:42:14Z</time>
      </trkpt>
      <trkpt lat="43.1608" lon="5.8789">
        <ele>485.8</ele>
        <time>2022-06-01T08:42:16Z</time>
      </trkpt>
      <trkpt lat="43.16087" lon="5.87885">
        <ele>485.2</ele>
        <time>2022-06-01T08:42:19Z</time>
      </trkpt>
      <trkpt lat="43.16091" lon="5.87885">
        <ele>483.8</ele>
        <time>2022-06-01T08:42:21Z</time>
      </trkpt>
      <trkpt lat="43.16094" lon="5.87882">
        <ele>482.8</ele>
        <time>2022-06-01T08:42:23Z</time>
      </trkpt>
      <trkpt lat="43.16096" lon="5.87881">
        <ele>482.4</ele>
        <time>2022-06-01T08:42:24Z</time>
      </trkpt>
      <trkpt lat="43.16099" lon="5.87872">
        <ele>481</ele>
        <time>2022-06-01T08:42:27Z</time>
      </trkpt>
      <trkpt lat="43.161" lon="5.8787">
        <ele>480.6</ele>
        <time>2022-06-01T08:42:28Z</time>
      </trkpt>
      <trkpt lat="43.16105" lon="5.87867">
        <ele>479.4</ele>
        <time>2022-06-01T08:42:30Z</time>
      </trkpt>
      <trkpt lat="43.1611" lon="5.87865">
        <ele>478</ele>
        <time>2022-06-01T08:42:32Z</time>
      </trkpt>
      <trkpt lat="43.16115" lon="5.87863">
        <ele>476.4</ele>
        <time>2022-06-01T08:42:34Z</time>
      </trkpt>
      <trkpt lat="43.16121" lon="5.87858">
        <ele>475.2</ele>
        <time>2022-06-01T08:42:36Z</time>
      </trkpt>
      <trkpt lat="43.16124" lon="5.87856">
        <ele>474.8</ele>
        <time>2022-06-01T08:42:37Z</time>
      </trkpt>
      <trkpt lat="43.16128" lon="5.87855">
        <ele>474</ele>
        <time>2022-06-01T08:42:38Z</time>
      </trkpt>
      <trkpt lat="43.16134" lon="5.87853">
        <ele>472.6</ele>
        <time>2022-06-01T08:42:40Z</time>
      </trkpt>
      <trkpt lat="43.16139" lon="5.8785">
        <ele>471.2</ele>
        <time>2022-06-01T08:42:42Z</time>
      </trkpt>
      <trkpt lat="43.16144" lon="5.87845">
        <ele>469.8</ele>
        <time>2022-06-01T08:42:44Z</time>
      </trkpt>
      <trkpt lat="43.16152" lon="5.87839">
        <ele>468.4</ele>
        <time>2022-06-01T08:42:47Z</time>
      </trkpt>
      <trkpt lat="43.16159" lon="5.87834">
        <ele>467.2</ele>
        <time>2022-06-01T08:42:50Z</time>
      </trkpt>
      <trkpt lat="43.16166" lon="5.87829">
        <ele>465.8</ele>
        <time>2022-06-01T08:42:52Z</time>
      </trkpt>
      <trkpt lat="43.16173" lon="5.87821">
        <ele>464.4</ele>
        <time>2022-06-01T08:42:54Z</time>
      </trkpt>
      <trkpt lat="43.16183" lon="5.87811">
        <ele>463.2</ele>
        <time>2022-06-01T08:42:57Z</time>
      </trkpt>
      <trkpt lat="43.16191" lon="5.87801">
        <ele>461.6</ele>
        <time>2022-06-01T08:43:00Z</time>
      </trkpt>
      <trkpt lat="43.16195" lon="5.87795">
        <ele>460</ele>
        <time>2022-06-01T08:43:02Z</time>
      </trkpt>
      <trkpt lat="43.16198" lon="5.87792">
        <ele>458.6</ele>
        <time>2022-06-01T08:43:03Z</time>
      </trkpt>
      <trkpt lat="43.16206" lon="5.8778">
        <ele>457.2</ele>
        <time>2022-06-01T08:43:06Z</time>
      </trkpt>
      <trkpt lat="43.1621" lon="5.87776">
        <ele>456.8</ele>
        <time>2022-06-01T08:43:07Z</time>
      </trkpt>
      <trkpt lat="43.16217" lon="5.87767">
        <ele>456</ele>
        <time>2022-06-01T08:43:09Z</time>
      </trkpt>
      <trkpt lat="43.1623" lon="5.87749">
        <ele>454.6</ele>
        <time>2022-06-01T08:43:13Z</time>
      </trkpt>
      <trkpt lat="43.16235" lon="5.87743">
        <ele>453.2</ele>
        <time>2022-06-01T08:43:15Z</time>
      </trkpt>
      <trkpt lat="43.16244" lon="5.87734">
        <ele>452</ele>
        <time>2022-06-01T08:43:18Z</time>
      </trkpt>
      <trkpt lat="43.1625" lon="5.87726">
        <ele>450.6</ele>
        <time>2022-06-01T08:43:20Z</time>
      </trkpt>
      <trkpt lat="43.16258" lon="5.87715">
        <ele>449.2</ele>
        <time>2022-06-01T08:43:23Z</time>
      </trkpt>
      <trkpt lat="43.16267" lon="5.87704">
        <ele>448</ele>
        <time>2022-06-01T08:43:26Z</time>
      </trkpt>
      <trkpt lat="43.16275" lon="5.87692">
        <ele>446.6</ele>
        <time>2022-06-01T08:43:29Z</time>
      </trkpt>
      <trkpt lat="43.16279" lon="5.87684">
        <ele>445.6</ele>
        <time>2022-06-01T08:43:31Z</time>
      </trkpt>
      <trkpt lat="43.16282" lon="5.8768">
        <ele>444</ele>
        <time>2022-06-01T08:43:34Z</time>
      </trkpt>
      <trkpt lat="43.16285" lon="5.87677">
        <ele>442.6</ele>
        <time>2022-06-01T08:43:37Z</time>
      </trkpt>
      <trkpt lat="43.16287" lon="5.87672">
        <ele>441.8</ele>
        <time>2022-06-01T08:43:48Z</time>
      </trkpt>
      <trkpt lat="43.16287" lon="5.87671">
        <ele>441.6</ele>
        <time>2022-06-01T08:44:03Z</time>
      </trkpt>
      <trkpt lat="43.16287" lon="5.87671">
        <ele>441.6</ele>
        <time>2022-06-01T08:44:10Z</time>
      </trkpt>
      <trkpt lat="43.16287" lon="5.87671">
        <ele>441.6</ele>
        <time>2022-06-01T08:44:15Z</time>
      </trkpt>
      <trkpt lat="43.16287" lon="5.8767">
        <ele>441.4</ele>
        <time>2022-06-01T08:44:21Z</time>
      </trkpt>
      <trkpt lat="43.16288" lon="5.87666">
        <ele>441.4</ele>
        <time>2022-06-01T08:44:26Z</time>
      </trkpt>
      <trkpt lat="43.16292" lon="5.87652">
        <ele>441</ele>
        <time>2022-06-01T08:44:31Z</time>
      </trkpt>
      <trkpt lat="43.16294" lon="5.87641">
        <ele>440.4</ele>
        <time>2022-06-01T08:44:33Z</time>
      </trkpt>
      <trkpt lat="43.16294" lon="5.87622">
        <ele>439.2</ele>
        <time>2022-06-01T08:44:36Z</time>
      </trkpt>
      <trkpt lat="43.16294" lon="5.87585">
        <ele>438.2</ele>
        <time>2022-06-01T08:44:42Z</time>
      </trkpt>
      <trkpt lat="43.16292" lon="5.87566">
        <ele>437</ele>
        <time>2022-06-01T08:44:45Z</time>
      </trkpt>
      <trkpt lat="43.16288" lon="5.87548">
        <ele>435.8</ele>
        <time>2022-06-01T08:44:48Z</time>
      </trkpt>
      <trkpt lat="43.16281" lon="5.87524">
        <ele>434.4</ele>
        <time>2022-06-01T08:44:53Z</time>
      </trkpt>
      <trkpt lat="43.16277" lon="5.87509">
        <ele>433.4</ele>
        <time>2022-06-01T08:44:57Z</time>
      </trkpt>
      <trkpt lat="43.16271" lon="5.87488">
        <ele>432</ele>
        <time>2022-06-01T08:45:01Z</time>
      </trkpt>
      <trkpt lat="43.16271" lon="5.87482">
        <ele>431.6</ele>
        <time>2022-06-01T08:45:02Z</time>
      </trkpt>
      <trkpt lat="43.1627" lon="5.8747">
        <ele>430.8</ele>
        <time>2022-06-01T08:45:05Z</time>
      </trkpt>
      <trkpt lat="43.1626" lon="5.87446">
        <ele>429.6</ele>
        <time>2022-06-01T08:45:10Z</time>
      </trkpt>
      <trkpt lat="43.16259" lon="5.87438">
        <ele>429.2</ele>
        <time>2022-06-01T08:45:12Z</time>
      </trkpt>
      <trkpt lat="43.16256" lon="5.87426">
        <ele>428</ele>
        <time>2022-06-01T08:45:15Z</time>
      </trkpt>
      <trkpt lat="43.16256" lon="5.87422">
        <ele>427.6</ele>
        <time>2022-06-01T08:45:16Z</time>
      </trkpt>
      <trkpt lat="43.16256" lon="5.87414">
        <ele>427</ele>
        <time>2022-06-01T08:45:18Z</time>
      </trkpt>
      <trkpt lat="43.1626" lon="5.87404">
        <ele>425.4</ele>
        <time>2022-06-01T08:45:21Z</time>
      </trkpt>
      <trkpt lat="43.16261" lon="5.87384">
        <ele>424.6</ele>
        <time>2022-06-01T08:45:25Z</time>
      </trkpt>
      <trkpt lat="43.16258" lon="5.87374">
        <ele>424.2</ele>
        <time>2022-06-01T08:45:27Z</time>
      </trkpt>
      <trkpt lat="43.16249" lon="5.87356">
        <ele>422.8</ele>
        <time>2022-06-01T08:45:32Z</time>
      </trkpt>
      <trkpt lat="43.16242" lon="5.87343">
        <ele>421.6</ele>
        <time>2022-06-01T08:45:35Z</time>
      </trkpt>
      <trkpt lat="43.1624" lon="5.87339">
        <ele>421.2</ele>
        <time>2022-06-01T08:45:36Z</time>
      </trkpt>
      <trkpt lat="43.16239" lon="5.8733">
        <ele>420.6</ele>
        <time>2022-06-01T08:45:38Z</time>
      </trkpt>
      <trkpt lat="43.16237" lon="5.87308">
        <ele>419.4</ele>
        <time>2022-06-01T08:45:42Z</time>
      </trkpt>
      <trkpt lat="43.16235" lon="5.87277">
        <ele>418.4</ele>
        <time>2022-06-01T08:45:47Z</time>
      </trkpt>
      <trkpt lat="43.16234" lon="5.87271">
        <ele>418.2</ele>
        <time>2022-06-01T08:45:48Z</time>
      </trkpt>
      <trkpt lat="43.16231" lon="5.87254">
        <ele>416.8</ele>
        <time>2022-06-01T08:45:51Z</time>
      </trkpt>
      <trkpt lat="43.16226" lon="5.87237">
        <ele>415.6</ele>
        <time>2022-06-01T08:45:55Z</time>
      </trkpt>
      <trkpt lat="43.16223" lon="5.87231">
        <ele>415</ele>
        <time>2022-06-01T08:45:57Z</time>
      </trkpt>
      <trkpt lat="43.16221" lon="5.87228">
        <ele>414.4</ele>
        <time>2022-06-01T08:45:58Z</time>
      </trkpt>
      <trkpt lat="43.16215" lon="5.87214">
        <ele>413.2</ele>
        <time>2022-06-01T08:46:02Z</time>
      </trkpt>
      <trkpt lat="43.16214" lon="5.8721">
        <ele>412.8</ele>
        <time>2022-06-01T08:46:03Z</time>
      </trkpt>
      <trkpt lat="43.16213" lon="5.87198">
        <ele>412</ele>
        <time>2022-06-01T08:46:06Z</time>
      </trkpt>
      <trkpt lat="43.16212" lon="5.87174">
        <ele>411</ele>
        <time>2022-06-01T08:46:10Z</time>
      </trkpt>
      <trkpt lat="43.16213" lon="5.87162">
        <ele>410.2</ele>
        <time>2022-06-01T08:46:12Z</time>
      </trkpt>
      <trkpt lat="43.16213" lon="5.87156">
        <ele>409.8</ele>
        <time>2022-06-01T08:46:13Z</time>
      </trkpt>
      <trkpt lat="43.16214" lon="5.87136">
        <ele>408.6</ele>
        <time>2022-06-01T08:46:18Z</time>
      </trkpt>
      <trkpt lat="43.16218" lon="5.87125">
        <ele>407.4</ele>
        <time>2022-06-01T08:46:21Z</time>
      </trkpt>
      <trkpt lat="43.16222" lon="5.87111">
        <ele>406.2</ele>
        <time>2022-06-01T08:46:24Z</time>
      </trkpt>
      <trkpt lat="43.16221" lon="5.87087">
        <ele>404.8</ele>
        <time>2022-06-01T08:46:29Z</time>
      </trkpt>
      <trkpt lat="43.1622" lon="5.87077">
        <ele>403.8</ele>
        <time>2022-06-01T08:46:31Z</time>
      </trkpt>
      <trkpt lat="43.16218" lon="5.87064">
        <ele>402.4</ele>
        <time>2022-06-01T08:46:34Z</time>
      </trkpt>
      <trkpt lat="43.16218" lon="5.8705">
        <ele>401</ele>
        <time>2022-06-01T08:46:37Z</time>
      </trkpt>
      <trkpt lat="43.16218" lon="5.87039">
        <ele>399.8</ele>
        <time>2022-06-01T08:46:39Z</time>
      </trkpt>
      <trkpt lat="43.16218" lon="5.87027">
        <ele>398.2</ele>
        <time>2022-06-01T08:46:41Z</time>
      </trkpt>
      <trkpt lat="43.16218" lon="5.87014">
        <ele>396.4</ele>
        <time>2022-06-01T08:46:43Z</time>
      </trkpt>
      <trkpt lat="43.16218" lon="5.87002">
        <ele>395.2</ele>
        <time>2022-06-01T08:46:45Z</time>
      </trkpt>
      <trkpt lat="43.16216" lon="5.86995">
        <ele>394.2</ele>
        <time>2022-06-01T08:46:46Z</time>
      </trkpt>
      <trkpt lat="43.16215" lon="5.86989">
        <ele>393.8</ele>
        <time>2022-06-01T08:46:47Z</time>
      </trkpt>
      <trkpt lat="43.16211" lon="5.86978">
        <ele>392.4</ele>
        <time>2022-06-01T08:46:49Z</time>
      </trkpt>
      <trkpt lat="43.16208" lon="5.86967">
        <ele>391</ele>
        <time>2022-06-01T08:46:51Z</time>
      </trkpt>
      <trkpt lat="43.16201" lon="5.86952">
        <ele>389.8</ele>
        <time>2022-06-01T08:46:54Z</time>
      </trkpt>
      <trkpt lat="43.16197" lon="5.8694">
        <ele>388.6</ele>
        <time>2022-06-01T08:46:56Z</time>
      </trkpt>
      <trkpt lat="43.16195" lon="5.86934">
        <ele>387.8</ele>
        <time>2022-06-01T08:46:57Z</time>
      </trkpt>
      <trkpt lat="43.16194" lon="5.86927">
        <ele>387.2</ele>
        <time>2022-06-01T08:46:58Z</time>
      </trkpt>
      <trkpt lat="43.16191" lon="5.86921">
        <ele>386.8</ele>
        <time>2022-06-01T08:46:59Z</time>
      </trkpt>
      <trkpt lat="43.16187" lon="5.86908">
        <ele>386</ele>
        <time>2022-06-01T08:47:01Z</time>
      </trkpt>
      <trkpt lat="43.16183" lon="5.86895">
        <ele>385.2</ele>
        <time>2022-06-01T08:47:03Z</time>
      </trkpt>
      <trkpt lat="43.16181" lon="5.86889">
        <ele>384.6</ele>
        <time>2022-06-01T08:47:04Z</time>
      </trkpt>
      <trkpt lat="43.1618" lon="5.86877">
        <ele>383.2</ele>
        <time>2022-06-01T08:47:06Z</time>
      </trkpt>
      <trkpt lat="43.16179" lon="5.86866">
        <ele>382</ele>
        <time>2022-06-01T08:47:08Z</time>
      </trkpt>
      <trkpt lat="43.16179" lon="5.8685">
        <ele>380.6</ele>
        <time>2022-06-01T08:47:11Z</time>
      </trkpt>
      <trkpt lat="43.16178" lon="5.86844">
        <ele>380</ele>
        <time>2022-06-01T08:47:12Z</time>
      </trkpt>
      <trkpt lat="43.16178" lon="5.86838">
        <ele>379.4</ele>
        <time>2022-06-01T08:47:13Z</time>
      </trkpt>
      <trkpt lat="43.16178" lon="5.86828">
        <ele>378.4</ele>
        <time>2022-06-01T08:47:15Z</time>
      </trkpt>
      <trkpt lat="43.16178" lon="5.86818">
        <ele>377.2</ele>
        <time>2022-06-01T08:47:17Z</time>
      </trkpt>
      <trkpt lat="43.16176" lon="5.86807">
        <ele>375.8</ele>
        <time>2022-06-01T08:47:20Z</time>
      </trkpt>
      <trkpt lat="43.16174" lon="5.8679">
        <ele>374.8</ele>
        <time>2022-06-01T08:47:23Z</time>
      </trkpt>
      <trkpt lat="43.16173" lon="5.86779">
        <ele>373.8</ele>
        <time>2022-06-01T08:47:25Z</time>
      </trkpt>
      <trkpt lat="43.16171" lon="5.86763">
        <ele>372.4</ele>
        <time>2022-06-01T08:47:28Z</time>
      </trkpt>
      <trkpt lat="43.16166" lon="5.86755">
        <ele>371.8</ele>
        <time>2022-06-01T08:47:30Z</time>
      </trkpt>
      <trkpt lat="43.16162" lon="5.86753">
        <ele>371.2</ele>
        <time>2022-06-01T08:47:32Z</time>
      </trkpt>
      <trkpt lat="43.16158" lon="5.8675">
        <ele>370.8</ele>
        <time>2022-06-01T08:47:34Z</time>
      </trkpt>
      <trkpt lat="43.16157" lon="5.86748">
        <ele>370</ele>
        <time>2022-06-01T08:47:36Z</time>
      </trkpt>
      <trkpt lat="43.16157" lon="5.86747">
        <ele>369</ele>
        <time>2022-06-01T08:47:53Z</time>
      </trkpt>
      <trkpt lat="43.16157" lon="5.86747">
        <ele>369</ele>
        <time>2022-06-01T08:47:56Z</time>
      </trkpt>
      <trkpt lat="43.16156" lon="5.86745">
        <ele>369</ele>
        <time>2022-06-01T08:48:01Z</time>
      </trkpt>
      <trkpt lat="43.16157" lon="5.86732">
        <ele>368.8</ele>
        <time>2022-06-01T08:48:05Z</time>
      </trkpt>
      <trkpt lat="43.16155" lon="5.86701">
        <ele>368.8</ele>
        <time>2022-06-01T08:48:12Z</time>
      </trkpt>
      <trkpt lat="43.16155" lon="5.86686">
        <ele>368.4</ele>
        <time>2022-06-01T08:48:17Z</time>
      </trkpt>
      <trkpt lat="43.16154" lon="5.8667">
        <ele>368.4</ele>
        <time>2022-06-01T08:48:23Z</time>
      </trkpt>
      <trkpt lat="43.16154" lon="5.86657">
        <ele>369.4</ele>
        <time>2022-06-01T08:48:29Z</time>
      </trkpt>
      <trkpt lat="43.16153" lon="5.86649">
        <ele>370.2</ele>
        <time>2022-06-01T08:48:32Z</time>
      </trkpt>
      <trkpt lat="43.16152" lon="5.86638">
        <ele>371.4</ele>
        <time>2022-06-01T08:48:36Z</time>
      </trkpt>
      <trkpt lat="43.16152" lon="5.86628">
        <ele>372.6</ele>
        <time>2022-06-01T08:48:40Z</time>
      </trkpt>
      <trkpt lat="43.16151" lon="5.86625">
        <ele>373.2</ele>
        <time>2022-06-01T08:48:42Z</time>
      </trkpt>
      <trkpt lat="43.1615" lon="5.86621">
        <ele>373.8</ele>
        <time>2022-06-01T08:48:44Z</time>
      </trkpt>
      <trkpt lat="43.16149" lon="5.86614">
        <ele>374.2</ele>
        <time>2022-06-01T08:48:47Z</time>
      </trkpt>
      <trkpt lat="43.16148" lon="5.86609">
        <ele>375</ele>
        <time>2022-06-01T08:48:49Z</time>
      </trkpt>
      <trkpt lat="43.16145" lon="5.86595">
        <ele>376</ele>
        <time>2022-06-01T08:48:55Z</time>
      </trkpt>
      <trkpt lat="43.16144" lon="5.86588">
        <ele>377</ele>
        <time>2022-06-01T08:48:58Z</time>
      </trkpt>
      <trkpt lat="43.1614" lon="5.86579">
        <ele>378.2</ele>
        <time>2022-06-01T08:49:02Z</time>
      </trkpt>
      <trkpt lat="43.16134" lon="5.86569">
        <ele>379.4</ele>
        <time>2022-06-01T08:49:06Z</time>
      </trkpt>
      <trkpt lat="43.1613" lon="5.86564">
        <ele>380.4</ele>
        <time>2022-06-01T08:49:09Z</time>
      </trkpt>
      <trkpt lat="43.16128" lon="5.8656">
        <ele>381.2</ele>
        <time>2022-06-01T08:49:11Z</time>
      </trkpt>
      <trkpt lat="43.16125" lon="5.86557">
        <ele>381.8</ele>
        <time>2022-06-01T08:49:13Z</time>
      </trkpt>
      <trkpt lat="43.16125" lon="5.86555">
        <ele>382</ele>
        <time>2022-06-01T08:49:14Z</time>
      </trkpt>
      <trkpt lat="43.16122" lon="5.86549">
        <ele>383.2</ele>
        <time>2022-06-01T08:49:17Z</time>
      </trkpt>
      <trkpt lat="43.16115" lon="5.86538">
        <ele>384.4</ele>
        <time>2022-06-01T08:49:22Z</time>
      </trkpt>
      <trkpt lat="43.16114" lon="5.86536">
        <ele>384.8</ele>
        <time>2022-06-01T08:49:23Z</time>
      </trkpt>
      <trkpt lat="43.1611" lon="5.86519">
        <ele>385.2</ele>
        <time>2022-06-01T08:49:30Z</time>
      </trkpt>
      <trkpt lat="43.16108" lon="5.86518">
        <ele>385.4</ele>
        <time>2022-06-01T08:49:31Z</time>
      </trkpt>
      <trkpt lat="43.16094" lon="5.86508">
        <ele>385.8</ele>
        <time>2022-06-01T08:49:38Z</time>
      </trkpt>
      <trkpt lat="43.16092" lon="5.86503">
        <ele>385.8</ele>
        <time>2022-06-01T08:49:40Z</time>
      </trkpt>
      <trkpt lat="43.16088" lon="5.86476">
        <ele>386.4</ele>
        <time>2022-06-01T08:49:51Z</time>
      </trkpt>
      <trkpt lat="43.16088" lon="5.86472">
        <ele>386.8</ele>
        <time>2022-06-01T08:49:53Z</time>
      </trkpt>
      <trkpt lat="43.16085" lon="5.86456">
        <ele>388</ele>
        <time>2022-06-01T08:49:58Z</time>
      </trkpt>
      <trkpt lat="43.16083" lon="5.86444">
        <ele>389</ele>
        <time>2022-06-01T08:50:02Z</time>
      </trkpt>
      <trkpt lat="43.16082" lon="5.86439">
        <ele>389.4</ele>
        <time>2022-06-01T08:50:04Z</time>
      </trkpt>
      <trkpt lat="43.16088" lon="5.86423">
        <ele>390</ele>
        <time>2022-06-01T08:50:10Z</time>
      </trkpt>
      <trkpt lat="43.16095" lon="5.86412">
        <ele>390</ele>
        <time>2022-06-01T08:50:13Z</time>
      </trkpt>
      <trkpt lat="43.16108" lon="5.86377">
        <ele>388.2</ele>
        <time>2022-06-01T08:50:21Z</time>
      </trkpt>
      <trkpt lat="43.16113" lon="5.86369">
        <ele>387</ele>
        <time>2022-06-01T08:50:24Z</time>
      </trkpt>
      <trkpt lat="43.16127" lon="5.86343">
        <ele>386</ele>
        <time>2022-06-01T08:50:32Z</time>
      </trkpt>
      <trkpt lat="43.16134" lon="5.86321">
        <ele>385.4</ele>
        <time>2022-06-01T08:50:36Z</time>
      </trkpt>
      <trkpt lat="43.16139" lon="5.86313">
        <ele>385</ele>
        <time>2022-06-01T08:50:38Z</time>
      </trkpt>
      <trkpt lat="43.16144" lon="5.86307">
        <ele>384</ele>
        <time>2022-06-01T08:50:40Z</time>
      </trkpt>
      <trkpt lat="43.1615" lon="5.863">
        <ele>382.4</ele>
        <time>2022-06-01T08:50:42Z</time>
      </trkpt>
      <trkpt lat="43.16152" lon="5.86295">
        <ele>381.2</ele>
        <time>2022-06-01T08:50:43Z</time>
      </trkpt>
      <trkpt lat="43.16156" lon="5.86284">
        <ele>380</ele>
        <time>2022-06-01T08:50:45Z</time>
      </trkpt>
      <trkpt lat="43.16162" lon="5.86276">
        <ele>379</ele>
        <time>2022-06-01T08:50:47Z</time>
      </trkpt>
      <trkpt lat="43.1617" lon="5.86271">
        <ele>377.8</ele>
        <time>2022-06-01T08:50:49Z</time>
      </trkpt>
      <trkpt lat="43.16175" lon="5.86269">
        <ele>377.2</ele>
        <time>2022-06-01T08:50:50Z</time>
      </trkpt>
      <trkpt lat="43.16179" lon="5.86268">
        <ele>376.4</ele>
        <time>2022-06-01T08:50:51Z</time>
      </trkpt>
      <trkpt lat="43.16184" lon="5.86263">
        <ele>374.6</ele>
        <time>2022-06-01T08:50:53Z</time>
      </trkpt>
      <trkpt lat="43.16185" lon="5.86259">
        <ele>373.4</ele>
        <time>2022-06-01T08:50:54Z</time>
      </trkpt>
      <trkpt lat="43.16186" lon="5.86255">
        <ele>372.4</ele>
        <time>2022-06-01T08:50:55Z</time>
      </trkpt>
      <trkpt lat="43.16185" lon="5.86247">
        <ele>371</ele>
        <time>2022-06-01T08:50:57Z</time>
      </trkpt>
      <trkpt lat="43.16186" lon="5.86232">
        <ele>369.6</ele>
        <time>2022-06-01T08:51:00Z</time>
      </trkpt>
      <trkpt lat="43.16185" lon="5.86222">
        <ele>369.2</ele>
        <time>2022-06-01T08:51:02Z</time>
      </trkpt>
      <trkpt lat="43.16185" lon="5.86217">
        <ele>368.6</ele>
        <time>2022-06-01T08:51:03Z</time>
      </trkpt>
      <trkpt lat="43.16186" lon="5.86203">
        <ele>366.8</ele>
        <time>2022-06-01T08:51:06Z</time>
      </trkpt>
      <trkpt lat="43.16187" lon="5.86195">
        <ele>365.8</ele>
        <time>2022-06-01T08:51:08Z</time>
      </trkpt>
      <trkpt lat="43.16186" lon="5.86192">
        <ele>365.2</ele>
        <time>2022-06-01T08:51:09Z</time>
      </trkpt>
      <trkpt lat="43.16185" lon="5.86189">
        <ele>364.4</ele>
        <time>2022-06-01T08:51:11Z</time>
      </trkpt>
      <trkpt lat="43.16183" lon="5.86184">
        <ele>362.8</ele>
        <time>2022-06-01T08:51:13Z</time>
      </trkpt>
      <trkpt lat="43.16184" lon="5.86177">
        <ele>361.4</ele>
        <time>2022-06-01T08:51:15Z</time>
      </trkpt>
      <trkpt lat="43.16185" lon="5.86173">
        <ele>360.8</ele>
        <time>2022-06-01T08:51:16Z</time>
      </trkpt>
      <trkpt lat="43.16186" lon="5.8617">
        <ele>360.2</ele>
        <time>2022-06-01T08:51:17Z</time>
      </trkpt>
      <trkpt lat="43.16186" lon="5.86159">
        <ele>359.2</ele>
        <time>2022-06-01T08:51:20Z</time>
      </trkpt>
      <trkpt lat="43.16186" lon="5.86153">
        <ele>357.8</ele>
        <time>2022-06-01T08:51:22Z</time>
      </trkpt>
      <trkpt lat="43.16187" lon="5.86151">
        <ele>356.8</ele>
        <time>2022-06-01T08:51:23Z</time>
      </trkpt>
      <trkpt lat="43.16187" lon="5.86149">
        <ele>355.2</ele>
        <time>2022-06-01T08:51:25Z</time>
      </trkpt>
      <trkpt lat="43.16186" lon="5.86149">
        <ele>353.6</ele>
        <time>2022-06-01T08:51:27Z</time>
      </trkpt>
      <trkpt lat="43.16186" lon="5.86149">
        <ele>352.2</ele>
        <time>2022-06-01T08:51:29Z</time>
      </trkpt>
      <trkpt lat="43.16186" lon="5.86149">
        <ele>351</ele>
        <time>2022-06-01T08:51:31Z</time>
      </trkpt>
      <trkpt lat="43.16186" lon="5.86149">
        <ele>350</ele>
        <time>2022-06-01T08:51:34Z</time>
      </trkpt>
      <trkpt lat="43.16186" lon="5.86149">
        <ele>349.6</ele>
        <time>2022-06-01T08:51:52Z</time>
      </trkpt>
      <trkpt lat="43.16186" lon="5.86149">
        <ele>349.6</ele>
        <time>2022-06-01T08:51:57Z</time>
      </trkpt>
      <trkpt lat="43.16187" lon="5.86148">
        <ele>349.6</ele>
        <time>2022-06-01T08:52:10Z</time>
      </trkpt>
      <trkpt lat="43.16193" lon="5.86131">
        <ele>349.2</ele>
        <time>2022-06-01T08:52:15Z</time>
      </trkpt>
      <trkpt lat="43.16195" lon="5.86128">
        <ele>349.2</ele>
        <time>2022-06-01T08:52:16Z</time>
      </trkpt>
      <trkpt lat="43.16203" lon="5.86117">
        <ele>348.4</ele>
        <time>2022-06-01T08:52:19Z</time>
      </trkpt>
      <trkpt lat="43.1621" lon="5.86106">
        <ele>346.8</ele>
        <time>2022-06-01T08:52:22Z</time>
      </trkpt>
      <trkpt lat="43.16214" lon="5.86102">
        <ele>346.2</ele>
        <time>2022-06-01T08:52:23Z</time>
      </trkpt>
      <trkpt lat="43.16217" lon="5.86099">
        <ele>345.4</ele>
        <time>2022-06-01T08:52:24Z</time>
      </trkpt>
      <trkpt lat="43.16222" lon="5.86094">
        <ele>343.6</ele>
        <time>2022-06-01T08:52:26Z</time>
      </trkpt>
      <trkpt lat="43.16225" lon="5.86088">
        <ele>341.6</ele>
        <time>2022-06-01T08:52:28Z</time>
      </trkpt>
      <trkpt lat="43.1623" lon="5.8608">
        <ele>340.2</ele>
        <time>2022-06-01T08:52:31Z</time>
      </trkpt>
      <trkpt lat="43.16233" lon="5.86074">
        <ele>338.8</ele>
        <time>2022-06-01T08:52:33Z</time>
      </trkpt>
      <trkpt lat="43.16236" lon="5.86068">
        <ele>337.8</ele>
        <time>2022-06-01T08:52:35Z</time>
      </trkpt>
      <trkpt lat="43.16237" lon="5.86065">
        <ele>337</ele>
        <time>2022-06-01T08:52:36Z</time>
      </trkpt>
      <trkpt lat="43.16234" lon="5.86058">
        <ele>336</ele>
        <time>2022-06-01T08:52:39Z</time>
      </trkpt>
      <trkpt lat="43.16228" lon="5.86059">
        <ele>334.6</ele>
        <time>2022-06-01T08:52:41Z</time>
      </trkpt>
      <trkpt lat="43.16221" lon="5.86066">
        <ele>333.2</ele>
        <time>2022-06-01T08:52:44Z</time>
      </trkpt>
      <trkpt lat="43.16216" lon="5.86065">
        <ele>332.2</ele>
        <time>2022-06-01T08:52:46Z</time>
      </trkpt>
      <trkpt lat="43.16207" lon="5.86066">
        <ele>331</ele>
        <time>2022-06-01T08:52:49Z</time>
      </trkpt>
      <trkpt lat="43.16194" lon="5.86065">
        <ele>329.8</ele>
        <time>2022-06-01T08:52:52Z</time>
      </trkpt>
      <trkpt lat="43.16187" lon="5.86064">
        <ele>328.2</ele>
        <time>2022-06-01T08:52:54Z</time>
      </trkpt>
      <trkpt lat="43.16182" lon="5.86064">
        <ele>327.8</ele>
        <time>2022-06-01T08:52:55Z</time>
      </trkpt>
      <trkpt lat="43.16177" lon="5.86065">
        <ele>327.2</ele>
        <time>2022-06-01T08:52:56Z</time>
      </trkpt>
      <trkpt lat="43.16168" lon="5.8607">
        <ele>325.8</ele>
        <time>2022-06-01T08:52:59Z</time>
      </trkpt>
      <trkpt lat="43.16163" lon="5.86072">
        <ele>324.4</ele>
        <time>2022-06-01T08:53:01Z</time>
      </trkpt>
      <trkpt lat="43.16158" lon="5.86071">
        <ele>322.8</ele>
        <time>2022-06-01T08:53:03Z</time>
      </trkpt>
      <trkpt lat="43.16155" lon="5.86068">
        <ele>321.8</ele>
        <time>2022-06-01T08:53:05Z</time>
      </trkpt>
      <trkpt lat="43.16147" lon="5.86059">
        <ele>321.2</ele>
        <time>2022-06-01T08:53:10Z</time>
      </trkpt>
      <trkpt lat="43.16146" lon="5.86058">
        <ele>321.2</ele>
        <time>2022-06-01T08:53:11Z</time>
      </trkpt>
      <trkpt lat="43.16138" lon="5.86048">
        <ele>321.8</ele>
        <time>2022-06-01T08:53:16Z</time>
      </trkpt>
      <trkpt lat="43.16131" lon="5.86043">
        <ele>323</ele>
        <time>2022-06-01T08:53:20Z</time>
      </trkpt>
      <trkpt lat="43.16125" lon="5.86037">
        <ele>324.6</ele>
        <time>2022-06-01T08:53:24Z</time>
      </trkpt>
      <trkpt lat="43.16117" lon="5.86031">
        <ele>325.6</ele>
        <time>2022-06-01T08:53:28Z</time>
      </trkpt>
      <trkpt lat="43.16109" lon="5.86025">
        <ele>326.4</ele>
        <time>2022-06-01T08:53:32Z</time>
      </trkpt>
      <trkpt lat="43.16108" lon="5.86023">
        <ele>326.8</ele>
        <time>2022-06-01T08:53:33Z</time>
      </trkpt>
      <trkpt lat="43.16102" lon="5.86017">
        <ele>327.6</ele>
        <time>2022-06-01T08:53:37Z</time>
      </trkpt>
      <trkpt lat="43.16099" lon="5.86016">
        <ele>328</ele>
        <time>2022-06-01T08:53:38Z</time>
      </trkpt>
      <trkpt lat="43.16093" lon="5.86009">
        <ele>329</ele>
        <time>2022-06-01T08:53:42Z</time>
      </trkpt>
      <trkpt lat="43.16088" lon="5.86005">
        <ele>330</ele>
        <time>2022-06-01T08:53:45Z</time>
      </trkpt>
      <trkpt lat="43.16082" lon="5.85998">
        <ele>331.2</ele>
        <time>2022-06-01T08:53:48Z</time>
      </trkpt>
      <trkpt lat="43.16075" lon="5.85991">
        <ele>332.6</ele>
        <time>2022-06-01T08:53:51Z</time>
      </trkpt>
      <trkpt lat="43.16067" lon="5.85983">
        <ele>333.8</ele>
        <time>2022-06-01T08:53:55Z</time>
      </trkpt>
      <trkpt lat="43.1606" lon="5.85975">
        <ele>334.8</ele>
        <time>2022-06-01T08:53:59Z</time>
      </trkpt>
      <trkpt lat="43.16056" lon="5.85971">
        <ele>336</ele>
        <time>2022-06-01T08:54:05Z</time>
      </trkpt>
      <trkpt lat="43.16056" lon="5.85971">
        <ele>336.6</ele>
        <time>2022-06-01T08:54:10Z</time>
      </trkpt>
      <trkpt lat="43.16056" lon="5.85971">
        <ele>336.8</ele>
        <time>2022-06-01T08:54:22Z</time>
      </trkpt>
      <trkpt lat="43.16056" lon="5.85971">
        <ele>337</ele>
        <time>2022-06-01T08:54:29Z</time>
      </trkpt>
      <trkpt lat="43.16038" lon="5.85949">
        <ele>337.4</ele>
        <time>2022-06-01T08:54:41Z</time>
      </trkpt>
      <trkpt lat="43.16033" lon="5.8594">
        <ele>338.8</ele>
        <time>2022-06-01T08:54:45Z</time>
      </trkpt>
      <trkpt lat="43.16032" lon="5.85938">
        <ele>339.2</ele>
        <time>2022-06-01T08:54:46Z</time>
      </trkpt>
      <trkpt lat="43.1603" lon="5.85934">
        <ele>340</ele>
        <time>2022-06-01T08:54:48Z</time>
      </trkpt>
      <trkpt lat="43.16027" lon="5.85927">
        <ele>341.2</ele>
        <time>2022-06-01T08:54:51Z</time>
      </trkpt>
      <trkpt lat="43.16023" lon="5.85919">
        <ele>342.4</ele>
        <time>2022-06-01T08:54:55Z</time>
      </trkpt>
      <trkpt lat="43.1602" lon="5.85913">
        <ele>343.6</ele>
        <time>2022-06-01T08:54:58Z</time>
      </trkpt>
      <trkpt lat="43.16013" lon="5.85909">
        <ele>344.8</ele>
        <time>2022-06-01T08:55:02Z</time>
      </trkpt>
      <trkpt lat="43.16009" lon="5.85908">
        <ele>345.8</ele>
        <time>2022-06-01T08:55:06Z</time>
      </trkpt>
      <trkpt lat="43.16004" lon="5.85905">
        <ele>347</ele>
        <time>2022-06-01T08:55:13Z</time>
      </trkpt>
      <trkpt lat="43.15993" lon="5.85909">
        <ele>347.8</ele>
        <time>2022-06-01T08:55:25Z</time>
      </trkpt>
      <trkpt lat="43.1597" lon="5.85922">
        <ele>348</ele>
        <time>2022-06-01T08:55:34Z</time>
      </trkpt>
      <trkpt lat="43.15947" lon="5.85934">
        <ele>349.4</ele>
        <time>2022-06-01T08:55:42Z</time>
      </trkpt>
      <trkpt lat="43.15938" lon="5.85936">
        <ele>349.8</ele>
        <time>2022-06-01T08:55:44Z</time>
      </trkpt>
      <trkpt lat="43.15921" lon="5.85934">
        <ele>349.8</ele>
        <time>2022-06-01T08:55:48Z</time>
      </trkpt>
      <trkpt lat="43.15917" lon="5.85934">
        <ele>349.8</ele>
        <time>2022-06-01T08:55:49Z</time>
      </trkpt>
      <trkpt lat="43.15893" lon="5.85918">
        <ele>349.6</ele>
        <time>2022-06-01T08:55:56Z</time>
      </trkpt>
      <trkpt lat="43.15887" lon="5.85901">
        <ele>348.8</ele>
        <time>2022-06-01T08:55:59Z</time>
      </trkpt>
      <trkpt lat="43.15885" lon="5.85893">
        <ele>348</ele>
        <time>2022-06-01T08:56:01Z</time>
      </trkpt>
      <trkpt lat="43.15879" lon="5.8587">
        <ele>347</ele>
        <time>2022-06-01T08:56:06Z</time>
      </trkpt>
      <trkpt lat="43.15879" lon="5.85862">
        <ele>346.4</ele>
        <time>2022-06-01T08:56:08Z</time>
      </trkpt>
      <trkpt lat="43.15879" lon="5.85856">
        <ele>345.8</ele>
        <time>2022-06-01T08:56:10Z</time>
      </trkpt>
      <trkpt lat="43.1588" lon="5.85835">
        <ele>344.2</ele>
        <time>2022-06-01T08:56:15Z</time>
      </trkpt>
      <trkpt lat="43.1588" lon="5.85823">
        <ele>342.8</ele>
        <time>2022-06-01T08:56:17Z</time>
      </trkpt>
      <trkpt lat="43.15881" lon="5.85812">
        <ele>341.6</ele>
        <time>2022-06-01T08:56:19Z</time>
      </trkpt>
      <trkpt lat="43.15881" lon="5.85797">
        <ele>340.2</ele>
        <time>2022-06-01T08:56:22Z</time>
      </trkpt>
      <trkpt lat="43.1588" lon="5.85784">
        <ele>339</ele>
        <time>2022-06-01T08:56:25Z</time>
      </trkpt>
      <trkpt lat="43.15879" lon="5.8577">
        <ele>337.8</ele>
        <time>2022-06-01T08:56:28Z</time>
      </trkpt>
      <trkpt lat="43.15878" lon="5.85753">
        <ele>336.2</ele>
        <time>2022-06-01T08:56:31Z</time>
      </trkpt>
      <trkpt lat="43.15876" lon="5.85743">
        <ele>335.2</ele>
        <time>2022-06-01T08:56:33Z</time>
      </trkpt>
      <trkpt lat="43.15875" lon="5.85735">
        <ele>334</ele>
        <time>2022-06-01T08:56:35Z</time>
      </trkpt>
      <trkpt lat="43.15875" lon="5.85718">
        <ele>332.6</ele>
        <time>2022-06-01T08:56:39Z</time>
      </trkpt>
      <trkpt lat="43.15875" lon="5.8571">
        <ele>331.2</ele>
        <time>2022-06-01T08:56:41Z</time>
      </trkpt>
      <trkpt lat="43.15876" lon="5.85699">
        <ele>330</ele>
        <time>2022-06-01T08:56:44Z</time>
      </trkpt>
      <trkpt lat="43.15877" lon="5.8569">
        <ele>328.8</ele>
        <time>2022-06-01T08:56:47Z</time>
      </trkpt>
      <trkpt lat="43.15876" lon="5.85681">
        <ele>327.8</ele>
        <time>2022-06-01T08:56:49Z</time>
      </trkpt>
      <trkpt lat="43.15876" lon="5.85674">
        <ele>325.6</ele>
        <time>2022-06-01T08:56:51Z</time>
      </trkpt>
      <trkpt lat="43.15875" lon="5.85666">
        <ele>324.4</ele>
        <time>2022-06-01T08:56:53Z</time>
      </trkpt>
      <trkpt lat="43.15872" lon="5.85657">
        <ele>323.4</ele>
        <time>2022-06-01T08:56:55Z</time>
      </trkpt>
      <trkpt lat="43.15867" lon="5.8565">
        <ele>322</ele>
        <time>2022-06-01T08:56:57Z</time>
      </trkpt>
      <trkpt lat="43.15861" lon="5.85643">
        <ele>320.6</ele>
        <time>2022-06-01T08:56:59Z</time>
      </trkpt>
      <trkpt lat="43.15852" lon="5.85636">
        <ele>319.6</ele>
        <time>2022-06-01T08:57:02Z</time>
      </trkpt>
      <trkpt lat="43.15838" lon="5.85635">
        <ele>318.2</ele>
        <time>2022-06-01T08:57:06Z</time>
      </trkpt>
      <trkpt lat="43.15823" lon="5.85639">
        <ele>317.2</ele>
        <time>2022-06-01T08:57:11Z</time>
      </trkpt>
      <trkpt lat="43.15811" lon="5.85646">
        <ele>316.8</ele>
        <time>2022-06-01T08:57:14Z</time>
      </trkpt>
      <trkpt lat="43.15797" lon="5.85647">
        <ele>316.2</ele>
        <time>2022-06-01T08:57:17Z</time>
      </trkpt>
      <trkpt lat="43.15786" lon="5.85638">
        <ele>315</ele>
        <time>2022-06-01T08:57:20Z</time>
      </trkpt>
      <trkpt lat="43.15785" lon="5.85633">
        <ele>315</ele>
        <time>2022-06-01T08:57:21Z</time>
      </trkpt>
      <trkpt lat="43.15783" lon="5.85629">
        <ele>314.8</ele>
        <time>2022-06-01T08:57:22Z</time>
      </trkpt>
      <trkpt lat="43.15777" lon="5.85612">
        <ele>314</ele>
        <time>2022-06-01T08:57:26Z</time>
      </trkpt>
      <trkpt lat="43.15772" lon="5.85591">
        <ele>312.6</ele>
        <time>2022-06-01T08:57:30Z</time>
      </trkpt>
      <trkpt lat="43.15768" lon="5.85573">
        <ele>311.6</ele>
        <time>2022-06-01T08:57:33Z</time>
      </trkpt>
      <trkpt lat="43.15765" lon="5.85565">
        <ele>311.2</ele>
        <time>2022-06-01T08:57:34Z</time>
      </trkpt>
      <trkpt lat="43.15757" lon="5.8554">
        <ele>309.8</ele>
        <time>2022-06-01T08:57:37Z</time>
      </trkpt>
      <trkpt lat="43.15752" lon="5.85523">
        <ele>308.8</ele>
        <time>2022-06-01T08:57:39Z</time>
      </trkpt>
      <trkpt lat="43.15747" lon="5.85508">
        <ele>308</ele>
        <time>2022-06-01T08:57:41Z</time>
      </trkpt>
      <trkpt lat="43.15744" lon="5.85503">
        <ele>307.6</ele>
        <time>2022-06-01T08:57:42Z</time>
      </trkpt>
      <trkpt lat="43.15735" lon="5.85477">
        <ele>307.4</ele>
        <time>2022-06-01T08:57:48Z</time>
      </trkpt>
      <trkpt lat="43.15725" lon="5.85435">
        <ele>308.2</ele>
        <time>2022-06-01T08:57:56Z</time>
      </trkpt>
      <trkpt lat="43.15712" lon="5.85416">
        <ele>308.4</ele>
        <time>2022-06-01T08:58:00Z</time>
      </trkpt>
      <trkpt lat="43.15694" lon="5.85384">
        <ele>307.4</ele>
        <time>2022-06-01T08:58:07Z</time>
      </trkpt>
      <trkpt lat="43.15675" lon="5.85352">
        <ele>307</ele>
        <time>2022-06-01T08:58:13Z</time>
      </trkpt>
      <trkpt lat="43.15672" lon="5.85347">
        <ele>306.6</ele>
        <time>2022-06-01T08:58:14Z</time>
      </trkpt>
      <trkpt lat="43.15653" lon="5.85314">
        <ele>305.6</ele>
        <time>2022-06-01T08:58:21Z</time>
      </trkpt>
      <trkpt lat="43.15645" lon="5.853">
        <ele>305.6</ele>
        <time>2022-06-01T08:58:24Z</time>
      </trkpt>
      <trkpt lat="43.15639" lon="5.85289">
        <ele>305.6</ele>
        <time>2022-06-01T08:58:27Z</time>
      </trkpt>
      <trkpt lat="43.15635" lon="5.85285">
        <ele>305.6</ele>
        <time>2022-06-01T08:58:28Z</time>
      </trkpt>
      <trkpt lat="43.1563" lon="5.85275">
        <ele>305.6</ele>
        <time>2022-06-01T08:58:30Z</time>
      </trkpt>
      <trkpt lat="43.15617" lon="5.85254">
        <ele>305.4</ele>
        <time>2022-06-01T08:58:35Z</time>
      </trkpt>
      <trkpt lat="43.15607" lon="5.85243">
        <ele>304.2</ele>
        <time>2022-06-01T08:58:38Z</time>
      </trkpt>
      <trkpt lat="43.15602" lon="5.85239">
        <ele>302.8</ele>
        <time>2022-06-01T08:58:40Z</time>
      </trkpt>
      <trkpt lat="43.15593" lon="5.8523">
        <ele>301.4</ele>
        <time>2022-06-01T08:58:43Z</time>
      </trkpt>
      <trkpt lat="43.15587" lon="5.85223">
        <ele>300.4</ele>
        <time>2022-06-01T08:58:45Z</time>
      </trkpt>
      <trkpt lat="43.15581" lon="5.85217">
        <ele>299</ele>
        <time>2022-06-01T08:58:47Z</time>
      </trkpt>
      <trkpt lat="43.15575" lon="5.85209">
        <ele>297.4</ele>
        <time>2022-06-01T08:58:49Z</time>
      </trkpt>
      <trkpt lat="43.15568" lon="5.852">
        <ele>296.2</ele>
        <time>2022-06-01T08:58:52Z</time>
      </trkpt>
      <trkpt lat="43.15562" lon="5.85192">
        <ele>294.4</ele>
        <time>2022-06-01T08:58:54Z</time>
      </trkpt>
      <trkpt lat="43.15555" lon="5.85183">
        <ele>293</ele>
        <time>2022-06-01T08:58:56Z</time>
      </trkpt>
      <trkpt lat="43.15548" lon="5.85173">
        <ele>292</ele>
        <time>2022-06-01T08:58:58Z</time>
      </trkpt>
      <trkpt lat="43.15541" lon="5.85163">
        <ele>290.8</ele>
        <time>2022-06-01T08:59:00Z</time>
      </trkpt>
      <trkpt lat="43.15534" lon="5.85155">
        <ele>289.8</ele>
        <time>2022-06-01T08:59:02Z</time>
      </trkpt>
      <trkpt lat="43.15527" lon="5.85146">
        <ele>288.8</ele>
        <time>2022-06-01T08:59:04Z</time>
      </trkpt>
      <trkpt lat="43.15516" lon="5.85134">
        <ele>287.2</ele>
        <time>2022-06-01T08:59:07Z</time>
      </trkpt>
      <trkpt lat="43.15513" lon="5.85129">
        <ele>286</ele>
        <time>2022-06-01T08:59:08Z</time>
      </trkpt>
      <trkpt lat="43.15509" lon="5.85121">
        <ele>284.8</ele>
        <time>2022-06-01T08:59:10Z</time>
      </trkpt>
      <trkpt lat="43.15507" lon="5.85118">
        <ele>283.8</ele>
        <time>2022-06-01T08:59:11Z</time>
      </trkpt>
      <trkpt lat="43.15504" lon="5.85112">
        <ele>282.4</ele>
        <time>2022-06-01T08:59:13Z</time>
      </trkpt>
      <trkpt lat="43.15503" lon="5.85111">
        <ele>281</ele>
        <time>2022-06-01T08:59:16Z</time>
      </trkpt>
      <trkpt lat="43.15503" lon="5.8511">
        <ele>279.8</ele>
        <time>2022-06-01T08:59:18Z</time>
      </trkpt>
      <trkpt lat="43.15503" lon="5.8511">
        <ele>278.6</ele>
        <time>2022-06-01T08:59:21Z</time>
      </trkpt>
      <trkpt lat="43.15503" lon="5.8511">
        <ele>278</ele>
        <time>2022-06-01T08:59:39Z</time>
      </trkpt>
      <trkpt lat="43.15503" lon="5.8511">
        <ele>278</ele>
        <time>2022-06-01T08:59:48Z</time>
      </trkpt>
      <trkpt lat="43.15502" lon="5.85109">
        <ele>278</ele>
        <time>2022-06-01T08:59:52Z</time>
      </trkpt>
      <trkpt lat="43.15492" lon="5.85096">
        <ele>278</ele>
        <time>2022-06-01T08:59:57Z</time>
      </trkpt>
      <trkpt lat="43.15486" lon="5.85114">
        <ele>277.6</ele>
        <time>2022-06-01T09:00:02Z</time>
      </trkpt>
      <trkpt lat="43.15486" lon="5.8512">
        <ele>277.2</ele>
        <time>2022-06-01T09:00:03Z</time>
      </trkpt>
      <trkpt lat="43.15486" lon="5.85127">
        <ele>276.6</ele>
        <time>2022-06-01T09:00:04Z</time>
      </trkpt>
      <trkpt lat="43.15487" lon="5.85133">
        <ele>276</ele>
        <time>2022-06-01T09:00:05Z</time>
      </trkpt>
      <trkpt lat="43.15487" lon="5.8514">
        <ele>275.6</ele>
        <time>2022-06-01T09:00:06Z</time>
      </trkpt>
      <trkpt lat="43.1549" lon="5.85153">
        <ele>274.2</ele>
        <time>2022-06-01T09:00:08Z</time>
      </trkpt>
      <trkpt lat="43.15494" lon="5.85165">
        <ele>272.8</ele>
        <time>2022-06-01T09:00:10Z</time>
      </trkpt>
      <trkpt lat="43.15498" lon="5.85178">
        <ele>271.4</ele>
        <time>2022-06-01T09:00:12Z</time>
      </trkpt>
      <trkpt lat="43.15504" lon="5.85195">
        <ele>270</ele>
        <time>2022-06-01T09:00:15Z</time>
      </trkpt>
      <trkpt lat="43.15505" lon="5.85201">
        <ele>269.2</ele>
        <time>2022-06-01T09:00:16Z</time>
      </trkpt>
      <trkpt lat="43.15506" lon="5.85207">
        <ele>268.8</ele>
        <time>2022-06-01T09:00:17Z</time>
      </trkpt>
      <trkpt lat="43.15511" lon="5.85226">
        <ele>268.4</ele>
        <time>2022-06-01T09:00:20Z</time>
      </trkpt>
      <trkpt lat="43.15514" lon="5.8524">
        <ele>268.2</ele>
        <time>2022-06-01T09:00:22Z</time>
      </trkpt>
      <trkpt lat="43.15515" lon="5.85246">
        <ele>267.6</ele>
        <time>2022-06-01T09:00:23Z</time>
      </trkpt>
      <trkpt lat="43.15517" lon="5.85262">
        <ele>266.6</ele>
        <time>2022-06-01T09:00:26Z</time>
      </trkpt>
      <trkpt lat="43.1552" lon="5.85272">
        <ele>266</ele>
        <time>2022-06-01T09:00:28Z</time>
      </trkpt>
      <trkpt lat="43.15521" lon="5.8528">
        <ele>265</ele>
        <time>2022-06-01T09:00:30Z</time>
      </trkpt>
      <trkpt lat="43.1552" lon="5.85286">
        <ele>263.8</ele>
        <time>2022-06-01T09:00:32Z</time>
      </trkpt>
      <trkpt lat="43.15517" lon="5.85286">
        <ele>263</ele>
        <time>2022-06-01T09:00:34Z</time>
      </trkpt>
      <trkpt lat="43.15516" lon="5.85285">
        <ele>262.4</ele>
        <time>2022-06-01T09:00:35Z</time>
      </trkpt>
      <trkpt lat="43.15509" lon="5.85279">
        <ele>261.4</ele>
        <time>2022-06-01T09:00:38Z</time>
      </trkpt>
      <trkpt lat="43.15503" lon="5.85274">
        <ele>260</ele>
        <time>2022-06-01T09:00:40Z</time>
      </trkpt>
      <trkpt lat="43.15492" lon="5.85262">
        <ele>259</ele>
        <time>2022-06-01T09:00:43Z</time>
      </trkpt>
      <trkpt lat="43.15484" lon="5.85257">
        <ele>257.6</ele>
        <time>2022-06-01T09:00:45Z</time>
      </trkpt>
      <trkpt lat="43.15474" lon="5.85252">
        <ele>256.4</ele>
        <time>2022-06-01T09:00:47Z</time>
      </trkpt>
      <trkpt lat="43.15466" lon="5.85244">
        <ele>255.4</ele>
        <time>2022-06-01T09:00:49Z</time>
      </trkpt>
      <trkpt lat="43.15462" lon="5.85241">
        <ele>253.6</ele>
        <time>2022-06-01T09:00:50Z</time>
      </trkpt>
      <trkpt lat="43.15457" lon="5.85238">
        <ele>252.8</ele>
        <time>2022-06-01T09:00:51Z</time>
      </trkpt>
      <trkpt lat="43.15452" lon="5.85233">
        <ele>252.2</ele>
        <time>2022-06-01T09:00:52Z</time>
      </trkpt>
      <trkpt lat="43.1544" lon="5.85223">
        <ele>251.2</ele>
        <time>2022-06-01T09:00:54Z</time>
      </trkpt>
      <trkpt lat="43.1543" lon="5.85215">
        <ele>249.6</ele>
        <time>2022-06-01T09:00:56Z</time>
      </trkpt>
      <trkpt lat="43.15422" lon="5.85205">
        <ele>248.2</ele>
        <time>2022-06-01T09:00:58Z</time>
      </trkpt>
      <trkpt lat="43.15414" lon="5.85194">
        <ele>246.6</ele>
        <time>2022-06-01T09:01:00Z</time>
      </trkpt>
      <trkpt lat="43.15406" lon="5.85186">
        <ele>244.6</ele>
        <time>2022-06-01T09:01:02Z</time>
      </trkpt>
      <trkpt lat="43.15398" lon="5.85178">
        <ele>243.4</ele>
        <time>2022-06-01T09:01:04Z</time>
      </trkpt>
      <trkpt lat="43.15389" lon="5.85166">
        <ele>242.2</ele>
        <time>2022-06-01T09:01:07Z</time>
      </trkpt>
      <trkpt lat="43.1538" lon="5.85158">
        <ele>240.4</ele>
        <time>2022-06-01T09:01:09Z</time>
      </trkpt>
      <trkpt lat="43.15373" lon="5.85153">
        <ele>239</ele>
        <time>2022-06-01T09:01:11Z</time>
      </trkpt>
      <trkpt lat="43.15368" lon="5.8515">
        <ele>238</ele>
        <time>2022-06-01T09:01:14Z</time>
      </trkpt>
      <trkpt lat="43.15366" lon="5.85149">
        <ele>237.2</ele>
        <time>2022-06-01T09:01:15Z</time>
      </trkpt>
      <trkpt lat="43.15364" lon="5.8515">
        <ele>236.8</ele>
        <time>2022-06-01T09:01:16Z</time>
      </trkpt>
      <trkpt lat="43.15357" lon="5.85151">
        <ele>235.6</ele>
        <time>2022-06-01T09:01:18Z</time>
      </trkpt>
      <trkpt lat="43.15353" lon="5.85152">
        <ele>235.2</ele>
        <time>2022-06-01T09:01:19Z</time>
      </trkpt>
      <trkpt lat="43.1535" lon="5.85154">
        <ele>234.6</ele>
        <time>2022-06-01T09:01:20Z</time>
      </trkpt>
      <trkpt lat="43.15344" lon="5.85161">
        <ele>233.4</ele>
        <time>2022-06-01T09:01:22Z</time>
      </trkpt>
      <trkpt lat="43.15337" lon="5.85169">
        <ele>232.2</ele>
        <time>2022-06-01T09:01:24Z</time>
      </trkpt>
      <trkpt lat="43.15328" lon="5.85176">
        <ele>231.2</ele>
        <time>2022-06-01T09:01:26Z</time>
      </trkpt>
      <trkpt lat="43.15323" lon="5.85179">
        <ele>230.6</ele>
        <time>2022-06-01T09:01:27Z</time>
      </trkpt>
      <trkpt lat="43.15315" lon="5.85186">
        <ele>229.8</ele>
        <time>2022-06-01T09:01:29Z</time>
      </trkpt>
      <trkpt lat="43.15307" lon="5.85191">
        <ele>228.6</ele>
        <time>2022-06-01T09:01:31Z</time>
      </trkpt>
      <trkpt lat="43.15298" lon="5.85193">
        <ele>227.4</ele>
        <time>2022-06-01T09:01:34Z</time>
      </trkpt>
      <trkpt lat="43.15291" lon="5.85196">
        <ele>226.6</ele>
        <time>2022-06-01T09:01:36Z</time>
      </trkpt>
      <trkpt lat="43.15288" lon="5.85198">
        <ele>226.2</ele>
        <time>2022-06-01T09:01:37Z</time>
      </trkpt>
      <trkpt lat="43.1528" lon="5.85205">
        <ele>224.8</ele>
        <time>2022-06-01T09:01:40Z</time>
      </trkpt>
      <trkpt lat="43.15274" lon="5.85211">
        <ele>223.2</ele>
        <time>2022-06-01T09:01:42Z</time>
      </trkpt>
      <trkpt lat="43.15267" lon="5.85214">
        <ele>222.4</ele>
        <time>2022-06-01T09:01:44Z</time>
      </trkpt>
      <trkpt lat="43.15262" lon="5.85215">
        <ele>222.2</ele>
        <time>2022-06-01T09:01:45Z</time>
      </trkpt>
      <trkpt lat="43.15252" lon="5.85219">
        <ele>221.6</ele>
        <time>2022-06-01T09:01:47Z</time>
      </trkpt>
      <trkpt lat="43.15248" lon="5.85223">
        <ele>221</ele>
        <time>2022-06-01T09:01:48Z</time>
      </trkpt>
      <trkpt lat="43.1524" lon="5.8523">
        <ele>219.8</ele>
        <time>2022-06-01T09:01:50Z</time>
      </trkpt>
      <trkpt lat="43.15224" lon="5.85241">
        <ele>218.8</ele>
        <time>2022-06-01T09:01:54Z</time>
      </trkpt>
      <trkpt lat="43.15217" lon="5.85245">
        <ele>217.6</ele>
        <time>2022-06-01T09:01:57Z</time>
      </trkpt>
      <trkpt lat="43.15212" lon="5.85255">
        <ele>216.2</ele>
        <time>2022-06-01T09:02:00Z</time>
      </trkpt>
      <trkpt lat="43.1521" lon="5.85269">
        <ele>215</ele>
        <time>2022-06-01T09:02:03Z</time>
      </trkpt>
      <trkpt lat="43.15209" lon="5.85295">
        <ele>214</ele>
        <time>2022-06-01T09:02:07Z</time>
      </trkpt>
      <trkpt lat="43.15207" lon="5.85306">
        <ele>213</ele>
        <time>2022-06-01T09:02:10Z</time>
      </trkpt>
      <trkpt lat="43.15206" lon="5.85308">
        <ele>211.8</ele>
        <time>2022-06-01T09:02:14Z</time>
      </trkpt>
      <trkpt lat="43.15205" lon="5.8531">
        <ele>210.8</ele>
        <time>2022-06-01T09:02:17Z</time>
      </trkpt>
      <trkpt lat="43.152" lon="5.85323">
        <ele>209.8</ele>
        <time>2022-06-01T09:02:41Z</time>
      </trkpt>
      <trkpt lat="43.15181" lon="5.85356">
        <ele>209.2</ele>
        <time>2022-06-01T09:02:50Z</time>
      </trkpt>
      <trkpt lat="43.1518" lon="5.85358">
        <ele>208.8</ele>
        <time>2022-06-01T09:02:51Z</time>
      </trkpt>
      <trkpt lat="43.15175" lon="5.8537">
        <ele>207.6</ele>
        <time>2022-06-01T09:02:55Z</time>
      </trkpt>
      <trkpt lat="43.1517" lon="5.85383">
        <ele>206.2</ele>
        <time>2022-06-01T09:02:58Z</time>
      </trkpt>
      <trkpt lat="43.15166" lon="5.85396">
        <ele>205</ele>
        <time>2022-06-01T09:03:01Z</time>
      </trkpt>
      <trkpt lat="43.15162" lon="5.85407">
        <ele>204</ele>
        <time>2022-06-01T09:03:03Z</time>
      </trkpt>
      <trkpt lat="43.15156" lon="5.85418">
        <ele>203.4</ele>
        <time>2022-06-01T09:03:05Z</time>
      </trkpt>
      <trkpt lat="43.1515" lon="5.85426">
        <ele>203</ele>
        <time>2022-06-01T09:03:07Z</time>
      </trkpt>
      <trkpt lat="43.15143" lon="5.85433">
        <ele>201.8</ele>
        <time>2022-06-01T09:03:09Z</time>
      </trkpt>
      <trkpt lat="43.15135" lon="5.85445">
        <ele>200.4</ele>
        <time>2022-06-01T09:03:12Z</time>
      </trkpt>
      <trkpt lat="43.15125" lon="5.85465">
        <ele>198.6</ele>
        <time>2022-06-01T09:03:16Z</time>
      </trkpt>
      <trkpt lat="43.15119" lon="5.85478">
        <ele>197.6</ele>
        <time>2022-06-01T09:03:18Z</time>
      </trkpt>
      <trkpt lat="43.15117" lon="5.85485">
        <ele>197.4</ele>
        <time>2022-06-01T09:03:19Z</time>
      </trkpt>
      <trkpt lat="43.15112" lon="5.85498">
        <ele>196.2</ele>
        <time>2022-06-01T09:03:21Z</time>
      </trkpt>
      <trkpt lat="43.15106" lon="5.85518">
        <ele>195</ele>
        <time>2022-06-01T09:03:25Z</time>
      </trkpt>
      <trkpt lat="43.15104" lon="5.85523">
        <ele>194.8</ele>
        <time>2022-06-01T09:03:26Z</time>
      </trkpt>
      <trkpt lat="43.15094" lon="5.85536">
        <ele>193.8</ele>
        <time>2022-06-01T09:03:29Z</time>
      </trkpt>
      <trkpt lat="43.15085" lon="5.85556">
        <ele>192.8</ele>
        <time>2022-06-01T09:03:32Z</time>
      </trkpt>
      <trkpt lat="43.15075" lon="5.85569">
        <ele>191.4</ele>
        <time>2022-06-01T09:03:35Z</time>
      </trkpt>
      <trkpt lat="43.15071" lon="5.85573">
        <ele>191.2</ele>
        <time>2022-06-01T09:03:36Z</time>
      </trkpt>
      <trkpt lat="43.15063" lon="5.85583">
        <ele>190.8</ele>
        <time>2022-06-01T09:03:38Z</time>
      </trkpt>
      <trkpt lat="43.15057" lon="5.85594">
        <ele>190.2</ele>
        <time>2022-06-01T09:03:40Z</time>
      </trkpt>
      <trkpt lat="43.15054" lon="5.85599">
        <ele>189.8</ele>
        <time>2022-06-01T09:03:41Z</time>
      </trkpt>
      <trkpt lat="43.15052" lon="5.85613">
        <ele>188.6</ele>
        <time>2022-06-01T09:03:43Z</time>
      </trkpt>
      <trkpt lat="43.15047" lon="5.85632">
        <ele>187.2</ele>
        <time>2022-06-01T09:03:46Z</time>
      </trkpt>
      <trkpt lat="43.15041" lon="5.85645">
        <ele>186.6</ele>
        <time>2022-06-01T09:03:48Z</time>
      </trkpt>
      <trkpt lat="43.15036" lon="5.85656">
        <ele>185.8</ele>
        <time>2022-06-01T09:03:50Z</time>
      </trkpt>
      <trkpt lat="43.15032" lon="5.85681">
        <ele>184.8</ele>
        <time>2022-06-01T09:03:54Z</time>
      </trkpt>
      <trkpt lat="43.15021" lon="5.85701">
        <ele>183.6</ele>
        <time>2022-06-01T09:03:58Z</time>
      </trkpt>
      <trkpt lat="43.15011" lon="5.85715">
        <ele>182.4</ele>
        <time>2022-06-01T09:04:01Z</time>
      </trkpt>
      <trkpt lat="43.15008" lon="5.85722">
        <ele>182.2</ele>
        <time>2022-06-01T09:04:02Z</time>
      </trkpt>
      <trkpt lat="43.15004" lon="5.85757">
        <ele>181.2</ele>
        <time>2022-06-01T09:04:07Z</time>
      </trkpt>
      <trkpt lat="43.15005" lon="5.85771">
        <ele>180.8</ele>
        <time>2022-06-01T09:04:09Z</time>
      </trkpt>
      <trkpt lat="43.15005" lon="5.85794">
        <ele>180.2</ele>
        <time>2022-06-01T09:04:12Z</time>
      </trkpt>
      <trkpt lat="43.15003" lon="5.85814">
        <ele>179.8</ele>
        <time>2022-06-01T09:04:15Z</time>
      </trkpt>
      <trkpt lat="43.14998" lon="5.85845">
        <ele>179.6</ele>
        <time>2022-06-01T09:04:20Z</time>
      </trkpt>
      <trkpt lat="43.14992" lon="5.85886">
        <ele>179.8</ele>
        <time>2022-06-01T09:04:28Z</time>
      </trkpt>
      <trkpt lat="43.14994" lon="5.85916">
        <ele>179.8</ele>
        <time>2022-06-01T09:04:33Z</time>
      </trkpt>
      <trkpt lat="43.15004" lon="5.85958">
        <ele>180.2</ele>
        <time>2022-06-01T09:04:40Z</time>
      </trkpt>
      <trkpt lat="43.15008" lon="5.8597">
        <ele>180.2</ele>
        <time>2022-06-01T09:04:42Z</time>
      </trkpt>
      <trkpt lat="43.15015" lon="5.85987">
        <ele>180.4</ele>
        <time>2022-06-01T09:04:45Z</time>
      </trkpt>
      <trkpt lat="43.15039" lon="5.86002">
        <ele>180.6</ele>
        <time>2022-06-01T09:04:51Z</time>
      </trkpt>
      <trkpt lat="43.15078" lon="5.86023">
        <ele>179</ele>
        <time>2022-06-01T09:05:03Z</time>
      </trkpt>
      <trkpt lat="43.15078" lon="5.86031">
        <ele>178</ele>
        <time>2022-06-01T09:05:05Z</time>
      </trkpt>
      <trkpt lat="43.15077" lon="5.86041">
        <ele>176.2</ele>
        <time>2022-06-01T09:05:07Z</time>
      </trkpt>
      <trkpt lat="43.15073" lon="5.86049">
        <ele>174.6</ele>
        <time>2022-06-01T09:05:09Z</time>
      </trkpt>
      <trkpt lat="43.15071" lon="5.86054">
        <ele>173.6</ele>
        <time>2022-06-01T09:05:10Z</time>
      </trkpt>
      <trkpt lat="43.15067" lon="5.86064">
        <ele>172.4</ele>
        <time>2022-06-01T09:05:12Z</time>
      </trkpt>
      <trkpt lat="43.15061" lon="5.8608">
        <ele>172.2</ele>
        <time>2022-06-01T09:05:15Z</time>
      </trkpt>
      <trkpt lat="43.15056" lon="5.86099">
        <ele>172</ele>
        <time>2022-06-01T09:05:18Z</time>
      </trkpt>
      <trkpt lat="43.15053" lon="5.86146">
        <ele>172.6</ele>
        <time>2022-06-01T09:05:26Z</time>
      </trkpt>
      <trkpt lat="43.15066" lon="5.86163">
        <ele>172.8</ele>
        <time>2022-06-01T09:05:30Z</time>
      </trkpt>
      <trkpt lat="43.15076" lon="5.86173">
        <ele>173.4</ele>
        <time>2022-06-01T09:05:33Z</time>
      </trkpt>
      <trkpt lat="43.15088" lon="5.86188">
        <ele>174</ele>
        <time>2022-06-01T09:05:37Z</time>
      </trkpt>
      <trkpt lat="43.1509" lon="5.86192">
        <ele>174.2</ele>
        <time>2022-06-01T09:05:38Z</time>
      </trkpt>
      <trkpt lat="43.151" lon="5.86209">
        <ele>175.4</ele>
        <time>2022-06-01T09:05:42Z</time>
      </trkpt>
      <trkpt lat="43.15108" lon="5.86224">
        <ele>176.4</ele>
        <time>2022-06-01T09:05:46Z</time>
      </trkpt>
      <trkpt lat="43.15117" lon="5.86247">
        <ele>177.4</ele>
        <time>2022-06-01T09:05:51Z</time>
      </trkpt>
      <trkpt lat="43.15147" lon="5.86306">
        <ele>178.4</ele>
        <time>2022-06-01T09:06:07Z</time>
      </trkpt>
      <trkpt lat="43.15157" lon="5.86311">
        <ele>178.4</ele>
        <time>2022-06-01T09:06:10Z</time>
      </trkpt>
      <trkpt lat="43.15183" lon="5.86307">
        <ele>179.2</ele>
        <time>2022-06-01T09:06:19Z</time>
      </trkpt>
      <trkpt lat="43.15197" lon="5.86301">
        <ele>179.4</ele>
        <time>2022-06-01T09:06:25Z</time>
      </trkpt>
      <trkpt lat="43.15208" lon="5.86302">
        <ele>179.4</ele>
        <time>2022-06-01T09:06:29Z</time>
      </trkpt>
      <trkpt lat="43.15213" lon="5.8631">
        <ele>179.6</ele>
        <time>2022-06-01T09:06:31Z</time>
      </trkpt>
      <trkpt lat="43.15216" lon="5.86323">
        <ele>179.6</ele>
        <time>2022-06-01T09:06:34Z</time>
      </trkpt>
      <trkpt lat="43.15219" lon="5.86348">
        <ele>179.8</ele>
        <time>2022-06-01T09:06:39Z</time>
      </trkpt>
      <trkpt lat="43.15204" lon="5.86371">
        <ele>180.8</ele>
        <time>2022-06-01T09:06:47Z</time>
      </trkpt>
      <trkpt lat="43.15196" lon="5.86405">
        <ele>181.8</ele>
        <time>2022-06-01T09:06:53Z</time>
      </trkpt>
      <trkpt lat="43.15181" lon="5.86418">
        <ele>182.2</ele>
        <time>2022-06-01T09:06:57Z</time>
      </trkpt>
      <trkpt lat="43.15139" lon="5.86442">
        <ele>182.4</ele>
        <time>2022-06-01T09:07:05Z</time>
      </trkpt>
      <trkpt lat="43.15117" lon="5.86474">
        <ele>182.2</ele>
        <time>2022-06-01T09:07:11Z</time>
      </trkpt>
      <trkpt lat="43.15109" lon="5.86499">
        <ele>181.8</ele>
        <time>2022-06-01T09:07:16Z</time>
      </trkpt>
      <trkpt lat="43.15101" lon="5.86523">
        <ele>181.8</ele>
        <time>2022-06-01T09:07:20Z</time>
      </trkpt>
      <trkpt lat="43.15083" lon="5.86565">
        <ele>182.6</ele>
        <time>2022-06-01T09:07:27Z</time>
      </trkpt>
      <trkpt lat="43.15074" lon="5.86588">
        <ele>183</ele>
        <time>2022-06-01T09:07:31Z</time>
      </trkpt>
      <trkpt lat="43.15058" lon="5.86634">
        <ele>183.2</ele>
        <time>2022-06-01T09:07:38Z</time>
      </trkpt>
      <trkpt lat="43.15043" lon="5.86688">
        <ele>183</ele>
        <time>2022-06-01T09:07:46Z</time>
      </trkpt>
      <trkpt lat="43.15042" lon="5.86702">
        <ele>183.2</ele>
        <time>2022-06-01T09:07:48Z</time>
      </trkpt>
      <trkpt lat="43.15028" lon="5.86775">
        <ele>182.8</ele>
        <time>2022-06-01T09:07:59Z</time>
      </trkpt>
      <trkpt lat="43.15028" lon="5.8679">
        <ele>182.8</ele>
        <time>2022-06-01T09:08:01Z</time>
      </trkpt>
      <trkpt lat="43.15021" lon="5.86833">
        <ele>182.6</ele>
        <time>2022-06-01T09:08:08Z</time>
      </trkpt>
      <trkpt lat="43.15007" lon="5.86879">
        <ele>182.2</ele>
        <time>2022-06-01T09:08:16Z</time>
      </trkpt>
      <trkpt lat="43.14979" lon="5.86898">
        <ele>180.8</ele>
        <time>2022-06-01T09:08:22Z</time>
      </trkpt>
      <trkpt lat="43.14974" lon="5.86902">
        <ele>180.4</ele>
        <time>2022-06-01T09:08:23Z</time>
      </trkpt>
      <trkpt lat="43.14961" lon="5.86914">
        <ele>179.2</ele>
        <time>2022-06-01T09:08:26Z</time>
      </trkpt>
      <trkpt lat="43.14955" lon="5.86917">
        <ele>178.4</ele>
        <time>2022-06-01T09:08:27Z</time>
      </trkpt>
      <trkpt lat="43.1495" lon="5.86917">
        <ele>177.6</ele>
        <time>2022-06-01T09:08:28Z</time>
      </trkpt>
      <trkpt lat="43.1494" lon="5.86918">
        <ele>176.6</ele>
        <time>2022-06-01T09:08:30Z</time>
      </trkpt>
      <trkpt lat="43.14935" lon="5.86917">
        <ele>175.4</ele>
        <time>2022-06-01T09:08:31Z</time>
      </trkpt>
      <trkpt lat="43.1493" lon="5.86916">
        <ele>174.4</ele>
        <time>2022-06-01T09:08:32Z</time>
      </trkpt>
      <trkpt lat="43.14914" lon="5.86912">
        <ele>173</ele>
        <time>2022-06-01T09:08:35Z</time>
      </trkpt>
      <trkpt lat="43.14904" lon="5.86911">
        <ele>171.6</ele>
        <time>2022-06-01T09:08:37Z</time>
      </trkpt>
      <trkpt lat="43.14892" lon="5.86911">
        <ele>170.4</ele>
        <time>2022-06-01T09:08:39Z</time>
      </trkpt>
      <trkpt lat="43.1488" lon="5.86913">
        <ele>169</ele>
        <time>2022-06-01T09:08:41Z</time>
      </trkpt>
      <trkpt lat="43.14869" lon="5.86917">
        <ele>168</ele>
        <time>2022-06-01T09:08:43Z</time>
      </trkpt>
      <trkpt lat="43.14861" lon="5.86925">
        <ele>166.8</ele>
        <time>2022-06-01T09:08:45Z</time>
      </trkpt>
      <trkpt lat="43.14857" lon="5.86936">
        <ele>164.8</ele>
        <time>2022-06-01T09:08:47Z</time>
      </trkpt>
      <trkpt lat="43.14859" lon="5.86949">
        <ele>163.6</ele>
        <time>2022-06-01T09:08:49Z</time>
      </trkpt>
      <trkpt lat="43.14864" lon="5.8696">
        <ele>162.4</ele>
        <time>2022-06-01T09:08:51Z</time>
      </trkpt>
      <trkpt lat="43.14873" lon="5.86969">
        <ele>160.6</ele>
        <time>2022-06-01T09:08:53Z</time>
      </trkpt>
      <trkpt lat="43.14877" lon="5.86973">
        <ele>160</ele>
        <time>2022-06-01T09:08:54Z</time>
      </trkpt>
      <trkpt lat="43.1488" lon="5.86978">
        <ele>159.6</ele>
        <time>2022-06-01T09:08:55Z</time>
      </trkpt>
      <trkpt lat="43.1489" lon="5.8699">
        <ele>158.4</ele>
        <time>2022-06-01T09:08:58Z</time>
      </trkpt>
      <trkpt lat="43.149" lon="5.87002">
        <ele>156.8</ele>
        <time>2022-06-01T09:09:01Z</time>
      </trkpt>
      <trkpt lat="43.14904" lon="5.87008">
        <ele>156.4</ele>
        <time>2022-06-01T09:09:02Z</time>
      </trkpt>
      <trkpt lat="43.14913" lon="5.87019">
        <ele>155.4</ele>
        <time>2022-06-01T09:09:04Z</time>
      </trkpt>
      <trkpt lat="43.14922" lon="5.8703">
        <ele>153.8</ele>
        <time>2022-06-01T09:09:06Z</time>
      </trkpt>
      <trkpt lat="43.1493" lon="5.87038">
        <ele>152</ele>
        <time>2022-06-01T09:09:08Z</time>
      </trkpt>
      <trkpt lat="43.14934" lon="5.87041">
        <ele>151.2</ele>
        <time>2022-06-01T09:09:09Z</time>
      </trkpt>
      <trkpt lat="43.14938" lon="5.87044">
        <ele>150.6</ele>
        <time>2022-06-01T09:09:10Z</time>
      </trkpt>
      <trkpt lat="43.14952" lon="5.8705">
        <ele>149.6</ele>
        <time>2022-06-01T09:09:13Z</time>
      </trkpt>
      <trkpt lat="43.14962" lon="5.87052">
        <ele>148.2</ele>
        <time>2022-06-01T09:09:15Z</time>
      </trkpt>
      <trkpt lat="43.14971" lon="5.87053">
        <ele>147</ele>
        <time>2022-06-01T09:09:17Z</time>
      </trkpt>
      <trkpt lat="43.14984" lon="5.87053">
        <ele>144.8</ele>
        <time>2022-06-01T09:09:20Z</time>
      </trkpt>
      <trkpt lat="43.14993" lon="5.87052">
        <ele>143.4</ele>
        <time>2022-06-01T09:09:22Z</time>
      </trkpt>
      <trkpt lat="43.15002" lon="5.87053">
        <ele>142.2</ele>
        <time>2022-06-01T09:09:24Z</time>
      </trkpt>
      <trkpt lat="43.15012" lon="5.87058">
        <ele>140.4</ele>
        <time>2022-06-01T09:09:27Z</time>
      </trkpt>
      <trkpt lat="43.15009" lon="5.87062">
        <ele>139</ele>
        <time>2022-06-01T09:09:29Z</time>
      </trkpt>
      <trkpt lat="43.15006" lon="5.87063">
        <ele>138.4</ele>
        <time>2022-06-01T09:09:30Z</time>
      </trkpt>
      <trkpt lat="43.15001" lon="5.87065">
        <ele>137.2</ele>
        <time>2022-06-01T09:09:31Z</time>
      </trkpt>
      <trkpt lat="43.14997" lon="5.87069">
        <ele>136.4</ele>
        <time>2022-06-01T09:09:32Z</time>
      </trkpt>
      <trkpt lat="43.14992" lon="5.87074">
        <ele>135.8</ele>
        <time>2022-06-01T09:09:33Z</time>
      </trkpt>
      <trkpt lat="43.14981" lon="5.87085">
        <ele>134.4</ele>
        <time>2022-06-01T09:09:35Z</time>
      </trkpt>
      <trkpt lat="43.14968" lon="5.87094">
        <ele>133.2</ele>
        <time>2022-06-01T09:09:37Z</time>
      </trkpt>
      <trkpt lat="43.14961" lon="5.87098">
        <ele>132.8</ele>
        <time>2022-06-01T09:09:38Z</time>
      </trkpt>
      <trkpt lat="43.14925" lon="5.8711">
        <ele>131.6</ele>
        <time>2022-06-01T09:09:42Z</time>
      </trkpt>
      <trkpt lat="43.14907" lon="5.87111">
        <ele>130.6</ele>
        <time>2022-06-01T09:09:44Z</time>
      </trkpt>
      <trkpt lat="43.14887" lon="5.87111">
        <ele>129</ele>
        <time>2022-06-01T09:09:46Z</time>
      </trkpt>
      <trkpt lat="43.14868" lon="5.8711">
        <ele>127.8</ele>
        <time>2022-06-01T09:09:48Z</time>
      </trkpt>
      <trkpt lat="43.1485" lon="5.87108">
        <ele>126.4</ele>
        <time>2022-06-01T09:09:50Z</time>
      </trkpt>
      <trkpt lat="43.14835" lon="5.87107">
        <ele>124.8</ele>
        <time>2022-06-01T09:09:52Z</time>
      </trkpt>
      <trkpt lat="43.14827" lon="5.87105">
        <ele>123.2</ele>
        <time>2022-06-01T09:09:53Z</time>
      </trkpt>
      <trkpt lat="43.14811" lon="5.87103">
        <ele>121.8</ele>
        <time>2022-06-01T09:09:55Z</time>
      </trkpt>
      <trkpt lat="43.14795" lon="5.87099">
        <ele>120.6</ele>
        <time>2022-06-01T09:09:57Z</time>
      </trkpt>
      <trkpt lat="43.14778" lon="5.87097">
        <ele>119.4</ele>
        <time>2022-06-01T09:09:59Z</time>
      </trkpt>
      <trkpt lat="43.14764" lon="5.87101">
        <ele>118</ele>
        <time>2022-06-01T09:10:01Z</time>
      </trkpt>
      <trkpt lat="43.1475" lon="5.8711">
        <ele>116.8</ele>
        <time>2022-06-01T09:10:03Z</time>
      </trkpt>
    </trkseg>
  </trk>
</gpx>